Darstellungsparameter: Aktuell verwendete Einstellungen:
Skalierung der Graphiken ... ?
xyx+y,   Skalierungsfaktor:      Skalierung: Modus: x, Faktor: 1
Darstellungszeitraum ... ?
Vom - - bis: - -   Zeitraum: 29.05.2014 - 04.06.2014
Min/Max/Avg-Anzeige ... ?
Zeige MMA aktuell
Zeige MMA Monat
Zeige MMA alles
Zeige --A aktuell
Zeige --A Monat
Zeige --A alles
Keine MMA-Anzeige
MMA:
Minimum Maximum Average (ber die Originaldaten)
MMA-Basis: 29.05.2014 - 04.06.2014
Quicknavigation für Darstellung... ?
Tage:      1T, 2T, 3T, 5T -1T -2T -3T -5T +1T +2T +3T +5T
Wochen: 1W, 2W, 3W -1W -2W -3W +1W +2W +3W
Monate: 1M, 3M, 6M -1M -3M -6M +1M +3M +6M
Jahre:    1J, 3J, 5J, 10J -1J -3J -5J -10J +1J +3J +5J +10J
Nutze für die Darstellung ... ?
Originaldaten oder Mittelwerte auf ...
Stundenbasis Tagesbasis Wochenbasis
Monatsbasis Jahresbasis      Datenbasis: Original-Daten
Darstellen als:
Statistik (Auto) Statistik J:M      Darstellung:
Zur Graphik,    zurück zur Übersicht aller Sensoren.
 
Tabellarische Datenbersicht: ?
 
Sensor: Nr:Datum:Temp:Abs-Feuchte:Windchill:Wind:
Aussen-T/F 1 29-05-2014 00:00:00 11.4 C 9.65 g/m*3 11.4 C 0 km/h
2 29-05-2014 00:05:00 11.4 C 9.65 g/m*3 11.4 C 0 km/h
3 29-05-2014 00:10:00 11.3 C 9.59 g/m*3 11.3 C 0 km/h
4 29-05-2014 00:15:00 11.2 C 9.53 g/m*3 11.2 C 0 km/h
5 29-05-2014 00:20:00 11.1 C 9.47 g/m*3 11.1 C 0 km/h
6 29-05-2014 00:25:00 11.1 C 9.57 g/m*3 11.1 C 0 km/h
7 29-05-2014 00:30:00 11.1 C 9.57 g/m*3 11.1 C 0 km/h
8 29-05-2014 00:35:00 11.1 C 9.57 g/m*3 11.1 C 0 km/h
9 29-05-2014 00:40:00 11.1 C 9.57 g/m*3 11.1 C 0 km/h
10 29-05-2014 00:45:00 11.1 C 9.57 g/m*3 11.1 C 0 km/h
11 29-05-2014 00:50:00 11.1 C 9.57 g/m*3 11.1 C 0 km/h
12 29-05-2014 00:55:00 11 C 9.51 g/m*3 11 C 0 km/h
13 29-05-2014 01:00:00 10.9 C 9.45 g/m*3 10.9 C 0 km/h
14 29-05-2014 01:05:00 10.9 C 9.45 g/m*3 10.9 C 0 km/h
15 29-05-2014 01:10:00 10.8 C 9.39 g/m*3 10.8 C 0 km/h
16 29-05-2014 01:15:00 10.8 C 9.39 g/m*3 10.8 C 0 km/h
17 29-05-2014 01:20:00 10.7 C 9.33 g/m*3 10.7 C 0 km/h
18 29-05-2014 01:25:00 10.7 C 9.33 g/m*3 10.7 C 1.6 km/h
19 29-05-2014 01:30:00 10.6 C 9.27 g/m*3 10.6 C 0 km/h
20 29-05-2014 01:35:00 10.6 C 9.27 g/m*3 10.6 C 0 km/h
21 29-05-2014 01:40:00 10.5 C 9.21 g/m*3 10.5 C 0 km/h
22 29-05-2014 01:45:00 10.4 C 9.25 g/m*3 10.4 C 0 km/h
23 29-05-2014 01:50:00 10.4 C 9.16 g/m*3 10.4 C 0 km/h
24 29-05-2014 01:55:00 10.3 C 9.19 g/m*3 10.3 C 1.6 km/h
25 29-05-2014 02:00:00 10.3 C 9.19 g/m*3 10.3 C 1.6 km/h
Sensor: Nr:Datum:Temp:Abs-Feuchte:Windchill:Wind:
Aussen-T/F 26 29-05-2014 02:05:00 10.3 C 9.19 g/m*3 10.3 C 0 km/h
27 29-05-2014 02:10:00 10.3 C 9.19 g/m*3 10.3 C 0 km/h
28 29-05-2014 02:15:00 10.2 C 9.14 g/m*3 10.2 C 0 km/h
29 29-05-2014 02:20:00 10.2 C 9.14 g/m*3 10.2 C 0 km/h
30 29-05-2014 02:25:00 10.1 C 9.08 g/m*3 10.1 C 0 km/h
31 29-05-2014 02:30:00 10.2 C 9.14 g/m*3 10.2 C 0 km/h
32 29-05-2014 02:35:00 10.1 C 9.08 g/m*3 10.1 C 0 km/h
33 29-05-2014 02:40:00 10.1 C 9.08 g/m*3 10.1 C 0 km/h
34 29-05-2014 02:45:00 10.1 C 9.08 g/m*3 10.1 C 0 km/h
35 29-05-2014 02:50:00 9.9 C 8.96 g/m*3 9.9 C 0 km/h
36 29-05-2014 02:55:00 9.9 C 8.96 g/m*3 9.9 C 0 km/h
37 29-05-2014 03:00:00 9.9 C 8.96 g/m*3 9.9 C 0 km/h
38 29-05-2014 03:05:00 9.9 C 8.96 g/m*3 9.9 C 0 km/h
39 29-05-2014 03:10:00 9.9 C 8.96 g/m*3 9.9 C 0 km/h
40 29-05-2014 03:15:00 9.9 C 8.96 g/m*3 9.9 C 0 km/h
41 29-05-2014 03:20:00 9.9 C 8.96 g/m*3 9.9 C 0 km/h
42 29-05-2014 03:25:00 9.9 C 8.96 g/m*3 9.9 C 0 km/h
43 29-05-2014 03:30:00 9.9 C 8.96 g/m*3 9.9 C 0 km/h
44 29-05-2014 03:35:00 9.9 C 8.96 g/m*3 9.9 C 0 km/h
45 29-05-2014 03:40:00 9.8 C 8.91 g/m*3 9.8 C 0 km/h
46 29-05-2014 03:45:00 9.8 C 8.91 g/m*3 9.8 C 0 km/h
47 29-05-2014 03:50:00 9.7 C 8.85 g/m*3 9.7 C 0 km/h
48 29-05-2014 03:55:00 9.6 C 8.79 g/m*3 9.6 C 0 km/h
49 29-05-2014 04:00:00 9.6 C 8.79 g/m*3 9.6 C 0 km/h
50 29-05-2014 04:05:00 9.6 C 8.79 g/m*3 9.6 C 0 km/h
Sensor: Nr:Datum:Temp:Abs-Feuchte:Windchill:Wind:
Aussen-T/F 51 29-05-2014 04:10:00 9.5 C 8.74 g/m*3 9.5 C 0 km/h
52 29-05-2014 04:15:00 9.6 C 8.89 g/m*3 9.6 C 0 km/h
53 29-05-2014 04:20:00 9.7 C 8.94 g/m*3 9.7 C 0 km/h
54 29-05-2014 04:25:00 9.8 C 9 g/m*3 9.8 C 0 km/h
55 29-05-2014 04:30:00 9.8 C 9 g/m*3 9.8 C 3.2 km/h
56 29-05-2014 04:35:00 9.9 C 9.06 g/m*3 9.9 C 0 km/h
57 29-05-2014 04:40:00 9.9 C 9.06 g/m*3 9.9 C 4.8 km/h
58 29-05-2014 04:45:00 9.9 C 9.06 g/m*3 9.9 C 0 km/h
59 29-05-2014 04:50:00 9.8 C 8.91 g/m*3 9.8 C 1.6 km/h
60 29-05-2014 04:55:00 9.7 C 8.94 g/m*3 9.7 C 1.6 km/h
61 29-05-2014 05:00:00 9.7 C 8.94 g/m*3 9.7 C 1.6 km/h
62 29-05-2014 05:05:00 9.7 C 8.85 g/m*3 9.7 C 0 km/h
63 29-05-2014 05:10:00 9.6 C 8.79 g/m*3 9.6 C 0 km/h
64 29-05-2014 05:15:00 9.6 C 8.79 g/m*3 9.6 C 1.6 km/h
65 29-05-2014 05:20:00 9.6 C 8.79 g/m*3 9.6 C 0 km/h
66 29-05-2014 05:25:00 9.6 C 8.79 g/m*3 9.6 C 0 km/h
67 29-05-2014 05:30:00 9.4 C 8.68 g/m*3 9.4 C 0 km/h
68 29-05-2014 05:35:00 9.4 C 8.77 g/m*3 9.4 C 0 km/h
69 29-05-2014 05:40:00 9.4 C 8.77 g/m*3 8.28 C 8.1 km/h
70 29-05-2014 05:45:00 9.4 C 8.77 g/m*3 9.4 C 3.2 km/h
71 29-05-2014 05:50:00 9.4 C 8.77 g/m*3 9.4 C 4.8 km/h
72 29-05-2014 05:55:00 9.4 C 8.77 g/m*3 9.4 C 1.6 km/h
73 29-05-2014 06:00:00 9.5 C 8.83 g/m*3 9.5 C 4.8 km/h
74 29-05-2014 06:05:00 9.5 C 8.83 g/m*3 9.5 C 4.8 km/h
75 29-05-2014 06:10:00 9.4 C 8.77 g/m*3 9.4 C 0 km/h
Sensor: Nr:Datum:Temp:Abs-Feuchte:Windchill:Wind:
Aussen-T/F 76 29-05-2014 06:15:00 9.4 C 8.77 g/m*3 9.4 C 3.2 km/h
77 29-05-2014 06:20:00 9.4 C 8.77 g/m*3 9.4 C 4.8 km/h
78 29-05-2014 06:25:00 9.5 C 8.83 g/m*3 8.09 C 9.7 km/h
79 29-05-2014 06:30:00 9.5 C 8.83 g/m*3 9.5 C 1.6 km/h
80 29-05-2014 06:35:00 9.6 C 8.89 g/m*3 9.6 C 3.2 km/h
81 29-05-2014 06:40:00 9.6 C 8.89 g/m*3 9.6 C 4.8 km/h
82 29-05-2014 06:45:00 9.6 C 8.89 g/m*3 9.6 C 4.8 km/h
83 29-05-2014 06:50:00 9.6 C 8.89 g/m*3 9.6 C 3.2 km/h
84 29-05-2014 06:55:00 9.7 C 8.94 g/m*3 9.7 C 3.2 km/h
85 29-05-2014 07:00:00 9.6 C 8.89 g/m*3 9.6 C 4.8 km/h
86 29-05-2014 07:05:00 9.7 C 8.94 g/m*3 9.7 C 4.8 km/h
87 29-05-2014 07:10:00 9.7 C 8.94 g/m*3 9.7 C 3.2 km/h
88 29-05-2014 07:15:00 9.7 C 8.94 g/m*3 9.02 C 6.4 km/h
89 29-05-2014 07:20:00 9.7 C 8.94 g/m*3 9.02 C 6.4 km/h
90 29-05-2014 07:25:00 9.7 C 8.94 g/m*3 9.02 C 6.4 km/h
91 29-05-2014 07:30:00 9.7 C 8.94 g/m*3 9.02 C 6.4 km/h
92 29-05-2014 07:35:00 9.7 C 8.94 g/m*3 8.33 C 9.7 km/h
93 29-05-2014 07:40:00 9.7 C 8.94 g/m*3 9.02 C 6.4 km/h
94 29-05-2014 07:45:00 9.8 C 9 g/m*3 9.14 C 6.4 km/h
95 29-05-2014 07:50:00 9.8 C 9 g/m*3 8.75 C 8.1 km/h
96 29-05-2014 07:55:00 9.9 C 9.06 g/m*3 8.87 C 8.1 km/h
97 29-05-2014 08:00:00 9.9 C 9.06 g/m*3 9.9 C 3.2 km/h
98 29-05-2014 08:05:00 10.1 C 9.17 g/m*3 10.1 C 0 km/h
99 29-05-2014 08:10:00 10.1 C 9.17 g/m*3 10.1 C 4.8 km/h
100 29-05-2014 08:15:00 10.1 C 9.17 g/m*3 10.1 C 4.8 km/h
Sensor: Nr:Datum:Temp:Abs-Feuchte:Windchill:Wind:
Aussen-T/F 101 29-05-2014 08:20:00 10.3 C 9.29 g/m*3 10.3 C 4.8 km/h
102 29-05-2014 08:25:00 10.4 C 9.35 g/m*3 10.4 C 4.8 km/h
103 29-05-2014 08:30:00 10.4 C 9.35 g/m*3 10.4 C 4.8 km/h
104 29-05-2014 08:35:00 10.6 C 9.47 g/m*3 10.6 C 3.2 km/h
105 29-05-2014 08:40:00 10.7 C 9.53 g/m*3 10.7 C 3.2 km/h
106 29-05-2014 08:45:00 10.8 C 9.59 g/m*3 10.8 C 4.8 km/h
107 29-05-2014 08:50:00 10.9 C 9.55 g/m*3 10.9 C 4.8 km/h
108 29-05-2014 08:55:00 10.9 C 9.55 g/m*3 10.9 C 4.8 km/h
109 29-05-2014 09:00:00 11.1 C 9.67 g/m*3 11.1 C 3.2 km/h
110 29-05-2014 09:05:00 11.2 C 9.73 g/m*3 11.2 C 3.2 km/h
111 29-05-2014 09:10:00 11.2 C 9.73 g/m*3 11.2 C 4.8 km/h
112 29-05-2014 09:15:00 11.3 C 9.69 g/m*3 11.3 C 3.2 km/h
113 29-05-2014 09:20:00 11.5 C 9.81 g/m*3 11.5 C 1.6 km/h
114 29-05-2014 09:25:00 11.7 C 9.94 g/m*3 11.7 C 3.2 km/h
115 29-05-2014 09:30:00 11.8 C 10 g/m*3 11.8 C 1.6 km/h
116 29-05-2014 09:35:00 12.1 C 10.08 g/m*3 12.1 C 3.2 km/h
117 29-05-2014 09:40:00 12.2 C 10.14 g/m*3 12.2 C 3.2 km/h
118 29-05-2014 09:45:00 12.3 C 10.1 g/m*3 12.3 C 3.2 km/h
119 29-05-2014 09:50:00 12.6 C 10.29 g/m*3 12.6 C 3.2 km/h
120 29-05-2014 09:55:00 12.8 C 10.42 g/m*3 12.8 C 4.8 km/h
121 29-05-2014 10:00:00 12.9 C 10.48 g/m*3 12.9 C 3.2 km/h
122 29-05-2014 10:05:00 13.2 C 10.56 g/m*3 13.2 C 1.6 km/h
123 29-05-2014 10:10:00 13.3 C 10.51 g/m*3 13.3 C 0 km/h
124 29-05-2014 10:15:00 13.4 C 10.58 g/m*3 13.4 C 1.6 km/h
125 29-05-2014 10:20:00 13.6 C 10.71 g/m*3 13.6 C 1.6 km/h
Sensor: Nr:Datum:Temp:Abs-Feuchte:Windchill:Wind:
Aussen-T/F 126 29-05-2014 10:25:00 13.8 C 10.84 g/m*3 13.8 C 3.2 km/h
127 29-05-2014 10:30:00 14.1 C 10.92 g/m*3 14.1 C 0 km/h
128 29-05-2014 10:35:00 14.2 C 10.99 g/m*3 14.2 C 0 km/h
129 29-05-2014 10:40:00 14.5 C 11.07 g/m*3 14.5 C 0 km/h
130 29-05-2014 10:45:00 14.7 C 11.21 g/m*3 14.7 C 3.2 km/h
131 29-05-2014 10:50:00 14.9 C 11.22 g/m*3 14.9 C 1.6 km/h
132 29-05-2014 10:55:00 15.1 C 11.22 g/m*3 15.1 C 3.2 km/h
133 29-05-2014 11:00:00 15.2 C 11.29 g/m*3 15.2 C 1.6 km/h
134 29-05-2014 11:05:00 15.2 C 11.03 g/m*3 15.2 C 0 km/h
135 29-05-2014 11:10:00 15.3 C 11.1 g/m*3 15.3 C 3.2 km/h
136 29-05-2014 11:15:00 15.4 C 11.04 g/m*3 15.4 C 4.8 km/h
137 29-05-2014 11:20:00 15.6 C 11.17 g/m*3 15.6 C 3.2 km/h
138 29-05-2014 11:25:00 15.7 C 11.11 g/m*3 15.7 C 1.6 km/h
139 29-05-2014 11:30:00 15.9 C 11.51 g/m*3 15.9 C 3.2 km/h
140 29-05-2014 11:35:00 16.2 C 11.72 g/m*3 16.2 C 0 km/h
141 29-05-2014 11:40:00 16.3 C 11.52 g/m*3 16.3 C 3.2 km/h
142 29-05-2014 11:45:00 16.4 C 11.31 g/m*3 16.4 C 0 km/h
143 29-05-2014 11:50:00 16.6 C 11.44 g/m*3 16.6 C 0 km/h
144 29-05-2014 11:55:00 16.7 C 11.51 g/m*3 16.7 C 6.4 km/h
145 29-05-2014 12:00:00 16.9 C 11.36 g/m*3 16.9 C 6.4 km/h
146 29-05-2014 12:05:00 17.1 C 11.5 g/m*3 17.1 C 0 km/h
147 29-05-2014 12:10:00 17.2 C 11.72 g/m*3 17.2 C 1.6 km/h
148 29-05-2014 12:15:00 17.3 C 11.49 g/m*3 17.3 C 8.1 km/h
149 29-05-2014 12:20:00 17.5 C 11.78 g/m*3 17.5 C 4.8 km/h
150 29-05-2014 12:25:00 17.5 C 11.33 g/m*3 17.5 C 4.8 km/h
Sensor: Nr:Datum:Temp:Abs-Feuchte:Windchill:Wind:
Aussen-T/F 151 29-05-2014 12:30:00 17.8 C 11.69 g/m*3 17.8 C 1.6 km/h
152 29-05-2014 12:35:00 17.8 C 11.38 g/m*3 17.8 C 4.8 km/h
153 29-05-2014 12:40:00 17.8 C 11.23 g/m*3 17.8 C 4.8 km/h
154 29-05-2014 12:45:00 17.7 C 11.01 g/m*3 17.7 C 4.8 km/h
155 29-05-2014 12:50:00 17.7 C 11.01 g/m*3 17.7 C 9.7 km/h
156 29-05-2014 12:55:00 17.8 C 11.54 g/m*3 17.8 C 6.4 km/h
157 29-05-2014 13:00:00 17.9 C 11.45 g/m*3 17.9 C 8.1 km/h
158 29-05-2014 13:05:00 18.2 C 11.35 g/m*3 18.2 C 9.7 km/h
159 29-05-2014 13:10:00 18.4 C 11.17 g/m*3 18.4 C 8.1 km/h
160 29-05-2014 13:15:00 18.7 C 11.21 g/m*3 18.7 C 6.4 km/h
161 29-05-2014 13:20:00 18.9 C 11.02 g/m*3 18.9 C 8.1 km/h
162 29-05-2014 13:25:00 19.1 C 11.31 g/m*3 19.1 C 8.1 km/h
163 29-05-2014 13:30:00 19.3 C 11.61 g/m*3 19.3 C 8.1 km/h
164 29-05-2014 13:35:00 19.4 C 11.35 g/m*3 19.4 C 9.7 km/h
165 29-05-2014 13:40:00 19.2 C 11.38 g/m*3 19.2 C 11.3 km/h
166 29-05-2014 13:45:00 19.1 C 11.31 g/m*3 19.1 C 9.7 km/h
167 29-05-2014 13:50:00 19.1 C 11.31 g/m*3 19.1 C 11.3 km/h
168 29-05-2014 13:55:00 19.1 C 11.31 g/m*3 19.1 C 11.3 km/h
169 29-05-2014 14:00:00 19.2 C 11.38 g/m*3 19.2 C 9.7 km/h
170 29-05-2014 14:05:00 19.2 C 11.05 g/m*3 19.2 C 9.7 km/h
171 29-05-2014 14:10:00 19.1 C 11.15 g/m*3 19.1 C 4.8 km/h
172 29-05-2014 14:15:00 19 C 11.08 g/m*3 19 C 8.1 km/h
173 29-05-2014 14:20:00 18.9 C 11.18 g/m*3 18.9 C 8.1 km/h
174 29-05-2014 14:25:00 18.8 C 10.95 g/m*3 18.8 C 11.3 km/h
175 29-05-2014 14:30:00 18.8 C 11.11 g/m*3 18.8 C 11.3 km/h
Sensor: Nr:Datum:Temp:Abs-Feuchte:Windchill:Wind:
Aussen-T/F 176 29-05-2014 14:35:00 18.8 C 11.11 g/m*3 18.8 C 12.9 km/h
177 29-05-2014 14:40:00 18.7 C 11.05 g/m*3 18.7 C 12.9 km/h
178 29-05-2014 14:45:00 18.5 C 11.23 g/m*3 18.5 C 6.4 km/h
179 29-05-2014 14:50:00 18.4 C 11.17 g/m*3 18.4 C 9.7 km/h
180 29-05-2014 14:55:00 18.4 C 11.17 g/m*3 18.4 C 11.3 km/h
181 29-05-2014 15:00:00 18.3 C 11.26 g/m*3 18.3 C 9.7 km/h
182 29-05-2014 15:05:00 18.2 C 11.19 g/m*3 18.2 C 8.1 km/h
183 29-05-2014 15:10:00 18.2 C 11.19 g/m*3 18.2 C 11.3 km/h
184 29-05-2014 15:15:00 18.2 C 11.35 g/m*3 18.2 C 11.3 km/h
185 29-05-2014 15:20:00 18.2 C 11.04 g/m*3 18.2 C 9.7 km/h
186 29-05-2014 15:25:00 18.1 C 10.97 g/m*3 18.1 C 11.3 km/h
187 29-05-2014 15:30:00 18.1 C 10.97 g/m*3 18.1 C 9.7 km/h
188 29-05-2014 15:35:00 17.9 C 10.69 g/m*3 17.9 C 14.5 km/h
189 29-05-2014 15:40:00 17.7 C 10.71 g/m*3 17.7 C 9.7 km/h
190 29-05-2014 15:45:00 17.5 C 10.73 g/m*3 17.5 C 8.1 km/h
191 29-05-2014 15:50:00 17.3 C 10.61 g/m*3 17.3 C 6.4 km/h
192 29-05-2014 15:55:00 17.2 C 10.54 g/m*3 17.2 C 8.1 km/h
193 29-05-2014 16:00:00 17.1 C 10.63 g/m*3 17.1 C 8.1 km/h
194 29-05-2014 16:05:00 17.1 C 10.63 g/m*3 17.1 C 6.4 km/h
195 29-05-2014 16:10:00 17 C 10.56 g/m*3 17 C 6.4 km/h
196 29-05-2014 16:15:00 17 C 10.85 g/m*3 17 C 8.1 km/h
197 29-05-2014 16:20:00 16.9 C 10.79 g/m*3 16.9 C 8.1 km/h
198 29-05-2014 16:25:00 16.9 C 10.79 g/m*3 16.9 C 8.1 km/h
199 29-05-2014 16:30:00 16.9 C 10.64 g/m*3 16.9 C 8.1 km/h
200 29-05-2014 16:35:00 16.8 C 10.58 g/m*3 16.8 C 12.9 km/h
Sensor: Nr:Datum:Temp:Abs-Feuchte:Windchill:Wind:
Aussen-T/F 201 29-05-2014 16:40:00 16.7 C 10.52 g/m*3 16.7 C 9.7 km/h
202 29-05-2014 16:45:00 16.7 C 10.66 g/m*3 16.7 C 8.1 km/h
203 29-05-2014 16:50:00 16.7 C 10.66 g/m*3 16.7 C 8.1 km/h
204 29-05-2014 16:55:00 16.7 C 10.8 g/m*3 16.7 C 8.1 km/h
205 29-05-2014 17:00:00 16.7 C 10.8 g/m*3 16.7 C 8.1 km/h
206 29-05-2014 17:05:00 16.6 C 10.74 g/m*3 16.6 C 8.1 km/h
207 29-05-2014 17:10:00 16.6 C 10.74 g/m*3 16.6 C 6.4 km/h
208 29-05-2014 17:15:00 16.5 C 10.53 g/m*3 16.5 C 9.7 km/h
209 29-05-2014 17:20:00 16.5 C 10.67 g/m*3 16.5 C 8.1 km/h
210 29-05-2014 17:25:00 16.4 C 10.47 g/m*3 16.4 C 9.7 km/h
211 29-05-2014 17:30:00 16.4 C 10.61 g/m*3 16.4 C 9.7 km/h
212 29-05-2014 17:35:00 16.3 C 10.68 g/m*3 16.3 C 9.7 km/h
213 29-05-2014 17:40:00 16.3 C 10.82 g/m*3 16.3 C 9.7 km/h
214 29-05-2014 17:45:00 16.3 C 10.68 g/m*3 16.3 C 9.7 km/h
215 29-05-2014 17:50:00 16.2 C 10.62 g/m*3 16.2 C 8.1 km/h
216 29-05-2014 17:55:00 16.1 C 10.55 g/m*3 16.1 C 6.4 km/h
217 29-05-2014 18:00:00 16 C 10.63 g/m*3 16 C 6.4 km/h
218 29-05-2014 18:05:00 15.9 C 10.7 g/m*3 15.9 C 8.1 km/h
219 29-05-2014 18:10:00 15.9 C 10.56 g/m*3 15.9 C 9.7 km/h
220 29-05-2014 18:15:00 15.8 C 10.5 g/m*3 15.8 C 4.8 km/h
221 29-05-2014 18:20:00 15.7 C 10.57 g/m*3 15.7 C 6.4 km/h
222 29-05-2014 18:25:00 15.7 C 10.57 g/m*3 15.7 C 8.1 km/h
223 29-05-2014 18:30:00 15.6 C 10.51 g/m*3 15.6 C 8.1 km/h
224 29-05-2014 18:35:00 15.6 C 10.64 g/m*3 15.6 C 4.8 km/h
225 29-05-2014 18:40:00 15.6 C 10.91 g/m*3 15.6 C 4.8 km/h
Sensor: Nr:Datum:Temp:Abs-Feuchte:Windchill:Wind:
Aussen-T/F 226 29-05-2014 18:45:00 15.4 C 10.77 g/m*3 15.4 C 6.4 km/h
227 29-05-2014 18:50:00 15.3 C 10.84 g/m*3 15.3 C 4.8 km/h
228 29-05-2014 18:55:00 15.3 C 10.97 g/m*3 15.3 C 3.2 km/h
229 29-05-2014 19:00:00 15.2 C 11.16 g/m*3 15.2 C 3.2 km/h
230 29-05-2014 19:05:00 15.1 C 10.84 g/m*3 15.1 C 4.8 km/h
231 29-05-2014 19:10:00 14.9 C 10.58 g/m*3 14.9 C 6.4 km/h
232 29-05-2014 19:15:00 14.8 C 10.77 g/m*3 14.8 C 3.2 km/h
233 29-05-2014 19:20:00 14.8 C 10.77 g/m*3 14.8 C 4.8 km/h
234 29-05-2014 19:25:00 14.8 C 10.89 g/m*3 14.8 C 0 km/h
235 29-05-2014 19:30:00 14.8 C 11.02 g/m*3 14.8 C 0 km/h
236 29-05-2014 19:35:00 14.8 C 10.77 g/m*3 14.8 C 4.8 km/h
237 29-05-2014 19:40:00 14.8 C 10.77 g/m*3 14.8 C 3.2 km/h
238 29-05-2014 19:45:00 14.7 C 10.7 g/m*3 14.7 C 3.2 km/h
239 29-05-2014 19:50:00 14.8 C 10.89 g/m*3 14.8 C 3.2 km/h
240 29-05-2014 19:55:00 14.7 C 10.7 g/m*3 14.7 C 4.8 km/h
241 29-05-2014 20:00:00 14.7 C 10.7 g/m*3 14.7 C 4.8 km/h
242 29-05-2014 20:05:00 14.7 C 10.7 g/m*3 14.7 C 4.8 km/h
243 29-05-2014 20:10:00 14.6 C 10.64 g/m*3 14.6 C 4.8 km/h
244 29-05-2014 20:15:00 14.6 C 10.64 g/m*3 14.6 C 4.8 km/h
245 29-05-2014 20:20:00 14.6 C 10.76 g/m*3 14.6 C 0 km/h
246 29-05-2014 20:25:00 14.5 C 10.82 g/m*3 14.5 C 0 km/h
247 29-05-2014 20:30:00 14.4 C 10.88 g/m*3 14.4 C 0 km/h
248 29-05-2014 20:35:00 14.3 C 10.93 g/m*3 14.3 C 0 km/h
249 29-05-2014 20:40:00 14.2 C 10.87 g/m*3 14.2 C 0 km/h
250 29-05-2014 20:45:00 14.1 C 10.92 g/m*3 14.1 C 1.6 km/h
Sensor: Nr:Datum:Temp:Abs-Feuchte:Windchill:Wind:
Aussen-T/F 251 29-05-2014 20:50:00 13.9 C 10.79 g/m*3 13.9 C 3.2 km/h
252 29-05-2014 20:55:00 13.9 C 10.91 g/m*3 13.9 C 0 km/h
253 29-05-2014 21:00:00 13.8 C 10.84 g/m*3 13.8 C 0 km/h
254 29-05-2014 21:05:00 13.8 C 10.84 g/m*3 13.8 C 0 km/h
255 29-05-2014 21:10:00 13.8 C 10.96 g/m*3 13.8 C 0 km/h
256 29-05-2014 21:15:00 13.7 C 10.89 g/m*3 13.7 C 0 km/h
257 29-05-2014 21:20:00 13.7 C 10.89 g/m*3 13.7 C 0 km/h
258 29-05-2014 21:25:00 13.7 C 10.89 g/m*3 13.7 C 1.6 km/h
259 29-05-2014 21:30:00 13.7 C 10.89 g/m*3 13.7 C 0 km/h
260 29-05-2014 21:35:00 13.7 C 10.89 g/m*3 13.7 C 0 km/h
261 29-05-2014 21:40:00 13.6 C 10.95 g/m*3 13.6 C 0 km/h
262 29-05-2014 21:45:00 13.6 C 10.95 g/m*3 13.6 C 0 km/h
263 29-05-2014 21:50:00 13.6 C 10.95 g/m*3 13.6 C 0 km/h
264 29-05-2014 21:55:00 13.5 C 10.88 g/m*3 13.5 C 0 km/h
265 29-05-2014 22:00:00 13.5 C 10.76 g/m*3 13.5 C 9.7 km/h
266 29-05-2014 22:05:00 13.4 C 10.46 g/m*3 13.4 C 3.2 km/h
267 29-05-2014 22:10:00 13.3 C 10.28 g/m*3 13.3 C 8.1 km/h
268 29-05-2014 22:15:00 13.3 C 10.17 g/m*3 13.3 C 11.3 km/h
269 29-05-2014 22:20:00 13.2 C 10.1 g/m*3 13.2 C 8.1 km/h
270 29-05-2014 22:25:00 13.1 C 9.93 g/m*3 13.1 C 4.8 km/h
271 29-05-2014 22:30:00 13 C 9.87 g/m*3 13 C 8.1 km/h
272 29-05-2014 22:35:00 12.9 C 9.81 g/m*3 12.9 C 8.1 km/h
273 29-05-2014 22:40:00 12.8 C 9.63 g/m*3 12.8 C 6.4 km/h
274 29-05-2014 22:45:00 12.8 C 9.63 g/m*3 12.8 C 1.6 km/h
275 29-05-2014 22:50:00 12.7 C 9.57 g/m*3 12.7 C 6.4 km/h
Sensor: Nr:Datum:Temp:Abs-Feuchte:Windchill:Wind:
Aussen-T/F 276 29-05-2014 22:55:00 12.6 C 9.4 g/m*3 12.6 C 4.8 km/h
277 29-05-2014 23:00:00 12.6 C 9.51 g/m*3 12.6 C 11.3 km/h
278 29-05-2014 23:05:00 12.5 C 9.35 g/m*3 12.5 C 12.9 km/h
279 29-05-2014 23:10:00 12.4 C 9.4 g/m*3 12.4 C 8.1 km/h
280 29-05-2014 23:15:00 12.4 C 9.4 g/m*3 12.4 C 6.4 km/h
281 29-05-2014 23:20:00 12.4 C 9.4 g/m*3 12.4 C 4.8 km/h
282 29-05-2014 23:25:00 12.3 C 9.34 g/m*3 12.3 C 4.8 km/h
283 29-05-2014 23:30:00 12.3 C 9.34 g/m*3 12.3 C 4.8 km/h
284 29-05-2014 23:35:00 12.3 C 9.34 g/m*3 12.3 C 8.1 km/h
285 29-05-2014 23:40:00 12.3 C 9.34 g/m*3 12.3 C 11.3 km/h
286 29-05-2014 23:45:00 12.3 C 9.34 g/m*3 12.3 C 4.8 km/h
287 29-05-2014 23:50:00 12.2 C 9.28 g/m*3 12.2 C 4.8 km/h
288 29-05-2014 23:55:00 12.1 C 9.22 g/m*3 12.1 C 6.4 km/h
289 30-05-2014 00:00:00 12.1 C 9.22 g/m*3 12.1 C 8.1 km/h
290 30-05-2014 00:05:00 12.1 C 9.22 g/m*3 12.1 C 4.8 km/h
291 30-05-2014 00:10:00 12 C 9.06 g/m*3 12 C 6.4 km/h
292 30-05-2014 00:15:00 11.9 C 9 g/m*3 11.9 C 6.4 km/h
293 30-05-2014 00:20:00 11.9 C 9 g/m*3 11.9 C 8.1 km/h
294 30-05-2014 00:25:00 11.9 C 9 g/m*3 11.9 C 8.1 km/h
295 30-05-2014 00:30:00 11.8 C 8.95 g/m*3 11.8 C 8.1 km/h
296 30-05-2014 00:35:00 11.8 C 8.95 g/m*3 11.8 C 3.2 km/h
297 30-05-2014 00:40:00 11.8 C 8.95 g/m*3 11.8 C 4.8 km/h
298 30-05-2014 00:45:00 11.7 C 8.89 g/m*3 11.7 C 9.7 km/h
299 30-05-2014 00:50:00 11.7 C 8.89 g/m*3 11.7 C 9.7 km/h
300 30-05-2014 00:55:00 11.6 C 8.94 g/m*3 11.6 C 4.8 km/h
Sensor: Nr:Datum:Temp:Abs-Feuchte:Windchill:Wind:
Aussen-T/F 301 30-05-2014 01:00:00 11.6 C 8.94 g/m*3 11.6 C 6.4 km/h
302 30-05-2014 01:05:00 11.5 C 8.88 g/m*3 11.5 C 8.1 km/h
303 30-05-2014 01:10:00 11.5 C 8.88 g/m*3 11.5 C 6.4 km/h
304 30-05-2014 01:15:00 11.4 C 8.72 g/m*3 11.4 C 8.1 km/h
305 30-05-2014 01:20:00 11.4 C 8.72 g/m*3 11.4 C 8.1 km/h
306 30-05-2014 01:25:00 11.3 C 8.57 g/m*3 11.3 C 8.1 km/h
307 30-05-2014 01:30:00 11.3 C 8.57 g/m*3 11.3 C 4.8 km/h
308 30-05-2014 01:35:00 11.2 C 8.51 g/m*3 11.2 C 9.7 km/h
309 30-05-2014 01:40:00 11.2 C 8.51 g/m*3 11.2 C 6.4 km/h
310 30-05-2014 01:45:00 11.2 C 8.51 g/m*3 11.2 C 6.4 km/h
311 30-05-2014 01:50:00 11.2 C 8.41 g/m*3 11.2 C 14.5 km/h
312 30-05-2014 01:55:00 11.1 C 8.36 g/m*3 11.1 C 12.9 km/h
313 30-05-2014 02:00:00 11.1 C 8.46 g/m*3 11.1 C 3.2 km/h
314 30-05-2014 02:05:00 11.1 C 8.36 g/m*3 11.1 C 4.8 km/h
315 30-05-2014 02:10:00 11.1 C 8.36 g/m*3 11.1 C 3.2 km/h
316 30-05-2014 02:15:00 11.1 C 8.36 g/m*3 11.1 C 3.2 km/h
317 30-05-2014 02:20:00 11.1 C 8.46 g/m*3 11.1 C 1.6 km/h
318 30-05-2014 02:25:00 11.1 C 8.46 g/m*3 11.1 C 4.8 km/h
319 30-05-2014 02:30:00 11.1 C 8.46 g/m*3 11.1 C 3.2 km/h
320 30-05-2014 02:35:00 11.1 C 8.56 g/m*3 11.1 C 1.6 km/h
321 30-05-2014 02:40:00 11.1 C 8.56 g/m*3 11.1 C 3.2 km/h
322 30-05-2014 02:45:00 11.1 C 8.56 g/m*3 11.1 C 1.6 km/h
323 30-05-2014 02:50:00 11.1 C 8.56 g/m*3 11.1 C 1.6 km/h
324 30-05-2014 02:55:00 11.1 C 8.56 g/m*3 11.1 C 6.4 km/h
325 30-05-2014 03:00:00 11.1 C 8.56 g/m*3 11.1 C 0 km/h
Sensor: Nr:Datum:Temp:Abs-Feuchte:Windchill:Wind:
Aussen-T/F 326 30-05-2014 03:05:00 11 C 8.51 g/m*3 11 C 3.2 km/h
327 30-05-2014 03:10:00 10.9 C 8.26 g/m*3 10.41 C 6.4 km/h
328 30-05-2014 03:15:00 10.9 C 8.26 g/m*3 10.9 C 3.2 km/h
329 30-05-2014 03:20:00 10.9 C 8.26 g/m*3 10.9 C 3.2 km/h
330 30-05-2014 03:25:00 10.9 C 8.26 g/m*3 10.9 C 3.2 km/h
331 30-05-2014 03:30:00 10.9 C 8.36 g/m*3 10.9 C 1.6 km/h
332 30-05-2014 03:35:00 10.9 C 8.26 g/m*3 10.9 C 4.8 km/h
333 30-05-2014 03:40:00 10.9 C 8.26 g/m*3 10.9 C 3.2 km/h
334 30-05-2014 03:45:00 10.8 C 8.2 g/m*3 10.8 C 3.2 km/h
335 30-05-2014 03:50:00 10.8 C 8.2 g/m*3 10.8 C 4.8 km/h
336 30-05-2014 03:55:00 10.8 C 8.2 g/m*3 10.8 C 3.2 km/h
337 30-05-2014 04:00:00 10.8 C 8.11 g/m*3 10.8 C 1.6 km/h
338 30-05-2014 04:05:00 10.8 C 8.2 g/m*3 10.8 C 4.8 km/h
339 30-05-2014 04:10:00 10.7 C 8.05 g/m*3 10.7 C 1.6 km/h
340 30-05-2014 04:15:00 10.7 C 8.05 g/m*3 10.7 C 0 km/h
341 30-05-2014 04:20:00 10.7 C 8.15 g/m*3 10.7 C 0 km/h
342 30-05-2014 04:25:00 10.7 C 8.15 g/m*3 10.7 C 0 km/h
343 30-05-2014 04:30:00 10.7 C 8.25 g/m*3 10.7 C 0 km/h
344 30-05-2014 04:35:00 10.7 C 8.15 g/m*3 10.7 C 4.8 km/h
345 30-05-2014 04:40:00 10.6 C 8 g/m*3 10.6 C 4.8 km/h
346 30-05-2014 04:45:00 10.6 C 8.1 g/m*3 10.6 C 1.6 km/h
347 30-05-2014 04:50:00 10.6 C 8 g/m*3 10.6 C 3.2 km/h
348 30-05-2014 04:55:00 10.6 C 8 g/m*3 10.6 C 3.2 km/h
349 30-05-2014 05:00:00 10.6 C 8.1 g/m*3 10.6 C 0 km/h
350 30-05-2014 05:05:00 10.6 C 8 g/m*3 10.6 C 3.2 km/h
Sensor: Nr:Datum:Temp:Abs-Feuchte:Windchill:Wind:
Aussen-T/F 351 30-05-2014 05:10:00 10.6 C 8.1 g/m*3 10.6 C 0 km/h
352 30-05-2014 05:15:00 10.6 C 8.2 g/m*3 10.6 C 1.6 km/h
353 30-05-2014 05:20:00 10.5 C 8.15 g/m*3 10.5 C 0 km/h
354 30-05-2014 05:25:00 10.4 C 8.1 g/m*3 10.4 C 0 km/h
355 30-05-2014 05:30:00 10.4 C 8 g/m*3 10.4 C 1.6 km/h
356 30-05-2014 05:35:00 10.4 C 8.1 g/m*3 10.4 C 0 km/h
357 30-05-2014 05:40:00 10.4 C 7.9 g/m*3 10.4 C 3.2 km/h
358 30-05-2014 05:45:00 10.3 C 7.95 g/m*3 10.3 C 0 km/h
359 30-05-2014 05:50:00 10.3 C 8.04 g/m*3 10.3 C 0 km/h
360 30-05-2014 05:55:00 10.3 C 7.95 g/m*3 10.3 C 1.6 km/h
361 30-05-2014 06:00:00 10.3 C 7.95 g/m*3 10.3 C 1.6 km/h
362 30-05-2014 06:05:00 10.3 C 7.95 g/m*3 10.3 C 0 km/h
363 30-05-2014 06:10:00 10.3 C 7.95 g/m*3 10.3 C 1.6 km/h
364 30-05-2014 06:15:00 10.3 C 7.95 g/m*3 10.3 C 3.2 km/h
365 30-05-2014 06:20:00 10.3 C 7.95 g/m*3 10.3 C 3.2 km/h
366 30-05-2014 06:25:00 10.3 C 7.85 g/m*3 10.3 C 3.2 km/h
367 30-05-2014 06:30:00 10.4 C 7.9 g/m*3 10.4 C 3.2 km/h
368 30-05-2014 06:35:00 10.4 C 7.9 g/m*3 10.4 C 4.8 km/h
369 30-05-2014 06:40:00 10.4 C 7.81 g/m*3 10.4 C 4.8 km/h
370 30-05-2014 06:45:00 10.4 C 7.81 g/m*3 9.83 C 6.4 km/h
371 30-05-2014 06:50:00 10.4 C 7.71 g/m*3 9.83 C 6.4 km/h
372 30-05-2014 06:55:00 10.5 C 7.76 g/m*3 10.5 C 3.2 km/h
373 30-05-2014 07:00:00 10.5 C 7.76 g/m*3 10.5 C 1.6 km/h
374 30-05-2014 07:05:00 10.5 C 7.86 g/m*3 10.5 C 1.6 km/h
375 30-05-2014 07:10:00 10.6 C 7.81 g/m*3 10.6 C 1.6 km/h
Sensor: Nr:Datum:Temp:Abs-Feuchte:Windchill:Wind:
Aussen-T/F 376 30-05-2014 07:15:00 10.6 C 7.71 g/m*3 10.6 C 3.2 km/h
377 30-05-2014 07:20:00 10.6 C 7.61 g/m*3 10.6 C 4.8 km/h
378 30-05-2014 07:25:00 10.6 C 7.71 g/m*3 10.6 C 1.6 km/h
379 30-05-2014 07:30:00 10.7 C 7.66 g/m*3 10.7 C 1.6 km/h
380 30-05-2014 07:35:00 10.7 C 7.66 g/m*3 9.52 C 9.7 km/h
381 30-05-2014 07:40:00 10.8 C 7.61 g/m*3 10.29 C 6.4 km/h
382 30-05-2014 07:45:00 10.8 C 7.61 g/m*3 10.8 C 4.8 km/h
383 30-05-2014 07:50:00 10.9 C 7.66 g/m*3 10.9 C 3.2 km/h
384 30-05-2014 07:55:00 11 C 7.71 g/m*3 10.16 C 8.1 km/h
385 30-05-2014 08:00:00 11.2 C 7.7 g/m*3 11.2 C 4.8 km/h
386 30-05-2014 08:05:00 11.3 C 7.75 g/m*3 11.3 C 4.8 km/h
387 30-05-2014 08:10:00 11.4 C 7.8 g/m*3 11.4 C 4.8 km/h
388 30-05-2014 08:15:00 11.7 C 7.74 g/m*3 11.7 C 6.4 km/h
389 30-05-2014 08:20:00 11.9 C 7.84 g/m*3 11.9 C 9.7 km/h
390 30-05-2014 08:25:00 12 C 7.67 g/m*3 12 C 8.1 km/h
391 30-05-2014 08:30:00 12.1 C 7.72 g/m*3 12.1 C 8.1 km/h
392 30-05-2014 08:35:00 12.1 C 7.61 g/m*3 12.1 C 11.3 km/h
393 30-05-2014 08:40:00 12 C 7.46 g/m*3 12 C 4.8 km/h
394 30-05-2014 08:45:00 12.1 C 7.51 g/m*3 12.1 C 4.8 km/h
395 30-05-2014 08:50:00 12.2 C 7.45 g/m*3 12.2 C 6.4 km/h
396 30-05-2014 08:55:00 12.4 C 7.43 g/m*3 12.4 C 8.1 km/h
397 30-05-2014 09:00:00 12.5 C 7.37 g/m*3 12.5 C 8.1 km/h
398 30-05-2014 09:05:00 12.7 C 7.24 g/m*3 12.7 C 11.3 km/h
399 30-05-2014 09:10:00 12.7 C 7.35 g/m*3 12.7 C 12.9 km/h
400 30-05-2014 09:15:00 12.7 C 7.35 g/m*3 12.7 C 8.1 km/h
Sensor: Nr:Datum:Temp:Abs-Feuchte:Windchill:Wind:
Aussen-T/F 401 30-05-2014 09:20:00 12.7 C 7.46 g/m*3 12.7 C 11.3 km/h
402 30-05-2014 09:25:00 12.6 C 7.3 g/m*3 12.6 C 8.1 km/h
403 30-05-2014 09:30:00 12.5 C 7.26 g/m*3 12.5 C 9.7 km/h
404 30-05-2014 09:35:00 12.4 C 7.21 g/m*3 12.4 C 3.2 km/h
405 30-05-2014 09:40:00 12.3 C 7.38 g/m*3 12.3 C 6.4 km/h
406 30-05-2014 09:45:00 12.3 C 7.38 g/m*3 12.3 C 11.3 km/h
407 30-05-2014 09:50:00 12.5 C 7.37 g/m*3 12.5 C 9.7 km/h
408 30-05-2014 09:55:00 12.7 C 7.46 g/m*3 12.7 C 8.1 km/h
409 30-05-2014 10:00:00 12.9 C 7.44 g/m*3 12.9 C 9.7 km/h
410 30-05-2014 10:05:00 13.3 C 7.63 g/m*3 13.3 C 12.9 km/h
411 30-05-2014 10:10:00 13.7 C 7.82 g/m*3 13.7 C 11.3 km/h
412 30-05-2014 10:15:00 14 C 7.84 g/m*3 14 C 12.9 km/h
413 30-05-2014 10:20:00 14.3 C 7.86 g/m*3 14.3 C 12.9 km/h
414 30-05-2014 10:25:00 14.4 C 7.66 g/m*3 14.4 C 11.3 km/h
415 30-05-2014 10:30:00 14.6 C 8.01 g/m*3 14.6 C 9.7 km/h
416 30-05-2014 10:35:00 14.7 C 8.18 g/m*3 14.7 C 12.9 km/h
417 30-05-2014 10:40:00 14.9 C 8.03 g/m*3 14.9 C 11.3 km/h
418 30-05-2014 10:45:00 15.2 C 8.05 g/m*3 15.2 C 9.7 km/h
419 30-05-2014 10:50:00 15.2 C 8.05 g/m*3 15.2 C 11.3 km/h
420 30-05-2014 10:55:00 14.9 C 7.9 g/m*3 14.9 C 4.8 km/h
421 30-05-2014 11:00:00 14.7 C 7.81 g/m*3 14.7 C 6.4 km/h
422 30-05-2014 11:05:00 14.5 C 7.71 g/m*3 14.5 C 8.1 km/h
423 30-05-2014 11:10:00 14.5 C 8.08 g/m*3 14.5 C 8.1 km/h
424 30-05-2014 11:15:00 14.6 C 8.13 g/m*3 14.6 C 11.3 km/h
425 30-05-2014 11:20:00 14.5 C 7.84 g/m*3 14.5 C 8.1 km/h
Sensor: Nr:Datum:Temp:Abs-Feuchte:Windchill:Wind:
Aussen-T/F 426 30-05-2014 11:25:00 14.6 C 7.88 g/m*3 14.6 C 8.1 km/h
427 30-05-2014 11:30:00 14.6 C 7.76 g/m*3 14.6 C 9.7 km/h
428 30-05-2014 11:35:00 14.4 C 7.42 g/m*3 14.4 C 8.1 km/h
429 30-05-2014 11:40:00 14.3 C 7.74 g/m*3 14.3 C 11.3 km/h
430 30-05-2014 11:45:00 14.6 C 8.13 g/m*3 14.6 C 12.9 km/h
431 30-05-2014 11:50:00 15.2 C 8.31 g/m*3 15.2 C 9.7 km/h
432 30-05-2014 11:55:00 15.7 C 8.3 g/m*3 15.7 C 11.3 km/h
433 30-05-2014 12:00:00 16.1 C 7.81 g/m*3 16.1 C 11.3 km/h
434 30-05-2014 12:05:00 16 C 7.9 g/m*3 16 C 8.1 km/h
435 30-05-2014 12:10:00 15.6 C 7.45 g/m*3 15.6 C 11.3 km/h
436 30-05-2014 12:15:00 15.2 C 7.53 g/m*3 15.2 C 12.9 km/h
437 30-05-2014 12:20:00 15.2 C 7.53 g/m*3 15.2 C 9.7 km/h
438 30-05-2014 12:25:00 15.2 C 7.66 g/m*3 15.2 C 6.4 km/h
439 30-05-2014 12:30:00 15.2 C 7.79 g/m*3 15.2 C 9.7 km/h
440 30-05-2014 12:35:00 15.4 C 7.75 g/m*3 15.4 C 9.7 km/h
441 30-05-2014 12:40:00 15.9 C 8.8 g/m*3 15.9 C 12.9 km/h
442 30-05-2014 12:45:00 16.4 C 8.1 g/m*3 16.4 C 8.1 km/h
443 30-05-2014 12:50:00 16.7 C 7.67 g/m*3 16.7 C 11.3 km/h
444 30-05-2014 12:55:00 16.7 C 7.82 g/m*3 16.7 C 9.7 km/h
445 30-05-2014 13:00:00 16.8 C 8.44 g/m*3 16.8 C 11.3 km/h
446 30-05-2014 13:05:00 16.9 C 7.77 g/m*3 16.9 C 14.5 km/h
447 30-05-2014 13:10:00 17.1 C 8.44 g/m*3 17.1 C 14.5 km/h
448 30-05-2014 13:15:00 17.1 C 9.17 g/m*3 17.1 C 11.3 km/h
449 30-05-2014 13:20:00 17.3 C 7.96 g/m*3 17.3 C 17.7 km/h
450 30-05-2014 13:25:00 17.1 C 8.15 g/m*3 17.1 C 12.9 km/h
Sensor: Nr:Datum:Temp:Abs-Feuchte:Windchill:Wind:
Aussen-T/F 451 30-05-2014 13:30:00 17.1 C 8.3 g/m*3 17.1 C 8.1 km/h
452 30-05-2014 13:35:00 17.1 C 8.15 g/m*3 17.1 C 11.3 km/h
453 30-05-2014 13:40:00 17.2 C 8.64 g/m*3 17.2 C 12.9 km/h
454 30-05-2014 13:45:00 17.1 C 8.01 g/m*3 17.1 C 11.3 km/h
455 30-05-2014 13:50:00 17.3 C 8.54 g/m*3 17.3 C 11.3 km/h
456 30-05-2014 13:55:00 17.3 C 7.81 g/m*3 17.3 C 8.1 km/h
457 30-05-2014 14:00:00 17.6 C 8.7 g/m*3 17.6 C 8.1 km/h
458 30-05-2014 14:05:00 17.8 C 8.04 g/m*3 17.8 C 11.3 km/h
459 30-05-2014 14:10:00 18 C 8.6 g/m*3 18 C 14.5 km/h
460 30-05-2014 14:15:00 17.8 C 8.04 g/m*3 17.8 C 11.3 km/h
461 30-05-2014 14:20:00 17.3 C 7.81 g/m*3 17.3 C 8.1 km/h
462 30-05-2014 14:25:00 17 C 7.67 g/m*3 17 C 8.1 km/h
463 30-05-2014 14:30:00 17.1 C 8.3 g/m*3 17.1 C 9.7 km/h
464 30-05-2014 14:35:00 17.2 C 7.61 g/m*3 17.2 C 6.4 km/h
465 30-05-2014 14:40:00 17.2 C 7.47 g/m*3 17.2 C 14.5 km/h
466 30-05-2014 14:45:00 17.6 C 7.8 g/m*3 17.6 C 12.9 km/h
467 30-05-2014 14:50:00 17.2 C 7.91 g/m*3 17.2 C 14.5 km/h
468 30-05-2014 14:55:00 16.8 C 7.72 g/m*3 16.8 C 11.3 km/h
469 30-05-2014 15:00:00 16.6 C 7.63 g/m*3 16.6 C 9.7 km/h
470 30-05-2014 15:05:00 16.4 C 7.54 g/m*3 16.4 C 17.7 km/h
471 30-05-2014 15:10:00 16.1 C 7.54 g/m*3 16.1 C 8.1 km/h
472 30-05-2014 15:15:00 16 C 7.77 g/m*3 16 C 11.3 km/h
473 30-05-2014 15:20:00 16.4 C 8.23 g/m*3 16.4 C 11.3 km/h
474 30-05-2014 15:25:00 16.7 C 7.96 g/m*3 16.7 C 14.5 km/h
475 30-05-2014 15:30:00 16.7 C 7.96 g/m*3 16.7 C 9.7 km/h
Sensor: Nr:Datum:Temp:Abs-Feuchte:Windchill:Wind:
Aussen-T/F 476 30-05-2014 15:35:00 16.9 C 7.91 g/m*3 16.9 C 11.3 km/h
477 30-05-2014 15:40:00 17.2 C 8.05 g/m*3 17.2 C 8.1 km/h
478 30-05-2014 15:45:00 17.3 C 8.25 g/m*3 17.3 C 14.5 km/h
479 30-05-2014 15:50:00 17.9 C 8.24 g/m*3 17.9 C 14.5 km/h
480 30-05-2014 15:55:00 17.8 C 8.2 g/m*3 17.8 C 8.1 km/h
481 30-05-2014 16:00:00 17.3 C 7.96 g/m*3 17.3 C 12.9 km/h
482 30-05-2014 16:05:00 17 C 8.1 g/m*3 17 C 11.3 km/h
483 30-05-2014 16:10:00 16.8 C 8.01 g/m*3 16.8 C 8.1 km/h
484 30-05-2014 16:15:00 16.6 C 8.05 g/m*3 16.6 C 6.4 km/h
485 30-05-2014 16:20:00 16.5 C 7.72 g/m*3 16.5 C 6.4 km/h
486 30-05-2014 16:25:00 16.3 C 8.19 g/m*3 16.3 C 6.4 km/h
487 30-05-2014 16:30:00 16.6 C 8.76 g/m*3 16.6 C 8.1 km/h
488 30-05-2014 16:35:00 17.3 C 8.4 g/m*3 17.3 C 8.1 km/h
489 30-05-2014 16:40:00 17.9 C 8.24 g/m*3 17.9 C 11.3 km/h
490 30-05-2014 16:45:00 18 C 8.29 g/m*3 18 C 11.3 km/h
491 30-05-2014 16:50:00 17.6 C 8.1 g/m*3 17.6 C 9.7 km/h
492 30-05-2014 16:55:00 17.2 C 7.91 g/m*3 17.2 C 4.8 km/h
493 30-05-2014 17:00:00 16.7 C 7.82 g/m*3 16.7 C 9.7 km/h
494 30-05-2014 17:05:00 16.4 C 7.96 g/m*3 16.4 C 9.7 km/h
495 30-05-2014 17:10:00 16.2 C 7.86 g/m*3 16.2 C 8.1 km/h
496 30-05-2014 17:15:00 16.2 C 8 g/m*3 16.2 C 11.3 km/h
497 30-05-2014 17:20:00 16.1 C 7.95 g/m*3 16.1 C 9.7 km/h
498 30-05-2014 17:25:00 16.1 C 8.36 g/m*3 16.1 C 12.9 km/h
499 30-05-2014 17:30:00 16.1 C 8.09 g/m*3 16.1 C 8.1 km/h
500 30-05-2014 17:35:00 15.9 C 7.99 g/m*3 15.9 C 11.3 km/h
Sensor: Nr:Datum:Temp:Abs-Feuchte:Windchill:Wind:
Aussen-T/F 501 30-05-2014 17:40:00 15.7 C 7.76 g/m*3 15.7 C 12.9 km/h
502 30-05-2014 17:45:00 15.9 C 8.4 g/m*3 15.9 C 12.9 km/h
503 30-05-2014 17:50:00 16.3 C 7.77 g/m*3 16.3 C 12.9 km/h
504 30-05-2014 17:55:00 16.4 C 8.1 g/m*3 16.4 C 14.5 km/h
505 30-05-2014 18:00:00 16.7 C 7.96 g/m*3 16.7 C 11.3 km/h
506 30-05-2014 18:05:00 16.8 C 7.86 g/m*3 16.8 C 11.3 km/h
507 30-05-2014 18:10:00 16.9 C 8.05 g/m*3 16.9 C 9.7 km/h
508 30-05-2014 18:15:00 16.8 C 8.01 g/m*3 16.8 C 11.3 km/h
509 30-05-2014 18:20:00 16.6 C 7.77 g/m*3 16.6 C 12.9 km/h
510 30-05-2014 18:25:00 16.4 C 7.82 g/m*3 16.4 C 8.1 km/h
511 30-05-2014 18:30:00 16.1 C 7.68 g/m*3 16.1 C 4.8 km/h
512 30-05-2014 18:35:00 15.9 C 7.85 g/m*3 15.9 C 8.1 km/h
513 30-05-2014 18:40:00 16 C 8.04 g/m*3 16 C 8.1 km/h
514 30-05-2014 18:45:00 16.3 C 8.05 g/m*3 16.3 C 11.3 km/h
515 30-05-2014 18:50:00 16.7 C 8.24 g/m*3 16.7 C 9.7 km/h
516 30-05-2014 18:55:00 17 C 8.25 g/m*3 17 C 11.3 km/h
517 30-05-2014 19:00:00 16.7 C 7.96 g/m*3 16.7 C 14.5 km/h
518 30-05-2014 19:05:00 16.2 C 7.86 g/m*3 16.2 C 6.4 km/h
519 30-05-2014 19:10:00 15.6 C 7.58 g/m*3 15.6 C 12.9 km/h
520 30-05-2014 19:15:00 15.3 C 7.84 g/m*3 15.3 C 8.1 km/h
521 30-05-2014 19:20:00 15.1 C 7.74 g/m*3 15.1 C 9.7 km/h
522 30-05-2014 19:25:00 15 C 7.82 g/m*3 15 C 9.7 km/h
523 30-05-2014 19:30:00 15.1 C 7.87 g/m*3 15.1 C 6.4 km/h
524 30-05-2014 19:35:00 15.1 C 7.74 g/m*3 15.1 C 8.1 km/h
525 30-05-2014 19:40:00 15 C 7.69 g/m*3 15 C 8.1 km/h
Sensor: Nr:Datum:Temp:Abs-Feuchte:Windchill:Wind:
Aussen-T/F 526 30-05-2014 19:45:00 14.9 C 7.65 g/m*3 14.9 C 9.7 km/h
527 30-05-2014 19:50:00 14.8 C 7.73 g/m*3 14.8 C 8.1 km/h
528 30-05-2014 19:55:00 14.7 C 7.55 g/m*3 14.7 C 9.7 km/h
529 30-05-2014 20:00:00 14.6 C 7.63 g/m*3 14.6 C 3.2 km/h
530 30-05-2014 20:05:00 14.6 C 7.63 g/m*3 14.6 C 6.4 km/h
531 30-05-2014 20:10:00 14.6 C 7.51 g/m*3 14.6 C 3.2 km/h
532 30-05-2014 20:15:00 14.6 C 7.76 g/m*3 14.6 C 1.6 km/h
533 30-05-2014 20:20:00 14.4 C 7.29 g/m*3 14.4 C 3.2 km/h
534 30-05-2014 20:25:00 14.4 C 7.42 g/m*3 14.4 C 0 km/h
535 30-05-2014 20:30:00 14.3 C 7.25 g/m*3 14.3 C 1.6 km/h
536 30-05-2014 20:35:00 14.2 C 8.06 g/m*3 14.2 C 0 km/h
537 30-05-2014 20:40:00 14.1 C 7.4 g/m*3 14.1 C 0 km/h
538 30-05-2014 20:45:00 14 C 7.72 g/m*3 14 C 0 km/h
539 30-05-2014 20:50:00 13.8 C 8.22 g/m*3 13.8 C 0 km/h
540 30-05-2014 20:55:00 13.6 C 8.47 g/m*3 13.6 C 0 km/h
541 30-05-2014 21:00:00 13.2 C 8.5 g/m*3 13.2 C 0 km/h
542 30-05-2014 21:05:00 12.8 C 8.4 g/m*3 12.8 C 0 km/h
543 30-05-2014 21:10:00 12.4 C 8.19 g/m*3 12.4 C 0 km/h
544 30-05-2014 21:15:00 12.1 C 8.15 g/m*3 12.1 C 1.6 km/h
545 30-05-2014 21:20:00 11.7 C 8.05 g/m*3 11.7 C 0 km/h
546 30-05-2014 21:25:00 11.5 C 7.95 g/m*3 11.5 C 0 km/h
547 30-05-2014 21:30:00 11.3 C 7.85 g/m*3 11.3 C 1.6 km/h
548 30-05-2014 21:35:00 11.1 C 7.76 g/m*3 11.1 C 1.6 km/h
549 30-05-2014 21:40:00 10.9 C 7.66 g/m*3 10.9 C 0 km/h
550 30-05-2014 21:45:00 10.7 C 7.66 g/m*3 10.7 C 0 km/h
Sensor: Nr:Datum:Temp:Abs-Feuchte:Windchill:Wind:
Aussen-T/F 551 30-05-2014 21:50:00 10.6 C 7.52 g/m*3 10.6 C 1.6 km/h
552 30-05-2014 21:55:00 10.5 C 7.57 g/m*3 10.5 C 0 km/h
553 30-05-2014 22:00:00 10.4 C 7.52 g/m*3 10.4 C 0 km/h
554 30-05-2014 22:05:00 10.3 C 7.57 g/m*3 10.3 C 1.6 km/h
555 30-05-2014 22:10:00 10.2 C 7.61 g/m*3 10.2 C 0 km/h
556 30-05-2014 22:15:00 10.1 C 7.66 g/m*3 10.1 C 0 km/h
557 30-05-2014 22:20:00 10.1 C 7.66 g/m*3 10.1 C 0 km/h
558 30-05-2014 22:25:00 10 C 7.61 g/m*3 10 C 0 km/h
559 30-05-2014 22:30:00 9.9 C 7.56 g/m*3 9.9 C 0 km/h
560 30-05-2014 22:35:00 9.8 C 7.61 g/m*3 9.8 C 0 km/h
561 30-05-2014 22:40:00 9.7 C 7.56 g/m*3 9.7 C 0 km/h
562 30-05-2014 22:45:00 9.6 C 7.69 g/m*3 9.6 C 0 km/h
563 30-05-2014 22:50:00 9.5 C 7.65 g/m*3 9.5 C 0 km/h
564 30-05-2014 22:55:00 9.4 C 7.6 g/m*3 9.4 C 0 km/h
565 30-05-2014 23:00:00 9.4 C 7.6 g/m*3 9.4 C 0 km/h
566 30-05-2014 23:05:00 9.3 C 7.55 g/m*3 9.3 C 0 km/h
567 30-05-2014 23:10:00 9.2 C 7.5 g/m*3 9.2 C 0 km/h
568 30-05-2014 23:15:00 9.1 C 7.54 g/m*3 9.1 C 0 km/h
569 30-05-2014 23:20:00 8.9 C 7.45 g/m*3 8.9 C 0 km/h
570 30-05-2014 23:25:00 8.8 C 7.4 g/m*3 8.8 C 0 km/h
571 30-05-2014 23:30:00 8.7 C 7.44 g/m*3 8.7 C 0 km/h
572 30-05-2014 23:35:00 8.6 C 7.39 g/m*3 8.6 C 0 km/h
573 30-05-2014 23:40:00 8.5 C 7.34 g/m*3 8.5 C 0 km/h
574 30-05-2014 23:45:00 8.4 C 7.38 g/m*3 8.4 C 0 km/h
575 30-05-2014 23:50:00 8.4 C 7.38 g/m*3 8.4 C 0 km/h
Sensor: Nr:Datum:Temp:Abs-Feuchte:Windchill:Wind:
Aussen-T/F 576 30-05-2014 23:55:00 8.3 C 7.33 g/m*3 8.3 C 0 km/h
577 31-05-2014 00:00:00 8.3 C 7.33 g/m*3 8.3 C 0 km/h
578 31-05-2014 00:05:00 8.2 C 7.2 g/m*3 8.2 C 0 km/h
579 31-05-2014 00:10:00 8.2 C 7.29 g/m*3 8.2 C 0 km/h
580 31-05-2014 00:15:00 8.2 C 7.29 g/m*3 8.2 C 0 km/h
581 31-05-2014 00:20:00 8.1 C 7.24 g/m*3 8.1 C 0 km/h
582 31-05-2014 00:25:00 8 C 7.19 g/m*3 8 C 0 km/h
583 31-05-2014 00:30:00 8 C 7.28 g/m*3 8 C 0 km/h
584 31-05-2014 00:35:00 7.9 C 7.23 g/m*3 7.9 C 0 km/h
585 31-05-2014 00:40:00 7.8 C 7.18 g/m*3 7.8 C 0 km/h
586 31-05-2014 00:45:00 7.8 C 7.26 g/m*3 7.8 C 0 km/h
587 31-05-2014 00:50:00 7.7 C 7.22 g/m*3 7.7 C 0 km/h
588 31-05-2014 00:55:00 7.7 C 7.22 g/m*3 7.7 C 0 km/h
589 31-05-2014 01:00:00 7.7 C 7.22 g/m*3 7.7 C 0 km/h
590 31-05-2014 01:05:00 7.6 C 7.25 g/m*3 7.6 C 0 km/h
591 31-05-2014 01:10:00 7.6 C 7.25 g/m*3 7.6 C 0 km/h
592 31-05-2014 01:15:00 7.5 C 7.2 g/m*3 7.5 C 0 km/h
593 31-05-2014 01:20:00 7.5 C 7.2 g/m*3 7.5 C 0 km/h
594 31-05-2014 01:25:00 7.4 C 7.16 g/m*3 7.4 C 0 km/h
595 31-05-2014 01:30:00 7.4 C 7.16 g/m*3 7.4 C 0 km/h
596 31-05-2014 01:35:00 7.3 C 7.19 g/m*3 7.3 C 0 km/h
597 31-05-2014 01:40:00 7.3 C 7.11 g/m*3 7.3 C 0 km/h
598 31-05-2014 01:45:00 7.3 C 7.19 g/m*3 7.3 C 0 km/h
599 31-05-2014 01:50:00 7.3 C 7.19 g/m*3 7.3 C 0 km/h
600 31-05-2014 01:55:00 7.2 C 7.14 g/m*3 7.2 C 0 km/h
Sensor: Nr:Datum:Temp:Abs-Feuchte:Windchill:Wind:
Aussen-T/F 601 31-05-2014 02:00:00 7.2 C 7.14 g/m*3 7.2 C 0 km/h
602 31-05-2014 02:05:00 7.2 C 7.14 g/m*3 7.2 C 0 km/h
603 31-05-2014 02:10:00 7.1 C 7.18 g/m*3 7.1 C 0 km/h
604 31-05-2014 02:15:00 7.1 C 7.18 g/m*3 7.1 C 0 km/h
605 31-05-2014 02:20:00 7 C 7.13 g/m*3 7 C 0 km/h
606 31-05-2014 02:25:00 6.9 C 7.08 g/m*3 6.9 C 0 km/h
607 31-05-2014 02:30:00 6.9 C 7.08 g/m*3 6.9 C 0 km/h
608 31-05-2014 02:35:00 6.8 C 7.11 g/m*3 6.8 C 0 km/h
609 31-05-2014 02:40:00 6.8 C 7.11 g/m*3 6.8 C 0 km/h
610 31-05-2014 02:45:00 6.7 C 7.07 g/m*3 6.7 C 1.6 km/h
611 31-05-2014 02:50:00 6.7 C 7.07 g/m*3 6.7 C 1.6 km/h
612 31-05-2014 02:55:00 6.7 C 7.07 g/m*3 6.7 C 0 km/h
613 31-05-2014 03:00:00 6.7 C 7.07 g/m*3 6.7 C 0 km/h
614 31-05-2014 03:05:00 6.6 C 7.02 g/m*3 6.6 C 0 km/h
615 31-05-2014 03:10:00 6.6 C 7.02 g/m*3 6.6 C 0 km/h
616 31-05-2014 03:15:00 6.6 C 7.02 g/m*3 6.6 C 0 km/h
617 31-05-2014 03:20:00 6.5 C 6.97 g/m*3 6.5 C 0 km/h
618 31-05-2014 03:25:00 6.4 C 7 g/m*3 6.4 C 0 km/h
619 31-05-2014 03:30:00 6.4 C 7 g/m*3 6.4 C 0 km/h
620 31-05-2014 03:35:00 6.4 C 7 g/m*3 6.4 C 0 km/h
621 31-05-2014 03:40:00 6.3 C 6.96 g/m*3 6.3 C 0 km/h
622 31-05-2014 03:45:00 6.3 C 6.96 g/m*3 6.3 C 0 km/h
623 31-05-2014 03:50:00 6.3 C 6.96 g/m*3 6.3 C 0 km/h
624 31-05-2014 03:55:00 6.2 C 6.91 g/m*3 6.2 C 0 km/h
625 31-05-2014 04:00:00 6.2 C 6.91 g/m*3 6.2 C 1.6 km/h
Sensor: Nr:Datum:Temp:Abs-Feuchte:Windchill:Wind:
Aussen-T/F 626 31-05-2014 04:05:00 6.1 C 6.87 g/m*3 6.1 C 0 km/h
627 31-05-2014 04:10:00 6.1 C 6.87 g/m*3 6.1 C 0 km/h
628 31-05-2014 04:15:00 6.1 C 6.87 g/m*3 6.1 C 0 km/h
629 31-05-2014 04:20:00 6 C 6.82 g/m*3 6 C 0 km/h
630 31-05-2014 04:25:00 6 C 6.82 g/m*3 6 C 0 km/h
631 31-05-2014 04:30:00 6 C 6.9 g/m*3 6 C 0 km/h
632 31-05-2014 04:35:00 6 C 6.9 g/m*3 6 C 0 km/h
633 31-05-2014 04:40:00 5.9 C 6.85 g/m*3 5.9 C 0 km/h
634 31-05-2014 04:45:00 5.9 C 6.85 g/m*3 5.9 C 0 km/h
635 31-05-2014 04:50:00 5.8 C 6.81 g/m*3 5.8 C 0 km/h
636 31-05-2014 04:55:00 5.8 C 6.81 g/m*3 5.8 C 0 km/h
637 31-05-2014 05:00:00 5.8 C 6.81 g/m*3 5.8 C 1.6 km/h
638 31-05-2014 05:05:00 5.8 C 6.81 g/m*3 5.8 C 0 km/h
639 31-05-2014 05:10:00 5.7 C 6.76 g/m*3 5.7 C 0 km/h
640 31-05-2014 05:15:00 5.7 C 6.76 g/m*3 5.7 C 0 km/h
641 31-05-2014 05:20:00 5.6 C 6.72 g/m*3 5.6 C 0 km/h
642 31-05-2014 05:25:00 5.5 C 6.67 g/m*3 5.5 C 0 km/h
643 31-05-2014 05:30:00 5.4 C 6.63 g/m*3 5.4 C 0 km/h
644 31-05-2014 05:35:00 5.4 C 6.63 g/m*3 5.4 C 0 km/h
645 31-05-2014 05:40:00 5.4 C 6.63 g/m*3 5.4 C 0 km/h
646 31-05-2014 05:45:00 5.4 C 6.63 g/m*3 5.4 C 0 km/h
647 31-05-2014 05:50:00 5.4 C 6.63 g/m*3 5.4 C 0 km/h
648 31-05-2014 05:55:00 5.3 C 6.58 g/m*3 5.3 C 0 km/h
649 31-05-2014 06:00:00 5.3 C 6.58 g/m*3 5.3 C 0 km/h
650 31-05-2014 06:05:00 5.3 C 6.58 g/m*3 5.3 C 0 km/h
Sensor: Nr:Datum:Temp:Abs-Feuchte:Windchill:Wind:
Aussen-T/F 651 31-05-2014 06:10:00 5.4 C 6.63 g/m*3 5.4 C 0 km/h
652 31-05-2014 06:15:00 5.4 C 6.63 g/m*3 5.4 C 1.6 km/h
653 31-05-2014 06:20:00 5.5 C 6.74 g/m*3 5.5 C 3.2 km/h
654 31-05-2014 06:25:00 5.5 C 6.74 g/m*3 5.5 C 4.8 km/h
655 31-05-2014 06:30:00 5.6 C 6.79 g/m*3 5.6 C 3.2 km/h
656 31-05-2014 06:35:00 5.6 C 6.79 g/m*3 5.6 C 4.8 km/h
657 31-05-2014 06:40:00 5.7 C 6.83 g/m*3 5.7 C 3.2 km/h
658 31-05-2014 06:45:00 5.7 C 6.83 g/m*3 5.7 C 3.2 km/h
659 31-05-2014 06:50:00 5.7 C 6.83 g/m*3 5.7 C 3.2 km/h
660 31-05-2014 06:55:00 5.7 C 6.83 g/m*3 5.7 C 3.2 km/h
661 31-05-2014 07:00:00 5.8 C 6.88 g/m*3 5.8 C 4.8 km/h
662 31-05-2014 07:05:00 5.8 C 6.88 g/m*3 5.8 C 3.2 km/h
663 31-05-2014 07:10:00 5.8 C 6.88 g/m*3 5.8 C 3.2 km/h
664 31-05-2014 07:15:00 5.9 C 6.92 g/m*3 5.9 C 3.2 km/h
665 31-05-2014 07:20:00 6 C 6.97 g/m*3 6 C 1.6 km/h
666 31-05-2014 07:25:00 6.1 C 7.01 g/m*3 6.1 C 3.2 km/h
667 31-05-2014 07:30:00 6.1 C 7.01 g/m*3 6.1 C 3.2 km/h
668 31-05-2014 07:35:00 6.3 C 7.11 g/m*3 6.3 C 0 km/h
669 31-05-2014 07:40:00 6.4 C 7.15 g/m*3 6.4 C 1.6 km/h
670 31-05-2014 07:45:00 6.6 C 7.25 g/m*3 6.6 C 1.6 km/h
671 31-05-2014 07:50:00 6.7 C 7.29 g/m*3 6.7 C 0 km/h
672 31-05-2014 07:55:00 7 C 7.44 g/m*3 7 C 0 km/h
673 31-05-2014 08:00:00 7.3 C 7.58 g/m*3 7.3 C 0 km/h
674 31-05-2014 08:05:00 7.5 C 7.6 g/m*3 7.5 C 0 km/h
675 31-05-2014 08:10:00 7.8 C 7.67 g/m*3 7.8 C 0 km/h
Sensor: Nr:Datum:Temp:Abs-Feuchte:Windchill:Wind:
Aussen-T/F 676 31-05-2014 08:15:00 8.1 C 7.82 g/m*3 8.1 C 0 km/h
677 31-05-2014 08:20:00 8.4 C 7.8 g/m*3 8.4 C 0 km/h
678 31-05-2014 08:25:00 8.6 C 7.91 g/m*3 8.6 C 0 km/h
679 31-05-2014 08:30:00 8.8 C 7.83 g/m*3 8.8 C 0 km/h
680 31-05-2014 08:35:00 8.9 C 7.88 g/m*3 8.9 C 0 km/h
681 31-05-2014 08:40:00 9.1 C 7.99 g/m*3 9.1 C 0 km/h
682 31-05-2014 08:45:00 9.3 C 8.09 g/m*3 9.3 C 0 km/h
683 31-05-2014 08:50:00 9.5 C 8.19 g/m*3 9.5 C 0 km/h
684 31-05-2014 08:55:00 9.8 C 8.26 g/m*3 9.8 C 0 km/h
685 31-05-2014 09:00:00 10.1 C 8.32 g/m*3 10.1 C 0 km/h
686 31-05-2014 09:05:00 10.3 C 8.33 g/m*3 10.3 C 1.6 km/h
687 31-05-2014 09:10:00 10.5 C 8.44 g/m*3 10.5 C 0 km/h
688 31-05-2014 09:15:00 10.3 C 8.33 g/m*3 10.3 C 0 km/h
689 31-05-2014 09:20:00 10.2 C 8.37 g/m*3 10.2 C 0 km/h
690 31-05-2014 09:25:00 10.2 C 8.47 g/m*3 10.2 C 0 km/h
691 31-05-2014 09:30:00 10.2 C 8.56 g/m*3 10.2 C 0 km/h
692 31-05-2014 09:35:00 10.2 C 8.56 g/m*3 10.2 C 0 km/h
693 31-05-2014 09:40:00 10.3 C 8.62 g/m*3 10.3 C 0 km/h
694 31-05-2014 09:45:00 10.4 C 8.58 g/m*3 10.4 C 0 km/h
695 31-05-2014 09:50:00 10.7 C 8.74 g/m*3 10.7 C 0 km/h
696 31-05-2014 09:55:00 11.2 C 8.92 g/m*3 11.2 C 1.6 km/h
697 31-05-2014 10:00:00 11.9 C 9.11 g/m*3 11.9 C 0 km/h
698 31-05-2014 10:05:00 12.5 C 9.24 g/m*3 12.5 C 0 km/h
699 31-05-2014 10:10:00 12.9 C 9.24 g/m*3 12.9 C 0 km/h
700 31-05-2014 10:15:00 13.2 C 9.42 g/m*3 13.2 C 0 km/h
Sensor: Nr:Datum:Temp:Abs-Feuchte:Windchill:Wind:
Aussen-T/F 701 31-05-2014 10:20:00 13.7 C 9.59 g/m*3 13.7 C 0 km/h
702 31-05-2014 10:25:00 13.9 C 9.59 g/m*3 13.9 C 0 km/h
703 31-05-2014 10:30:00 14.1 C 9.95 g/m*3 14.1 C 0 km/h
704 31-05-2014 10:35:00 14.2 C 9.77 g/m*3 14.2 C 1.6 km/h
705 31-05-2014 10:40:00 14.5 C 9.58 g/m*3 14.5 C 0 km/h
706 31-05-2014 10:45:00 14.8 C 9.37 g/m*3 14.8 C 1.6 km/h
707 31-05-2014 10:50:00 15.3 C 9.92 g/m*3 15.3 C 0 km/h
708 31-05-2014 10:55:00 15.6 C 10.24 g/m*3 15.6 C 0 km/h
709 31-05-2014 11:00:00 15.9 C 9.34 g/m*3 15.9 C 1.6 km/h
710 31-05-2014 11:05:00 16.3 C 9.71 g/m*3 16.3 C 4.8 km/h
711 31-05-2014 11:10:00 16.9 C 10.07 g/m*3 16.9 C 6.4 km/h
712 31-05-2014 11:15:00 17.3 C 10.16 g/m*3 17.3 C 4.8 km/h
713 31-05-2014 11:20:00 17.6 C 9.9 g/m*3 17.6 C 3.2 km/h
714 31-05-2014 11:25:00 17.6 C 10.05 g/m*3 17.6 C 1.6 km/h
715 31-05-2014 11:30:00 17.7 C 9.66 g/m*3 17.7 C 6.4 km/h
716 31-05-2014 11:35:00 17.9 C 10.54 g/m*3 17.9 C 1.6 km/h
717 31-05-2014 11:40:00 18 C 10.44 g/m*3 18 C 3.2 km/h
718 31-05-2014 11:45:00 18.3 C 9.69 g/m*3 18.3 C 3.2 km/h
719 31-05-2014 11:50:00 18.7 C 9.45 g/m*3 18.7 C 8.1 km/h
720 31-05-2014 11:55:00 18.8 C 9.82 g/m*3 18.8 C 4.8 km/h
721 31-05-2014 12:00:00 19.2 C 9.56 g/m*3 19.2 C 8.1 km/h
722 31-05-2014 12:05:00 19.6 C 9.62 g/m*3 19.6 C 4.8 km/h
723 31-05-2014 12:10:00 19.7 C 8.83 g/m*3 19.7 C 9.7 km/h
724 31-05-2014 12:15:00 19.6 C 9.12 g/m*3 19.6 C 8.1 km/h
725 31-05-2014 12:20:00 19.3 C 8.79 g/m*3 19.3 C 3.2 km/h
Sensor: Nr:Datum:Temp:Abs-Feuchte:Windchill:Wind:
Aussen-T/F 726 31-05-2014 12:25:00 18.9 C 8.91 g/m*3 18.9 C 8.1 km/h
727 31-05-2014 12:30:00 18.8 C 8.54 g/m*3 18.8 C 6.4 km/h
728 31-05-2014 12:35:00 18.8 C 8.54 g/m*3 18.8 C 4.8 km/h
729 31-05-2014 12:40:00 18.9 C 8.75 g/m*3 18.9 C 9.7 km/h
730 31-05-2014 12:45:00 18.7 C 8.81 g/m*3 18.7 C 8.1 km/h
731 31-05-2014 12:50:00 18.6 C 8.59 g/m*3 18.6 C 8.1 km/h
732 31-05-2014 12:55:00 18.8 C 9.02 g/m*3 18.8 C 9.7 km/h
733 31-05-2014 13:00:00 19.2 C 9.07 g/m*3 19.2 C 6.4 km/h
734 31-05-2014 13:05:00 19.4 C 8.84 g/m*3 19.4 C 9.7 km/h
735 31-05-2014 13:10:00 19.4 C 8.51 g/m*3 19.4 C 8.1 km/h
736 31-05-2014 13:15:00 19.4 C 8.84 g/m*3 19.4 C 4.8 km/h
737 31-05-2014 13:20:00 19.7 C 8.49 g/m*3 19.7 C 4.8 km/h
738 31-05-2014 13:25:00 19.9 C 8.59 g/m*3 19.9 C 3.2 km/h
739 31-05-2014 13:30:00 20.2 C 9.09 g/m*3 20.2 C 4.8 km/h
740 31-05-2014 13:35:00 20.4 C 9.38 g/m*3 20.4 C 6.4 km/h
741 31-05-2014 13:40:00 20.7 C 9.36 g/m*3 20.7 C 9.7 km/h
742 31-05-2014 13:45:00 20.8 C 8.51 g/m*3 20.8 C 6.4 km/h
743 31-05-2014 13:50:00 21.1 C 9.4 g/m*3 21.1 C 6.4 km/h
744 31-05-2014 13:55:00 20.8 C 7.97 g/m*3 20.8 C 3.2 km/h
745 31-05-2014 14:00:00 20.5 C 8.19 g/m*3 20.5 C 6.4 km/h
746 31-05-2014 14:05:00 20.1 C 8.17 g/m*3 20.1 C 9.7 km/h
747 31-05-2014 14:10:00 19.8 C 8.37 g/m*3 19.8 C 6.4 km/h
748 31-05-2014 14:15:00 19.6 C 8.27 g/m*3 19.6 C 6.4 km/h
749 31-05-2014 14:20:00 19.4 C 8.34 g/m*3 19.4 C 6.4 km/h
750 31-05-2014 14:25:00 19.3 C 8.29 g/m*3 19.3 C 3.2 km/h
Sensor: Nr:Datum:Temp:Abs-Feuchte:Windchill:Wind:
Aussen-T/F 751 31-05-2014 14:30:00 19.3 C 8.63 g/m*3 19.3 C 3.2 km/h
752 31-05-2014 14:35:00 19.3 C 8.13 g/m*3 19.3 C 3.2 km/h
753 31-05-2014 14:40:00 19.3 C 7.8 g/m*3 19.3 C 4.8 km/h
754 31-05-2014 14:45:00 19.7 C 8.49 g/m*3 19.7 C 6.4 km/h
755 31-05-2014 14:50:00 20.4 C 8.67 g/m*3 20.4 C 4.8 km/h
756 31-05-2014 14:55:00 21 C 8.24 g/m*3 21 C 6.4 km/h
757 31-05-2014 15:00:00 21.3 C 8.02 g/m*3 21.3 C 4.8 km/h
758 31-05-2014 15:05:00 21.1 C 7.92 g/m*3 21.1 C 4.8 km/h
759 31-05-2014 15:10:00 20.8 C 8.15 g/m*3 20.8 C 3.2 km/h
760 31-05-2014 15:15:00 20.6 C 8.23 g/m*3 20.6 C 4.8 km/h
761 31-05-2014 15:20:00 20.5 C 8.19 g/m*3 20.5 C 6.4 km/h
762 31-05-2014 15:25:00 20.3 C 8.27 g/m*3 20.3 C 6.4 km/h
763 31-05-2014 15:30:00 20.2 C 9.27 g/m*3 20.2 C 4.8 km/h
764 31-05-2014 15:35:00 19.7 C 10.19 g/m*3 19.7 C 0 km/h
765 31-05-2014 15:40:00 19.7 C 10.02 g/m*3 19.7 C 0 km/h
766 31-05-2014 15:45:00 20.3 C 8.62 g/m*3 20.3 C 1.6 km/h
767 31-05-2014 15:50:00 20.7 C 7.56 g/m*3 20.7 C 4.8 km/h
768 31-05-2014 15:55:00 20.6 C 10.2 g/m*3 20.6 C 4.8 km/h
769 31-05-2014 16:00:00 20.3 C 8.09 g/m*3 20.3 C 8.1 km/h
770 31-05-2014 16:05:00 20.3 C 8.44 g/m*3 20.3 C 1.6 km/h
771 31-05-2014 16:10:00 20.3 C 8.62 g/m*3 20.3 C 6.4 km/h
772 31-05-2014 16:15:00 20.3 C 9.5 g/m*3 20.3 C 4.8 km/h
773 31-05-2014 16:20:00 19.7 C 9.68 g/m*3 19.7 C 1.6 km/h
774 31-05-2014 16:25:00 19.2 C 9.89 g/m*3 19.2 C 3.2 km/h
775 31-05-2014 16:30:00 18.9 C 8.42 g/m*3 18.9 C 4.8 km/h
Sensor: Nr:Datum:Temp:Abs-Feuchte:Windchill:Wind:
Aussen-T/F 776 31-05-2014 16:35:00 19.1 C 8.52 g/m*3 19.1 C 6.4 km/h
777 31-05-2014 16:40:00 19.3 C 9.12 g/m*3 19.3 C 4.8 km/h
778 31-05-2014 16:45:00 18.8 C 10.47 g/m*3 18.8 C 0 km/h
779 31-05-2014 16:50:00 18.4 C 9.75 g/m*3 18.4 C 1.6 km/h
780 31-05-2014 16:55:00 18.2 C 10.57 g/m*3 18.2 C 0 km/h
781 31-05-2014 17:00:00 18 C 10.75 g/m*3 18 C 0 km/h
782 31-05-2014 17:05:00 17.9 C 10.38 g/m*3 17.9 C 0 km/h
783 31-05-2014 17:10:00 18.4 C 10.54 g/m*3 18.4 C 3.2 km/h
784 31-05-2014 17:15:00 19.9 C 9.11 g/m*3 19.9 C 11.3 km/h
785 31-05-2014 17:20:00 20.9 C 9.11 g/m*3 20.9 C 8.1 km/h
786 31-05-2014 17:25:00 21.2 C 8.71 g/m*3 21.2 C 8.1 km/h
787 31-05-2014 17:30:00 20.9 C 8.38 g/m*3 20.9 C 4.8 km/h
788 31-05-2014 17:35:00 20.8 C 8.33 g/m*3 20.8 C 9.7 km/h
789 31-05-2014 17:40:00 20.8 C 8.51 g/m*3 20.8 C 9.7 km/h
790 31-05-2014 17:45:00 20.8 C 8.69 g/m*3 20.8 C 4.8 km/h
791 31-05-2014 17:50:00 20.7 C 8.64 g/m*3 20.7 C 4.8 km/h
792 31-05-2014 17:55:00 20.4 C 8.49 g/m*3 20.4 C 8.1 km/h
793 31-05-2014 18:00:00 20.3 C 8.97 g/m*3 20.3 C 4.8 km/h
794 31-05-2014 18:05:00 20.2 C 8.92 g/m*3 20.2 C 4.8 km/h
795 31-05-2014 18:10:00 20.2 C 8.39 g/m*3 20.2 C 6.4 km/h
796 31-05-2014 18:15:00 20.2 C 8.39 g/m*3 20.2 C 6.4 km/h
797 31-05-2014 18:20:00 20.4 C 8.67 g/m*3 20.4 C 4.8 km/h
798 31-05-2014 18:25:00 21 C 8.61 g/m*3 21 C 4.8 km/h
799 31-05-2014 18:30:00 21.6 C 8.16 g/m*3 21.6 C 4.8 km/h
800 31-05-2014 18:35:00 21.7 C 8.39 g/m*3 21.7 C 4.8 km/h
Sensor: Nr:Datum:Temp:Abs-Feuchte:Windchill:Wind:
Aussen-T/F 801 31-05-2014 18:40:00 21.4 C 10.31 g/m*3 21.4 C 3.2 km/h
802 31-05-2014 18:45:00 21.4 C 8.44 g/m*3 21.4 C 6.4 km/h
803 31-05-2014 18:50:00 21.7 C 8.01 g/m*3 21.7 C 6.4 km/h
804 31-05-2014 18:55:00 21.9 C 8.3 g/m*3 21.9 C 6.4 km/h
805 31-05-2014 19:00:00 22.1 C 8.59 g/m*3 22.1 C 11.3 km/h
806 31-05-2014 19:05:00 22 C 8.73 g/m*3 22 C 9.7 km/h
807 31-05-2014 19:10:00 21.8 C 8.25 g/m*3 21.8 C 9.7 km/h
808 31-05-2014 19:15:00 21.7 C 8.58 g/m*3 21.7 C 6.4 km/h
809 31-05-2014 19:20:00 21.5 C 8.3 g/m*3 21.5 C 6.4 km/h
810 31-05-2014 19:25:00 21.3 C 8.2 g/m*3 21.3 C 6.4 km/h
811 31-05-2014 19:30:00 21 C 8.24 g/m*3 21 C 4.8 km/h
812 31-05-2014 19:35:00 20.6 C 7.87 g/m*3 20.6 C 8.1 km/h
813 31-05-2014 19:40:00 20.4 C 7.96 g/m*3 20.4 C 9.7 km/h
814 31-05-2014 19:45:00 20.2 C 7.87 g/m*3 20.2 C 4.8 km/h
815 31-05-2014 19:50:00 20.1 C 7.82 g/m*3 20.1 C 4.8 km/h
816 31-05-2014 19:55:00 19.9 C 8.08 g/m*3 19.9 C 1.6 km/h
817 31-05-2014 20:00:00 19.7 C 9.85 g/m*3 19.7 C 0 km/h
818 31-05-2014 20:05:00 18.9 C 10.37 g/m*3 18.9 C 0 km/h
819 31-05-2014 20:10:00 18.2 C 10.41 g/m*3 18.2 C 0 km/h
820 31-05-2014 20:15:00 17.7 C 10.26 g/m*3 17.7 C 0 km/h
821 31-05-2014 20:20:00 17.3 C 10.16 g/m*3 17.3 C 0 km/h
822 31-05-2014 20:25:00 16.9 C 10.07 g/m*3 16.9 C 0 km/h
823 31-05-2014 20:30:00 16.7 C 10.37 g/m*3 16.7 C 0 km/h
824 31-05-2014 20:35:00 16.4 C 10.19 g/m*3 16.4 C 1.6 km/h
825 31-05-2014 20:40:00 16.2 C 10.07 g/m*3 16.2 C 1.6 km/h
Sensor: Nr:Datum:Temp:Abs-Feuchte:Windchill:Wind:
Aussen-T/F 826 31-05-2014 20:45:00 16 C 10.08 g/m*3 16 C 0 km/h
827 31-05-2014 20:50:00 15.8 C 9.96 g/m*3 15.8 C 0 km/h
828 31-05-2014 20:55:00 15.6 C 9.97 g/m*3 15.6 C 0 km/h
829 31-05-2014 21:00:00 15.3 C 9.79 g/m*3 15.3 C 0 km/h
830 31-05-2014 21:05:00 15.2 C 9.73 g/m*3 15.2 C 0 km/h
831 31-05-2014 21:10:00 15 C 9.75 g/m*3 15 C 1.6 km/h
832 31-05-2014 21:15:00 14.8 C 9.63 g/m*3 14.8 C 1.6 km/h
833 31-05-2014 21:20:00 14.7 C 9.57 g/m*3 14.7 C 1.6 km/h
834 31-05-2014 21:25:00 14.4 C 9.64 g/m*3 14.4 C 0 km/h
835 31-05-2014 21:30:00 14.3 C 9.58 g/m*3 14.3 C 1.6 km/h
836 31-05-2014 21:35:00 14.2 C 9.52 g/m*3 14.2 C 1.6 km/h
837 31-05-2014 21:40:00 14.1 C 9.59 g/m*3 14.1 C 1.6 km/h
838 31-05-2014 21:45:00 13.9 C 9.47 g/m*3 13.9 C 0 km/h
839 31-05-2014 21:50:00 13.8 C 9.41 g/m*3 13.8 C 0 km/h
840 31-05-2014 21:55:00 13.8 C 9.29 g/m*3 13.8 C 0 km/h
841 31-05-2014 22:00:00 13.7 C 9.35 g/m*3 13.7 C 0 km/h
842 31-05-2014 22:05:00 13.7 C 9.35 g/m*3 13.7 C 0 km/h
843 31-05-2014 22:10:00 13.6 C 9.18 g/m*3 13.6 C 0 km/h
844 31-05-2014 22:15:00 13.6 C 9.3 g/m*3 13.6 C 0 km/h
845 31-05-2014 22:20:00 13.6 C 9.3 g/m*3 13.6 C 0 km/h
846 31-05-2014 22:25:00 13.5 C 9.36 g/m*3 13.5 C 0 km/h
847 31-05-2014 22:30:00 13.5 C 9.24 g/m*3 13.5 C 0 km/h
848 31-05-2014 22:35:00 13.5 C 9.36 g/m*3 13.5 C 0 km/h
849 31-05-2014 22:40:00 13.4 C 9.42 g/m*3 13.4 C 0 km/h
850 31-05-2014 22:45:00 13.4 C 9.53 g/m*3 13.4 C 0 km/h
Sensor: Nr:Datum:Temp:Abs-Feuchte:Windchill:Wind:
Aussen-T/F 851 31-05-2014 22:50:00 13.4 C 9.3 g/m*3 13.4 C 0 km/h
852 31-05-2014 22:55:00 13.4 C 9.18 g/m*3 13.4 C 0 km/h
853 31-05-2014 23:00:00 13.4 C 9.18 g/m*3 13.4 C 0 km/h
854 31-05-2014 23:05:00 13.4 C 9.18 g/m*3 13.4 C 0 km/h
855 31-05-2014 23:10:00 13.3 C 9.13 g/m*3 13.3 C 0 km/h
856 31-05-2014 23:15:00 13.3 C 9.13 g/m*3 13.3 C 0 km/h
857 31-05-2014 23:20:00 13.3 C 9.24 g/m*3 13.3 C 0 km/h
858 31-05-2014 23:25:00 13.3 C 9.24 g/m*3 13.3 C 0 km/h
859 31-05-2014 23:30:00 13.2 C 9.3 g/m*3 13.2 C 0 km/h
860 31-05-2014 23:35:00 13.1 C 9.36 g/m*3 13.1 C 0 km/h
861 31-05-2014 23:40:00 13 C 9.19 g/m*3 13 C 0 km/h
862 31-05-2014 23:45:00 12.9 C 9.13 g/m*3 12.9 C 0 km/h
863 31-05-2014 23:50:00 12.8 C 9.07 g/m*3 12.8 C 0 km/h
864 31-05-2014 23:55:00 12.7 C 9.13 g/m*3 12.7 C 0 km/h
865 01-06-2014 00:00:00 12.6 C 8.96 g/m*3 12.6 C 0 km/h
866 01-06-2014 00:05:00 12.4 C 8.96 g/m*3 12.4 C 0 km/h
867 01-06-2014 00:10:00 12.4 C 8.96 g/m*3 12.4 C 0 km/h
868 01-06-2014 00:15:00 12.4 C 8.96 g/m*3 12.4 C 0 km/h
869 01-06-2014 00:20:00 12.4 C 9.07 g/m*3 12.4 C 0 km/h
870 01-06-2014 00:25:00 12.3 C 8.9 g/m*3 12.3 C 0 km/h
871 01-06-2014 00:30:00 12.4 C 9.07 g/m*3 12.4 C 0 km/h
872 01-06-2014 00:35:00 12.4 C 9.07 g/m*3 12.4 C 0 km/h
873 01-06-2014 00:40:00 12.4 C 9.07 g/m*3 12.4 C 0 km/h
874 01-06-2014 00:45:00 12.4 C 9.07 g/m*3 12.4 C 0 km/h
875 01-06-2014 00:50:00 12.4 C 8.96 g/m*3 12.4 C 0 km/h
Sensor: Nr:Datum:Temp:Abs-Feuchte:Windchill:Wind:
Aussen-T/F 876 01-06-2014 00:55:00 12.3 C 8.9 g/m*3 12.3 C 0 km/h
877 01-06-2014 01:00:00 12.3 C 8.9 g/m*3 12.3 C 3.2 km/h
878 01-06-2014 01:05:00 12.3 C 8.9 g/m*3 12.3 C 0 km/h
879 01-06-2014 01:10:00 12.2 C 8.96 g/m*3 12.2 C 0 km/h
880 01-06-2014 01:15:00 12.2 C 8.96 g/m*3 12.2 C 0 km/h
881 01-06-2014 01:20:00 12.2 C 8.96 g/m*3 12.2 C 0 km/h
882 01-06-2014 01:25:00 12.3 C 9.01 g/m*3 12.3 C 0 km/h
883 01-06-2014 01:30:00 12.3 C 9.01 g/m*3 12.3 C 0 km/h
884 01-06-2014 01:35:00 12.3 C 9.01 g/m*3 12.3 C 0 km/h
885 01-06-2014 01:40:00 12.2 C 8.96 g/m*3 12.2 C 0 km/h
886 01-06-2014 01:45:00 12.1 C 9.01 g/m*3 12.1 C 0 km/h
887 01-06-2014 01:50:00 12.1 C 9.01 g/m*3 12.1 C 0 km/h
888 01-06-2014 01:55:00 12 C 8.85 g/m*3 12 C 0 km/h
889 01-06-2014 02:00:00 11.9 C 8.9 g/m*3 11.9 C 1.6 km/h
890 01-06-2014 02:05:00 11.8 C 8.84 g/m*3 11.8 C 0 km/h
891 01-06-2014 02:10:00 11.8 C 8.84 g/m*3 11.8 C 0 km/h
892 01-06-2014 02:15:00 11.7 C 8.79 g/m*3 11.7 C 0 km/h
893 01-06-2014 02:20:00 11.6 C 8.83 g/m*3 11.6 C 0 km/h
894 01-06-2014 02:25:00 11.5 C 8.78 g/m*3 11.5 C 0 km/h
895 01-06-2014 02:30:00 11.4 C 8.72 g/m*3 11.4 C 0 km/h
896 01-06-2014 02:35:00 11.3 C 8.67 g/m*3 11.3 C 0 km/h
897 01-06-2014 02:40:00 11.3 C 8.67 g/m*3 11.3 C 0 km/h
898 01-06-2014 02:45:00 11.2 C 8.62 g/m*3 11.2 C 0 km/h
899 01-06-2014 02:50:00 11.1 C 8.56 g/m*3 11.1 C 0 km/h
900 01-06-2014 02:55:00 11 C 8.51 g/m*3 11 C 0 km/h
Sensor: Nr:Datum:Temp:Abs-Feuchte:Windchill:Wind:
Aussen-T/F 901 01-06-2014 03:00:00 10.9 C 8.45 g/m*3 10.9 C 0 km/h
902 01-06-2014 03:05:00 10.8 C 8.5 g/m*3 10.8 C 0 km/h
903 01-06-2014 03:10:00 10.6 C 8.49 g/m*3 10.6 C 0 km/h
904 01-06-2014 03:15:00 10.5 C 8.34 g/m*3 10.5 C 0 km/h
905 01-06-2014 03:20:00 10.4 C 8.38 g/m*3 10.4 C 0 km/h
906 01-06-2014 03:25:00 10.3 C 8.33 g/m*3 10.3 C 0 km/h
907 01-06-2014 03:30:00 10.3 C 8.43 g/m*3 10.3 C 0 km/h
908 01-06-2014 03:35:00 10.3 C 8.43 g/m*3 10.3 C 0 km/h
909 01-06-2014 03:40:00 10.3 C 8.43 g/m*3 10.3 C 1.6 km/h
910 01-06-2014 03:45:00 10.4 C 8.48 g/m*3 10.4 C 1.6 km/h
911 01-06-2014 03:50:00 10.4 C 8.48 g/m*3 10.4 C 0 km/h
912 01-06-2014 03:55:00 10.4 C 8.48 g/m*3 10.4 C 0 km/h
913 01-06-2014 04:00:00 10.4 C 8.48 g/m*3 10.4 C 0 km/h
914 01-06-2014 04:05:00 10.3 C 8.43 g/m*3 10.3 C 0 km/h
915 01-06-2014 04:10:00 10.3 C 8.52 g/m*3 10.3 C 0 km/h
916 01-06-2014 04:15:00 10.2 C 8.47 g/m*3 10.2 C 0 km/h
917 01-06-2014 04:20:00 10.2 C 8.47 g/m*3 10.2 C 0 km/h
918 01-06-2014 04:25:00 10.2 C 8.47 g/m*3 10.2 C 0 km/h
919 01-06-2014 04:30:00 10.2 C 8.47 g/m*3 10.2 C 0 km/h
920 01-06-2014 04:35:00 10.2 C 8.56 g/m*3 10.2 C 0 km/h
921 01-06-2014 04:40:00 10.2 C 8.56 g/m*3 10.2 C 0 km/h
922 01-06-2014 04:45:00 10.2 C 8.56 g/m*3 10.2 C 0 km/h
923 01-06-2014 04:50:00 10.2 C 8.56 g/m*3 10.2 C 0 km/h
924 01-06-2014 04:55:00 10.3 C 8.62 g/m*3 10.3 C 0 km/h
925 01-06-2014 05:00:00 10.3 C 8.62 g/m*3 10.3 C 0 km/h
Sensor: Nr:Datum:Temp:Abs-Feuchte:Windchill:Wind:
Aussen-T/F 926 01-06-2014 05:05:00 10.3 C 8.62 g/m*3 10.3 C 0 km/h
927 01-06-2014 05:10:00 10.3 C 8.62 g/m*3 10.3 C 0 km/h
928 01-06-2014 05:15:00 10.2 C 8.56 g/m*3 10.2 C 0 km/h
929 01-06-2014 05:20:00 10.2 C 8.56 g/m*3 10.2 C 0 km/h
930 01-06-2014 05:25:00 10.3 C 8.71 g/m*3 10.3 C 0 km/h
931 01-06-2014 05:30:00 10.3 C 8.71 g/m*3 10.3 C 0 km/h
932 01-06-2014 05:35:00 10.3 C 8.71 g/m*3 10.3 C 0 km/h
933 01-06-2014 05:40:00 10.6 C 8.78 g/m*3 10.6 C 1.6 km/h
934 01-06-2014 05:45:00 10.7 C 8.84 g/m*3 10.7 C 1.6 km/h
935 01-06-2014 05:50:00 10.8 C 8.8 g/m*3 10.8 C 0 km/h
936 01-06-2014 05:55:00 10.9 C 8.85 g/m*3 10.9 C 0 km/h
937 01-06-2014 06:00:00 11.1 C 8.96 g/m*3 11.1 C 1.6 km/h
938 01-06-2014 06:05:00 11.2 C 8.92 g/m*3 11.2 C 1.6 km/h
939 01-06-2014 06:10:00 11.2 C 8.92 g/m*3 11.2 C 0 km/h
940 01-06-2014 06:15:00 11.3 C 8.98 g/m*3 11.3 C 1.6 km/h
941 01-06-2014 06:20:00 11.4 C 8.83 g/m*3 11.4 C 6.4 km/h
942 01-06-2014 06:25:00 11.4 C 8.83 g/m*3 11.4 C 0 km/h
943 01-06-2014 06:30:00 11.6 C 8.94 g/m*3 11.6 C 3.2 km/h
944 01-06-2014 06:35:00 11.6 C 8.73 g/m*3 11.6 C 0 km/h
945 01-06-2014 06:40:00 11.7 C 8.79 g/m*3 11.7 C 3.2 km/h
946 01-06-2014 06:45:00 11.8 C 8.84 g/m*3 11.8 C 1.6 km/h
947 01-06-2014 06:50:00 11.8 C 8.74 g/m*3 11.8 C 0 km/h
948 01-06-2014 06:55:00 11.8 C 8.84 g/m*3 11.8 C 3.2 km/h
949 01-06-2014 07:00:00 11.8 C 8.84 g/m*3 11.8 C 4.8 km/h
950 01-06-2014 07:05:00 11.8 C 8.74 g/m*3 11.8 C 1.6 km/h
Sensor: Nr:Datum:Temp:Abs-Feuchte:Windchill:Wind:
Aussen-T/F 951 01-06-2014 07:10:00 11.9 C 8.9 g/m*3 11.9 C 0 km/h
952 01-06-2014 07:15:00 11.9 C 8.9 g/m*3 11.9 C 0 km/h
953 01-06-2014 07:20:00 12 C 8.85 g/m*3 12 C 0 km/h
954 01-06-2014 07:25:00 12.1 C 8.9 g/m*3 12.1 C 0 km/h
955 01-06-2014 07:30:00 12.2 C 9.06 g/m*3 12.2 C 0 km/h
956 01-06-2014 07:35:00 12.3 C 9.12 g/m*3 12.3 C 6.4 km/h
957 01-06-2014 07:40:00 12.3 C 9.01 g/m*3 12.3 C 1.6 km/h
958 01-06-2014 07:45:00 12.4 C 8.96 g/m*3 12.4 C 1.6 km/h
959 01-06-2014 07:50:00 12.4 C 8.96 g/m*3 12.4 C 0 km/h
960 01-06-2014 07:55:00 12.4 C 8.96 g/m*3 12.4 C 1.6 km/h
961 01-06-2014 08:00:00 12.4 C 8.85 g/m*3 12.4 C 1.6 km/h
962 01-06-2014 08:05:00 12.6 C 9.07 g/m*3 12.6 C 0 km/h
963 01-06-2014 08:10:00 12.8 C 9.18 g/m*3 12.8 C 3.2 km/h
964 01-06-2014 08:15:00 12.9 C 9.13 g/m*3 12.9 C 3.2 km/h
965 01-06-2014 08:20:00 12.9 C 9.02 g/m*3 12.9 C 3.2 km/h
966 01-06-2014 08:25:00 13 C 9.3 g/m*3 13 C 0 km/h
967 01-06-2014 08:30:00 13.1 C 9.24 g/m*3 13.1 C 3.2 km/h
968 01-06-2014 08:35:00 13.2 C 9.19 g/m*3 13.2 C 0 km/h
969 01-06-2014 08:40:00 13.2 C 9.19 g/m*3 13.2 C 0 km/h
970 01-06-2014 08:45:00 13.2 C 9.19 g/m*3 13.2 C 1.6 km/h
971 01-06-2014 08:50:00 13.3 C 9.36 g/m*3 13.3 C 0 km/h
972 01-06-2014 08:55:00 13.5 C 9.47 g/m*3 13.5 C 1.6 km/h
973 01-06-2014 09:00:00 13.7 C 9.47 g/m*3 13.7 C 3.2 km/h
974 01-06-2014 09:05:00 13.7 C 9.47 g/m*3 13.7 C 3.2 km/h
975 01-06-2014 09:10:00 13.7 C 9.47 g/m*3 13.7 C 1.6 km/h
Sensor: Nr:Datum:Temp:Abs-Feuchte:Windchill:Wind:
Aussen-T/F 976 01-06-2014 09:15:00 13.7 C 9.47 g/m*3 13.7 C 3.2 km/h
977 01-06-2014 09:20:00 13.7 C 9.47 g/m*3 13.7 C 1.6 km/h
978 01-06-2014 09:25:00 14.1 C 9.59 g/m*3 14.1 C 3.2 km/h
979 01-06-2014 09:30:00 14.1 C 9.47 g/m*3 14.1 C 3.2 km/h
980 01-06-2014 09:35:00 14 C 9.29 g/m*3 14 C 3.2 km/h
981 01-06-2014 09:40:00 14.1 C 9.47 g/m*3 14.1 C 1.6 km/h
982 01-06-2014 09:45:00 14.2 C 9.65 g/m*3 14.2 C 3.2 km/h
983 01-06-2014 09:50:00 14.4 C 9.77 g/m*3 14.4 C 1.6 km/h
984 01-06-2014 09:55:00 14.7 C 9.57 g/m*3 14.7 C 3.2 km/h
985 01-06-2014 10:00:00 15.1 C 9.8 g/m*3 15.1 C 3.2 km/h
986 01-06-2014 10:05:00 15.5 C 9.78 g/m*3 15.5 C 3.2 km/h
987 01-06-2014 10:10:00 15.9 C 9.62 g/m*3 15.9 C 4.8 km/h
988 01-06-2014 10:15:00 16.1 C 9.6 g/m*3 16.1 C 4.8 km/h
989 01-06-2014 10:20:00 16.3 C 9.85 g/m*3 16.3 C 1.6 km/h
990 01-06-2014 10:25:00 16.4 C 9.63 g/m*3 16.4 C 3.2 km/h
991 01-06-2014 10:30:00 16.5 C 9.55 g/m*3 16.5 C 4.8 km/h
992 01-06-2014 10:35:00 16.5 C 9.69 g/m*3 16.5 C 4.8 km/h
993 01-06-2014 10:40:00 16.7 C 9.52 g/m*3 16.7 C 4.8 km/h
994 01-06-2014 10:45:00 16.9 C 9.78 g/m*3 16.9 C 8.1 km/h
995 01-06-2014 10:50:00 17.1 C 9.61 g/m*3 17.1 C 4.8 km/h
996 01-06-2014 10:55:00 17.3 C 9.87 g/m*3 17.3 C 6.4 km/h
997 01-06-2014 11:00:00 17.4 C 9.19 g/m*3 17.4 C 9.7 km/h
998 01-06-2014 11:05:00 17.6 C 9.6 g/m*3 17.6 C 9.7 km/h
999 01-06-2014 11:10:00 17.8 C 9.71 g/m*3 17.8 C 6.4 km/h
1000 01-06-2014 11:15:00 18.1 C 9.58 g/m*3 18.1 C 4.8 km/h
Sensor: Nr:Datum:Temp:Abs-Feuchte:Windchill:Wind:
Aussen-T/F 1001 01-06-2014 11:20:00 18.2 C 9.33 g/m*3 18.2 C 9.7 km/h
1002 01-06-2014 11:25:00 18.3 C 9.07 g/m*3 18.3 C 8.1 km/h
1003 01-06-2014 11:30:00 18.3 C 9.85 g/m*3 18.3 C 8.1 km/h
1004 01-06-2014 11:35:00 18.4 C 9.44 g/m*3 18.4 C 9.7 km/h
1005 01-06-2014 11:40:00 18.4 C 9.91 g/m*3 18.4 C 4.8 km/h
1006 01-06-2014 11:45:00 18.6 C 9.71 g/m*3 18.6 C 4.8 km/h
1007 01-06-2014 11:50:00 18.8 C 9.34 g/m*3 18.8 C 8.1 km/h
1008 01-06-2014 11:55:00 19.1 C 9.84 g/m*3 19.1 C 4.8 km/h
1009 01-06-2014 12:00:00 19.2 C 9.56 g/m*3 19.2 C 9.7 km/h
1010 01-06-2014 12:05:00 19.2 C 9.73 g/m*3 19.2 C 8.1 km/h
1011 01-06-2014 12:10:00 19.4 C 9.84 g/m*3 19.4 C 11.3 km/h
1012 01-06-2014 12:15:00 19.6 C 9.62 g/m*3 19.6 C 6.4 km/h
1013 01-06-2014 12:20:00 19.7 C 10.19 g/m*3 19.7 C 6.4 km/h
1014 01-06-2014 12:25:00 19.9 C 8.93 g/m*3 19.9 C 9.7 km/h
1015 01-06-2014 12:30:00 19.7 C 9.51 g/m*3 19.7 C 8.1 km/h
1016 01-06-2014 12:35:00 20 C 9.51 g/m*3 20 C 4.8 km/h
1017 01-06-2014 12:40:00 20.3 C 9.5 g/m*3 20.3 C 11.3 km/h
1018 01-06-2014 12:45:00 20.3 C 9.15 g/m*3 20.3 C 8.1 km/h
1019 01-06-2014 12:50:00 20.4 C 9.73 g/m*3 20.4 C 11.3 km/h
1020 01-06-2014 12:55:00 20.7 C 9.18 g/m*3 20.7 C 4.8 km/h
1021 01-06-2014 13:00:00 20.6 C 9.13 g/m*3 20.6 C 11.3 km/h
1022 01-06-2014 13:05:00 20.4 C 9.2 g/m*3 20.4 C 9.7 km/h
1023 01-06-2014 13:10:00 20.5 C 9.43 g/m*3 20.5 C 6.4 km/h
1024 01-06-2014 13:15:00 20.6 C 9.13 g/m*3 20.6 C 8.1 km/h
1025 01-06-2014 13:20:00 20.7 C 9.36 g/m*3 20.7 C 8.1 km/h
Sensor: Nr:Datum:Temp:Abs-Feuchte:Windchill:Wind:
Aussen-T/F 1026 01-06-2014 13:25:00 20.6 C 9.84 g/m*3 20.6 C 8.1 km/h
1027 01-06-2014 13:30:00 20.8 C 8.87 g/m*3 20.8 C 8.1 km/h
1028 01-06-2014 13:35:00 21.1 C 10.32 g/m*3 21.1 C 8.1 km/h
1029 01-06-2014 13:40:00 21.1 C 9.21 g/m*3 21.1 C 3.2 km/h
1030 01-06-2014 13:45:00 21.1 C 9.03 g/m*3 21.1 C 14.5 km/h
1031 01-06-2014 13:50:00 20.9 C 9.29 g/m*3 20.9 C 8.1 km/h
1032 01-06-2014 13:55:00 20.7 C 9.36 g/m*3 20.7 C 9.7 km/h
1033 01-06-2014 14:00:00 20.4 C 9.02 g/m*3 20.4 C 11.3 km/h
1034 01-06-2014 14:05:00 20.1 C 8.87 g/m*3 20.1 C 8.1 km/h
1035 01-06-2014 14:10:00 19.8 C 8.71 g/m*3 19.8 C 8.1 km/h
1036 01-06-2014 14:15:00 19.8 C 8.71 g/m*3 19.8 C 11.3 km/h
1037 01-06-2014 14:55:00 21.7 C 8.58 g/m*3 21.7 C 12.9 km/h
1038 01-06-2014 15:00:00 21.7 C 8.58 g/m*3 21.7 C 12.9 km/h
1039 01-06-2014 15:05:00 21.7 C 8.58 g/m*3 21.7 C 14.5 km/h
1040 01-06-2014 15:25:00 22.1 C 8.98 g/m*3 22.1 C 8.1 km/h
1041 01-06-2014 15:30:00 22.2 C 9.23 g/m*3 22.2 C 12.9 km/h
1042 01-06-2014 15:35:00 22.3 C 9.28 g/m*3 22.3 C 9.7 km/h
1043 01-06-2014 15:40:00 22.4 C 8.94 g/m*3 22.4 C 12.9 km/h
1044 01-06-2014 15:45:00 22.3 C 8.69 g/m*3 22.3 C 11.3 km/h
1045 01-06-2014 15:50:00 21.7 C 8.77 g/m*3 21.7 C 11.3 km/h
1046 01-06-2014 15:55:00 21.2 C 8.71 g/m*3 21.2 C 11.3 km/h
1047 01-06-2014 16:00:00 21 C 8.61 g/m*3 21 C 12.9 km/h
1048 01-06-2014 16:05:00 21 C 8.98 g/m*3 21 C 9.7 km/h
1049 01-06-2014 16:10:00 21 C 8.98 g/m*3 21 C 12.9 km/h
1050 01-06-2014 16:30:00 20.9 C 8.74 g/m*3 20.9 C 12.9 km/h
Sensor: Nr:Datum:Temp:Abs-Feuchte:Windchill:Wind:
Aussen-T/F 1051 01-06-2014 16:35:00 20.9 C 9.11 g/m*3 20.9 C 8.1 km/h
1052 01-06-2014 16:40:00 21.1 C 8.84 g/m*3 21.1 C 11.3 km/h
1053 01-06-2014 16:45:00 21.1 C 8.66 g/m*3 21.1 C 8.1 km/h
1054 01-06-2014 16:50:00 20.9 C 8.92 g/m*3 20.9 C 11.3 km/h
1055 01-06-2014 16:55:00 20.8 C 8.33 g/m*3 20.8 C 9.7 km/h
1056 01-06-2014 17:00:00 20.4 C 8.49 g/m*3 20.4 C 11.3 km/h
1057 01-06-2014 17:05:00 20.2 C 8.22 g/m*3 20.2 C 9.7 km/h
1058 01-06-2014 17:10:00 20 C 8.47 g/m*3 20 C 11.3 km/h
1059 01-06-2014 17:15:00 19.9 C 8.76 g/m*3 19.9 C 8.1 km/h
1060 01-06-2014 17:20:00 19.9 C 8.59 g/m*3 19.9 C 8.1 km/h
1061 01-06-2014 17:25:00 20 C 8.64 g/m*3 20 C 8.1 km/h
1062 01-06-2014 17:30:00 20.4 C 8.85 g/m*3 20.4 C 6.4 km/h
1063 01-06-2014 17:35:00 20.5 C 8.72 g/m*3 20.5 C 11.3 km/h
1064 01-06-2014 17:40:00 20.6 C 8.41 g/m*3 20.6 C 11.3 km/h
1065 01-06-2014 17:45:00 20.6 C 8.59 g/m*3 20.6 C 9.7 km/h
1066 01-06-2014 17:50:00 20.3 C 8.27 g/m*3 20.3 C 14.5 km/h
1067 01-06-2014 17:55:00 20.1 C 8 g/m*3 20.1 C 12.9 km/h
1068 01-06-2014 18:00:00 19.9 C 8.25 g/m*3 19.9 C 6.4 km/h
1069 01-06-2014 18:05:00 19.6 C 8.1 g/m*3 19.6 C 11.3 km/h
1070 01-06-2014 18:10:00 19.6 C 8.44 g/m*3 19.6 C 6.4 km/h
1071 01-06-2014 18:15:00 19.4 C 8.18 g/m*3 19.4 C 8.1 km/h
1072 01-06-2014 18:20:00 19.3 C 8.13 g/m*3 19.3 C 9.7 km/h
1073 01-06-2014 18:25:00 19.4 C 8.51 g/m*3 19.4 C 8.1 km/h
1074 01-06-2014 18:30:00 19.4 C 8.01 g/m*3 19.4 C 8.1 km/h
1075 01-06-2014 18:35:00 19.4 C 7.84 g/m*3 19.4 C 9.7 km/h
Sensor: Nr:Datum:Temp:Abs-Feuchte:Windchill:Wind:
Aussen-T/F 1076 01-06-2014 18:40:00 19.4 C 8.01 g/m*3 19.4 C 8.1 km/h
1077 01-06-2014 18:45:00 19.3 C 8.13 g/m*3 19.3 C 9.7 km/h
1078 01-06-2014 18:50:00 19.2 C 8.08 g/m*3 19.2 C 9.7 km/h
1079 01-06-2014 18:55:00 19.2 C 8.08 g/m*3 19.2 C 6.4 km/h
1080 01-06-2014 19:00:00 19.3 C 8.13 g/m*3 19.3 C 6.4 km/h
1081 01-06-2014 19:05:00 19.4 C 8.01 g/m*3 19.4 C 9.7 km/h
1082 01-06-2014 19:10:00 19.3 C 7.96 g/m*3 19.3 C 6.4 km/h
1083 01-06-2014 19:15:00 19.1 C 7.7 g/m*3 19.1 C 4.8 km/h
1084 01-06-2014 19:20:00 19 C 8.15 g/m*3 19 C 4.8 km/h
1085 01-06-2014 19:25:00 19 C 8.31 g/m*3 19 C 8.1 km/h
1086 01-06-2014 19:30:00 19.1 C 8.2 g/m*3 19.1 C 6.4 km/h
1087 01-06-2014 19:35:00 19.1 C 8.2 g/m*3 19.1 C 8.1 km/h
1088 01-06-2014 19:40:00 19.2 C 8.24 g/m*3 19.2 C 8.1 km/h
1089 01-06-2014 19:45:00 19 C 8.15 g/m*3 19 C 8.1 km/h
1090 01-06-2014 19:50:00 18.9 C 8.1 g/m*3 18.9 C 6.4 km/h
1091 01-06-2014 19:55:00 18.8 C 8.21 g/m*3 18.8 C 4.8 km/h
1092 01-06-2014 20:00:00 18.7 C 8.01 g/m*3 18.7 C 4.8 km/h
1093 01-06-2014 20:05:00 18.6 C 8.12 g/m*3 18.6 C 6.4 km/h
1094 01-06-2014 20:10:00 18.5 C 8.07 g/m*3 18.5 C 1.6 km/h
1095 01-06-2014 20:15:00 18.3 C 7.97 g/m*3 18.3 C 3.2 km/h
1096 01-06-2014 20:20:00 18.2 C 7.93 g/m*3 18.2 C 4.8 km/h
1097 01-06-2014 20:25:00 18.1 C 8.03 g/m*3 18.1 C 3.2 km/h
1098 01-06-2014 20:30:00 18 C 8.45 g/m*3 18 C 0 km/h
1099 01-06-2014 20:35:00 17.8 C 9.26 g/m*3 17.8 C 0 km/h
1100 01-06-2014 20:40:00 17.4 C 9.34 g/m*3 17.4 C 0 km/h
Sensor: Nr:Datum:Temp:Abs-Feuchte:Windchill:Wind:
Aussen-T/F 1101 01-06-2014 20:45:00 17 C 9.12 g/m*3 17 C 0 km/h
1102 01-06-2014 20:50:00 16.7 C 9.24 g/m*3 16.7 C 0 km/h
1103 01-06-2014 20:55:00 16.4 C 8.93 g/m*3 16.4 C 0 km/h
1104 01-06-2014 21:00:00 16.3 C 9.02 g/m*3 16.3 C 0 km/h
1105 01-06-2014 21:05:00 16.2 C 9.38 g/m*3 16.2 C 0 km/h
1106 01-06-2014 21:10:00 16 C 9.4 g/m*3 16 C 0 km/h
1107 01-06-2014 21:15:00 15.9 C 9.62 g/m*3 15.9 C 0 km/h
1108 01-06-2014 21:20:00 15.8 C 9.83 g/m*3 15.8 C 0 km/h
1109 01-06-2014 21:25:00 15.7 C 9.63 g/m*3 15.7 C 0 km/h
1110 01-06-2014 21:30:00 15.6 C 9.58 g/m*3 15.6 C 0 km/h
1111 01-06-2014 21:35:00 15.5 C 9.39 g/m*3 15.5 C 0 km/h
1112 01-06-2014 21:40:00 15.4 C 9.2 g/m*3 15.4 C 0 km/h
1113 01-06-2014 21:45:00 15.3 C 9.4 g/m*3 15.3 C 0 km/h
1114 01-06-2014 21:50:00 15.3 C 9.53 g/m*3 15.3 C 0 km/h
1115 01-06-2014 21:55:00 15.3 C 9.53 g/m*3 15.3 C 1.6 km/h
1116 01-06-2014 22:00:00 15.3 C 9.4 g/m*3 15.3 C 1.6 km/h
1117 01-06-2014 22:05:00 15.6 C 9.31 g/m*3 15.6 C 1.6 km/h
1118 01-06-2014 22:10:00 15.6 C 9.44 g/m*3 15.6 C 1.6 km/h
1119 01-06-2014 22:15:00 15.4 C 9.33 g/m*3 15.4 C 0 km/h
1120 01-06-2014 22:20:00 15.2 C 9.35 g/m*3 15.2 C 0 km/h
1121 01-06-2014 22:25:00 15.1 C 9.42 g/m*3 15.1 C 0 km/h
1122 01-06-2014 22:30:00 14.9 C 9.3 g/m*3 14.9 C 0 km/h
1123 01-06-2014 22:35:00 14.8 C 9.37 g/m*3 14.8 C 0 km/h
1124 01-06-2014 22:40:00 14.7 C 9.44 g/m*3 14.7 C 0 km/h
1125 01-06-2014 22:45:00 14.6 C 9.26 g/m*3 14.6 C 0 km/h
Sensor: Nr:Datum:Temp:Abs-Feuchte:Windchill:Wind:
Aussen-T/F 1126 01-06-2014 22:50:00 14.6 C 9.26 g/m*3 14.6 C 0 km/h
1127 01-06-2014 22:55:00 14.6 C 9.26 g/m*3 14.6 C 0 km/h
1128 01-06-2014 23:00:00 14.5 C 9.2 g/m*3 14.5 C 0 km/h
1129 01-06-2014 23:05:00 14.4 C 9.27 g/m*3 14.4 C 0 km/h
1130 01-06-2014 23:10:00 14.3 C 9.09 g/m*3 14.3 C 0 km/h
1131 01-06-2014 23:15:00 14.2 C 8.91 g/m*3 14.2 C 0 km/h
1132 01-06-2014 23:20:00 14 C 8.68 g/m*3 14 C 0 km/h
1133 01-06-2014 23:25:00 13.9 C 8.75 g/m*3 13.9 C 0 km/h
1134 01-06-2014 23:30:00 13.8 C 8.94 g/m*3 13.8 C 0 km/h
1135 01-06-2014 23:35:00 13.8 C 9.06 g/m*3 13.8 C 1.6 km/h
1136 01-06-2014 23:40:00 13.7 C 9 g/m*3 13.7 C 1.6 km/h
1137 01-06-2014 23:45:00 13.7 C 9.24 g/m*3 13.7 C 1.6 km/h
1138 01-06-2014 23:50:00 13.7 C 9 g/m*3 13.7 C 0 km/h
1139 01-06-2014 23:55:00 13.8 C 9.06 g/m*3 13.8 C 0 km/h
1140 02-06-2014 00:00:00 13.7 C 9.24 g/m*3 13.7 C 0 km/h
1141 02-06-2014 00:05:00 13.7 C 9.24 g/m*3 13.7 C 0 km/h
1142 02-06-2014 00:10:00 13.6 C 8.94 g/m*3 13.6 C 0 km/h
1143 02-06-2014 00:15:00 13.6 C 9.06 g/m*3 13.6 C 0 km/h
1144 02-06-2014 00:20:00 13.5 C 9.01 g/m*3 13.5 C 0 km/h
1145 02-06-2014 00:25:00 13.5 C 9.01 g/m*3 13.5 C 0 km/h
1146 02-06-2014 00:30:00 13.4 C 8.83 g/m*3 13.4 C 0 km/h
1147 02-06-2014 00:35:00 13.4 C 8.95 g/m*3 13.4 C 0 km/h
1148 02-06-2014 00:40:00 13.3 C 8.9 g/m*3 13.3 C 0 km/h
1149 02-06-2014 00:45:00 13.3 C 9.01 g/m*3 13.3 C 0 km/h
1150 02-06-2014 00:50:00 13.2 C 8.84 g/m*3 13.2 C 0 km/h
Sensor: Nr:Datum:Temp:Abs-Feuchte:Windchill:Wind:
Aussen-T/F 1151 02-06-2014 00:55:00 13.2 C 9.07 g/m*3 13.2 C 0 km/h
1152 02-06-2014 01:00:00 13.1 C 8.9 g/m*3 13.1 C 0 km/h
1153 02-06-2014 01:05:00 13.1 C 8.9 g/m*3 13.1 C 0 km/h
1154 02-06-2014 01:10:00 13.1 C 9.01 g/m*3 13.1 C 0 km/h
1155 02-06-2014 01:15:00 13.1 C 8.56 g/m*3 13.1 C 0 km/h
1156 02-06-2014 01:20:00 13.2 C 8.73 g/m*3 13.2 C 1.6 km/h
1157 02-06-2014 01:25:00 13.2 C 8.73 g/m*3 13.2 C 1.6 km/h
1158 02-06-2014 01:30:00 13.3 C 9.01 g/m*3 13.3 C 0 km/h
1159 02-06-2014 01:35:00 13.2 C 8.84 g/m*3 13.2 C 0 km/h
1160 02-06-2014 01:40:00 13.1 C 8.79 g/m*3 13.1 C 0 km/h
1161 02-06-2014 01:45:00 12.9 C 8.9 g/m*3 12.9 C 0 km/h
1162 02-06-2014 01:50:00 12.7 C 8.68 g/m*3 12.7 C 0 km/h
1163 02-06-2014 01:55:00 12.3 C 8.47 g/m*3 12.3 C 0 km/h
1164 02-06-2014 02:00:00 12.2 C 8.52 g/m*3 12.2 C 1.6 km/h
1165 02-06-2014 02:05:00 12.1 C 8.47 g/m*3 12.1 C 0 km/h
1166 02-06-2014 02:10:00 12 C 8.42 g/m*3 12 C 0 km/h
1167 02-06-2014 02:15:00 11.9 C 8.37 g/m*3 11.9 C 0 km/h
1168 02-06-2014 02:20:00 11.8 C 8.42 g/m*3 11.8 C 0 km/h
1169 02-06-2014 02:25:00 11.7 C 8.47 g/m*3 11.7 C 0 km/h
1170 02-06-2014 02:30:00 11.6 C 8.42 g/m*3 11.6 C 0 km/h
1171 02-06-2014 02:35:00 11.4 C 8.31 g/m*3 11.4 C 0 km/h
1172 02-06-2014 02:40:00 11.3 C 8.36 g/m*3 11.3 C 0 km/h
1173 02-06-2014 02:45:00 11.2 C 8.21 g/m*3 11.2 C 0 km/h
1174 02-06-2014 02:50:00 11.1 C 8.26 g/m*3 11.1 C 0 km/h
1175 02-06-2014 02:55:00 10.9 C 8.26 g/m*3 10.9 C 0 km/h
Sensor: Nr:Datum:Temp:Abs-Feuchte:Windchill:Wind:
Aussen-T/F 1176 02-06-2014 03:00:00 10.8 C 8.2 g/m*3 10.8 C 0 km/h
1177 02-06-2014 03:05:00 10.7 C 8.25 g/m*3 10.7 C 0 km/h
1178 02-06-2014 03:10:00 10.6 C 8.2 g/m*3 10.6 C 0 km/h
1179 02-06-2014 03:15:00 10.5 C 8.15 g/m*3 10.5 C 0 km/h
1180 02-06-2014 03:20:00 10.4 C 8.19 g/m*3 10.4 C 0 km/h
1181 02-06-2014 03:25:00 10.3 C 8.14 g/m*3 10.3 C 0 km/h
1182 02-06-2014 03:30:00 10.2 C 8.18 g/m*3 10.2 C 0 km/h
1183 02-06-2014 03:35:00 10.1 C 8.13 g/m*3 10.1 C 0 km/h
1184 02-06-2014 03:40:00 10.1 C 8.13 g/m*3 10.1 C 0 km/h
1185 02-06-2014 03:45:00 10 C 8.08 g/m*3 10 C 0 km/h
1186 02-06-2014 03:50:00 9.9 C 8.12 g/m*3 9.9 C 0 km/h
1187 02-06-2014 03:55:00 9.8 C 8.07 g/m*3 9.8 C 0 km/h
1188 02-06-2014 04:00:00 9.7 C 8.02 g/m*3 9.7 C 0 km/h
1189 02-06-2014 04:05:00 9.7 C 8.02 g/m*3 9.7 C 0 km/h
1190 02-06-2014 04:10:00 9.6 C 8.06 g/m*3 9.6 C 0 km/h
1191 02-06-2014 04:15:00 9.5 C 8.01 g/m*3 9.5 C 0 km/h
1192 02-06-2014 04:20:00 9.4 C 8.05 g/m*3 9.4 C 0 km/h
1193 02-06-2014 04:25:00 9.4 C 8.05 g/m*3 9.4 C 0 km/h
1194 02-06-2014 04:30:00 9.3 C 8 g/m*3 9.3 C 0 km/h
1195 02-06-2014 04:35:00 9.3 C 8 g/m*3 9.3 C 0 km/h
1196 02-06-2014 04:40:00 9.2 C 8.04 g/m*3 9.2 C 0 km/h
1197 02-06-2014 04:45:00 9.2 C 8.04 g/m*3 9.2 C 0 km/h
1198 02-06-2014 04:50:00 9.1 C 7.9 g/m*3 9.1 C 0 km/h
1199 02-06-2014 04:55:00 9.1 C 7.99 g/m*3 9.1 C 0 km/h
1200 02-06-2014 05:00:00 9.1 C 7.99 g/m*3 9.1 C 0 km/h
Sensor: Nr:Datum:Temp:Abs-Feuchte:Windchill:Wind:
Aussen-T/F 1201 02-06-2014 05:05:00 8.9 C 7.88 g/m*3 8.9 C 0 km/h
1202 02-06-2014 05:10:00 8.9 C 7.88 g/m*3 8.9 C 0 km/h
1203 02-06-2014 05:15:00 8.8 C 7.92 g/m*3 8.8 C 0 km/h
1204 02-06-2014 05:20:00 8.8 C 7.92 g/m*3 8.8 C 0 km/h
1205 02-06-2014 05:25:00 8.8 C 7.92 g/m*3 8.8 C 0 km/h
1206 02-06-2014 05:30:00 8.7 C 7.87 g/m*3 8.7 C 0 km/h
1207 02-06-2014 05:35:00 8.7 C 7.96 g/m*3 8.7 C 0 km/h
1208 02-06-2014 05:40:00 8.7 C 7.96 g/m*3 8.7 C 0 km/h
1209 02-06-2014 05:45:00 8.7 C 7.96 g/m*3 8.7 C 0 km/h
1210 02-06-2014 05:50:00 8.7 C 7.96 g/m*3 8.7 C 0 km/h
1211 02-06-2014 05:55:00 8.7 C 7.96 g/m*3 8.7 C 0 km/h
1212 02-06-2014 06:00:00 8.7 C 7.96 g/m*3 8.7 C 0 km/h
1213 02-06-2014 06:05:00 8.7 C 7.96 g/m*3 8.7 C 0 km/h
1214 02-06-2014 06:10:00 8.7 C 7.96 g/m*3 8.7 C 0 km/h
1215 02-06-2014 06:15:00 8.7 C 7.96 g/m*3 8.7 C 0 km/h
1216 02-06-2014 06:20:00 8.7 C 7.96 g/m*3 8.7 C 1.6 km/h
1217 02-06-2014 06:25:00 8.8 C 8.01 g/m*3 8.8 C 0 km/h
1218 02-06-2014 06:30:00 8.8 C 8.09 g/m*3 8.8 C 0 km/h
1219 02-06-2014 06:35:00 8.8 C 8.09 g/m*3 8.8 C 0 km/h
1220 02-06-2014 06:40:00 8.8 C 8.09 g/m*3 8.8 C 0 km/h
1221 02-06-2014 06:45:00 8.9 C 8.15 g/m*3 8.9 C 1.6 km/h
1222 02-06-2014 06:50:00 8.9 C 8.15 g/m*3 8.9 C 0 km/h
1223 02-06-2014 06:55:00 9 C 8.11 g/m*3 9 C 0 km/h
1224 02-06-2014 07:00:00 9.1 C 8.16 g/m*3 9.1 C 0 km/h
1225 02-06-2014 07:05:00 9.2 C 8.3 g/m*3 9.2 C 3.2 km/h
Sensor: Nr:Datum:Temp:Abs-Feuchte:Windchill:Wind:
Aussen-T/F 1226 02-06-2014 07:10:00 9.4 C 8.32 g/m*3 8.68 C 6.4 km/h
1227 02-06-2014 07:15:00 9.5 C 8.28 g/m*3 9.5 C 4.8 km/h
1228 02-06-2014 07:20:00 9.6 C 8.34 g/m*3 9.6 C 1.6 km/h
1229 02-06-2014 07:25:00 9.7 C 8.3 g/m*3 9.7 C 3.2 km/h
1230 02-06-2014 07:30:00 9.8 C 8.35 g/m*3 9.8 C 4.8 km/h
1231 02-06-2014 07:35:00 9.8 C 8.26 g/m*3 9.8 C 0 km/h
1232 02-06-2014 07:40:00 9.9 C 8.31 g/m*3 9.9 C 0 km/h
1233 02-06-2014 07:45:00 9.9 C 8.4 g/m*3 9.9 C 3.2 km/h
1234 02-06-2014 07:50:00 10.2 C 8.56 g/m*3 10.2 C 0 km/h
1235 02-06-2014 07:55:00 10.4 C 8.67 g/m*3 10.4 C 0 km/h
1236 02-06-2014 08:00:00 10.7 C 8.74 g/m*3 10.7 C 0 km/h
1237 02-06-2014 08:05:00 11.1 C 8.96 g/m*3 11.1 C 0 km/h
1238 02-06-2014 08:10:00 11.2 C 8.92 g/m*3 11.2 C 0 km/h
1239 02-06-2014 08:15:00 11.4 C 9.03 g/m*3 11.4 C 0 km/h
1240 02-06-2014 08:20:00 11.6 C 8.94 g/m*3 11.6 C 0 km/h
1241 02-06-2014 08:25:00 11.8 C 9.05 g/m*3 11.8 C 0 km/h
1242 02-06-2014 08:30:00 11.9 C 9 g/m*3 11.9 C 0 km/h
1243 02-06-2014 08:35:00 11.9 C 9 g/m*3 11.9 C 0 km/h
1244 02-06-2014 08:40:00 11.9 C 9 g/m*3 11.9 C 0 km/h
1245 02-06-2014 09:15:00 14.2 C 12.21 g/m*3 14.2 C 0 km/h
1246 02-06-2014 09:20:00 14.2 C 9.65 g/m*3 14.2 C 0 km/h
1247 02-06-2014 09:25:00 14.1 C 9.34 g/m*3 14.1 C 0 km/h
1248 02-06-2014 09:30:00 14.1 C 9.47 g/m*3 14.1 C 0 km/h
1249 02-06-2014 09:35:00 14.2 C 9.52 g/m*3 14.2 C 3.2 km/h
1250 02-06-2014 09:40:00 14.5 C 9.7 g/m*3 14.5 C 3.2 km/h
Sensor: Nr:Datum:Temp:Abs-Feuchte:Windchill:Wind:
Aussen-T/F 1251 02-06-2014 09:45:00 14.7 C 9.44 g/m*3 14.7 C 1.6 km/h
1252 02-06-2014 09:50:00 14.8 C 9.5 g/m*3 14.8 C 1.6 km/h
1253 02-06-2014 09:55:00 14.9 C 9.43 g/m*3 14.9 C 3.2 km/h
1254 02-06-2014 10:00:00 15.2 C 9.73 g/m*3 15.2 C 4.8 km/h
1255 02-06-2014 10:05:00 15.2 C 9.73 g/m*3 15.2 C 3.2 km/h
1256 02-06-2014 10:10:00 15.5 C 9.52 g/m*3 15.5 C 1.6 km/h
1257 02-06-2014 10:15:00 15.6 C 9.31 g/m*3 15.6 C 3.2 km/h
1258 02-06-2014 10:20:00 15.7 C 9.77 g/m*3 15.7 C 3.2 km/h
1259 02-06-2014 10:25:00 15.9 C 9.34 g/m*3 15.9 C 1.6 km/h
1260 02-06-2014 10:30:00 16 C 9.95 g/m*3 16 C 1.6 km/h
1261 02-06-2014 10:35:00 16.1 C 9.87 g/m*3 16.1 C 3.2 km/h
1262 02-06-2014 10:40:00 16.1 C 9.87 g/m*3 16.1 C 3.2 km/h
1263 02-06-2014 12:25:00 20.8 C 9.05 g/m*3 20.8 C 4.8 km/h
1264 02-06-2014 12:30:00 20.8 C 9.05 g/m*3 20.8 C 8.1 km/h
1265 02-06-2014 12:35:00 20.8 C 9.05 g/m*3 20.8 C 9.7 km/h
1266 02-06-2014 13:25:00 20.9 C 8.92 g/m*3 20.9 C 3.2 km/h
1267 02-06-2014 13:30:00 20.8 C 8.87 g/m*3 20.8 C 6.4 km/h
1268 02-06-2014 13:35:00 20.8 C 8.87 g/m*3 20.8 C 6.4 km/h
1269 02-06-2014 13:40:00 21.2 C 8.71 g/m*3 21.2 C 9.7 km/h
1270 02-06-2014 13:45:00 21.2 C 8.71 g/m*3 21.2 C 8.1 km/h
1271 02-06-2014 13:50:00 21.3 C 8.39 g/m*3 21.3 C 3.2 km/h
1272 02-06-2014 13:55:00 21.3 C 9.13 g/m*3 21.3 C 9.7 km/h
1273 02-06-2014 14:00:00 21.3 C 9.13 g/m*3 21.3 C 9.7 km/h
1274 02-06-2014 14:05:00 21.3 C 9.13 g/m*3 21.3 C 9.7 km/h
1275 02-06-2014 14:10:00 21.4 C 9.19 g/m*3 21.4 C 8.1 km/h
Sensor: Nr:Datum:Temp:Abs-Feuchte:Windchill:Wind:
Aussen-T/F 1276 02-06-2014 14:15:00 21.4 C 9.56 g/m*3 21.4 C 3.2 km/h
1277 02-06-2014 14:20:00 21.7 C 8.97 g/m*3 21.7 C 4.8 km/h
1278 02-06-2014 14:25:00 21.8 C 9.59 g/m*3 21.8 C 9.7 km/h
1279 02-06-2014 14:30:00 22.2 C 9.03 g/m*3 22.2 C 9.7 km/h
1280 02-06-2014 14:35:00 22 C 8.73 g/m*3 22 C 6.4 km/h
1281 02-06-2014 14:40:00 21.9 C 8.68 g/m*3 21.9 C 4.8 km/h
1282 02-06-2014 14:45:00 22.2 C 9.03 g/m*3 22.2 C 6.4 km/h
1283 02-06-2014 14:50:00 22.4 C 8.94 g/m*3 22.4 C 11.3 km/h
1284 02-06-2014 14:55:00 22.6 C 8.84 g/m*3 22.6 C 4.8 km/h
1285 02-06-2014 15:00:00 22.7 C 8.89 g/m*3 22.7 C 12.9 km/h
1286 02-06-2014 15:05:00 22.6 C 8.64 g/m*3 22.6 C 12.9 km/h
1287 02-06-2014 15:10:00 22.1 C 8.39 g/m*3 22.1 C 6.4 km/h
1288 02-06-2014 15:15:00 21.9 C 8.68 g/m*3 21.9 C 6.4 km/h
1289 02-06-2014 15:20:00 22.1 C 8.78 g/m*3 22.1 C 6.4 km/h
1290 02-06-2014 15:25:00 22.3 C 8.69 g/m*3 22.3 C 6.4 km/h
1291 02-06-2014 15:30:00 22.6 C 8.84 g/m*3 22.6 C 6.4 km/h
1292 02-06-2014 15:35:00 22.6 C 8.84 g/m*3 22.6 C 4.8 km/h
1293 02-06-2014 15:40:00 22.7 C 8.69 g/m*3 22.7 C 4.8 km/h
1294 02-06-2014 15:45:00 22.8 C 9.14 g/m*3 22.8 C 4.8 km/h
1295 02-06-2014 15:50:00 23.2 C 8.52 g/m*3 23.2 C 1.6 km/h
1296 02-06-2014 15:55:00 23.2 C 8.11 g/m*3 23.2 C 4.8 km/h
1297 02-06-2014 16:00:00 22.5 C 8.59 g/m*3 22.5 C 1.6 km/h
1298 02-06-2014 16:05:00 22.1 C 8.2 g/m*3 22.1 C 4.8 km/h
1299 02-06-2014 16:10:00 21.8 C 8.06 g/m*3 21.8 C 8.1 km/h
1300 02-06-2014 16:15:00 21.8 C 8.06 g/m*3 21.8 C 6.4 km/h
Sensor: Nr:Datum:Temp:Abs-Feuchte:Windchill:Wind:
Aussen-T/F 1301 02-06-2014 16:20:00 22.5 C 8.99 g/m*3 22.5 C 8.1 km/h
1302 02-06-2014 16:25:00 23.1 C 8.68 g/m*3 23.1 C 9.7 km/h
1303 02-06-2014 16:30:00 23.2 C 8.52 g/m*3 23.2 C 9.7 km/h
1304 02-06-2014 16:35:00 23.4 C 9.46 g/m*3 23.4 C 9.7 km/h
1305 02-06-2014 16:40:00 23.8 C 8.6 g/m*3 23.8 C 6.4 km/h
1306 02-06-2014 16:45:00 23.6 C 8.72 g/m*3 23.6 C 6.4 km/h
1307 02-06-2014 16:50:00 23.7 C 8.77 g/m*3 23.7 C 6.4 km/h
1308 02-06-2014 16:55:00 23.6 C 8.29 g/m*3 23.6 C 8.1 km/h
1309 02-06-2014 17:00:00 23.4 C 8.83 g/m*3 23.4 C 6.4 km/h
1310 02-06-2014 17:05:00 23.6 C 8.93 g/m*3 23.6 C 11.3 km/h
1311 02-06-2014 17:10:00 23.8 C 8.39 g/m*3 23.8 C 8.1 km/h
1312 02-06-2014 17:15:00 23.7 C 8.13 g/m*3 23.7 C 11.3 km/h
1313 02-06-2014 17:20:00 23.7 C 8.56 g/m*3 23.7 C 8.1 km/h
1314 02-06-2014 17:25:00 23.7 C 8.56 g/m*3 23.7 C 8.1 km/h
1315 02-06-2014 17:30:00 23.8 C 8.82 g/m*3 23.8 C 11.3 km/h
1316 02-06-2014 17:35:00 23.8 C 8.82 g/m*3 23.8 C 6.4 km/h
1317 02-06-2014 17:40:00 23.8 C 8.39 g/m*3 23.8 C 4.8 km/h
1318 02-06-2014 17:45:00 24 C 8.27 g/m*3 24 C 8.1 km/h
1319 02-06-2014 17:50:00 24 C 8.27 g/m*3 24 C 6.4 km/h
1320 02-06-2014 18:30:00 23.7 C 8.56 g/m*3 23.7 C 6.4 km/h
1321 02-06-2014 18:35:00 23.6 C 8.93 g/m*3 23.6 C 9.7 km/h
1322 02-06-2014 18:40:00 23.6 C 8.29 g/m*3 23.6 C 8.1 km/h
1323 02-06-2014 18:45:00 23.7 C 8.56 g/m*3 23.7 C 6.4 km/h
1324 02-06-2014 18:50:00 23.6 C 8.29 g/m*3 23.6 C 8.1 km/h
1325 02-06-2014 18:55:00 23.5 C 8.46 g/m*3 23.5 C 4.8 km/h
Sensor: Nr:Datum:Temp:Abs-Feuchte:Windchill:Wind:
Aussen-T/F 1326 02-06-2014 19:00:00 23.5 C 8.46 g/m*3 23.5 C 4.8 km/h
1327 02-06-2014 19:05:00 23.4 C 8.41 g/m*3 23.4 C 8.1 km/h
1328 02-06-2014 19:10:00 23.4 C 8.2 g/m*3 23.4 C 9.7 km/h
1329 02-06-2014 19:15:00 22.8 C 8.13 g/m*3 22.8 C 6.4 km/h
1330 02-06-2014 19:20:00 22.5 C 8.19 g/m*3 22.5 C 8.1 km/h
1331 02-06-2014 19:25:00 22.4 C 8.14 g/m*3 22.4 C 8.1 km/h
1332 02-06-2014 19:30:00 22.3 C 8.29 g/m*3 22.3 C 9.7 km/h
1333 02-06-2014 19:35:00 22.1 C 8.39 g/m*3 22.1 C 8.1 km/h
1334 02-06-2014 19:40:00 22 C 8.15 g/m*3 22 C 4.8 km/h
1335 02-06-2014 19:45:00 21.8 C 8.25 g/m*3 21.8 C 6.4 km/h
1336 02-06-2014 19:50:00 21.7 C 8.01 g/m*3 21.7 C 6.4 km/h
1337 02-06-2014 19:55:00 21.6 C 7.97 g/m*3 21.6 C 3.2 km/h
1338 02-06-2014 20:00:00 21.4 C 7.87 g/m*3 21.4 C 4.8 km/h
1339 02-06-2014 20:05:00 21.3 C 8.02 g/m*3 21.3 C 4.8 km/h
1340 02-06-2014 20:10:00 21.2 C 7.97 g/m*3 21.2 C 4.8 km/h
1341 02-06-2014 20:15:00 21.1 C 7.92 g/m*3 21.1 C 6.4 km/h
1342 02-06-2014 20:20:00 20.9 C 8.2 g/m*3 20.9 C 3.2 km/h
1343 02-06-2014 20:25:00 20.8 C 7.97 g/m*3 20.8 C 3.2 km/h
1344 02-06-2014 20:30:00 20.4 C 9.73 g/m*3 20.4 C 6.4 km/h
1345 02-06-2014 20:35:00 19.7 C 9.51 g/m*3 19.7 C 1.6 km/h
1346 02-06-2014 20:40:00 19.3 C 9.79 g/m*3 19.3 C 1.6 km/h
1347 02-06-2014 20:45:00 18.9 C 10.53 g/m*3 18.9 C 0 km/h
1348 02-06-2014 20:50:00 18.6 C 10.35 g/m*3 18.6 C 0 km/h
1349 02-06-2014 20:55:00 18.2 C 10.26 g/m*3 18.2 C 0 km/h
1350 02-06-2014 21:00:00 17.8 C 10.17 g/m*3 17.8 C 0 km/h
Sensor: Nr:Datum:Temp:Abs-Feuchte:Windchill:Wind:
Aussen-T/F 1351 02-06-2014 21:05:00 17.6 C 9.9 g/m*3 17.6 C 0 km/h
1352 02-06-2014 21:10:00 17.4 C 9.93 g/m*3 17.4 C 0 km/h
1353 02-06-2014 21:15:00 17.2 C 9.96 g/m*3 17.2 C 0 km/h
1354 02-06-2014 21:20:00 17 C 9.98 g/m*3 17 C 0 km/h
1355 02-06-2014 21:25:00 16.8 C 10.01 g/m*3 16.8 C 1.6 km/h
1356 02-06-2014 21:30:00 16.7 C 9.81 g/m*3 16.7 C 0 km/h
1357 02-06-2014 21:35:00 16.6 C 9.89 g/m*3 16.6 C 1.6 km/h
1358 02-06-2014 21:40:00 16.5 C 9.97 g/m*3 16.5 C 1.6 km/h
1359 02-06-2014 21:45:00 16.4 C 9.35 g/m*3 16.4 C 0 km/h
1360 02-06-2014 21:50:00 16.3 C 9.57 g/m*3 16.3 C 0 km/h
1361 02-06-2014 21:55:00 16.3 C 9.57 g/m*3 16.3 C 0 km/h
1362 02-06-2014 22:00:00 16.3 C 9.57 g/m*3 16.3 C 0 km/h
1363 02-06-2014 22:05:00 16.2 C 9.38 g/m*3 16.2 C 0 km/h
1364 02-06-2014 22:10:00 16.2 C 9.24 g/m*3 16.2 C 0 km/h
1365 02-06-2014 22:15:00 16.1 C 9.46 g/m*3 16.1 C 0 km/h
1366 02-06-2014 22:20:00 16 C 9.4 g/m*3 16 C 0 km/h
1367 02-06-2014 22:25:00 15.9 C 9.48 g/m*3 15.9 C 0 km/h
1368 02-06-2014 22:30:00 15.9 C 9.48 g/m*3 15.9 C 0 km/h
1369 02-06-2014 22:35:00 15.9 C 9.48 g/m*3 15.9 C 0 km/h
1370 02-06-2014 22:40:00 15.9 C 9.75 g/m*3 15.9 C 0 km/h
1371 02-06-2014 22:45:00 15.9 C 9.75 g/m*3 15.9 C 0 km/h
1372 02-06-2014 22:50:00 15.9 C 9.34 g/m*3 15.9 C 0 km/h
1373 02-06-2014 22:55:00 15.9 C 9.62 g/m*3 15.9 C 0 km/h
1374 02-06-2014 23:00:00 15.9 C 9.34 g/m*3 15.9 C 0 km/h
1375 02-06-2014 23:05:00 15.8 C 9.42 g/m*3 15.8 C 0 km/h
Sensor: Nr:Datum:Temp:Abs-Feuchte:Windchill:Wind:
Aussen-T/F 1376 02-06-2014 23:10:00 15.8 C 9.29 g/m*3 15.8 C 0 km/h
1377 02-06-2014 23:15:00 15.8 C 9.29 g/m*3 15.8 C 0 km/h
1378 02-06-2014 23:20:00 15.8 C 9.69 g/m*3 15.8 C 0 km/h
1379 02-06-2014 23:25:00 15.7 C 9.37 g/m*3 15.7 C 0 km/h
1380 02-06-2014 23:30:00 15.7 C 9.5 g/m*3 15.7 C 0 km/h
1381 02-06-2014 23:35:00 15.5 C 9.25 g/m*3 15.5 C 1.6 km/h
1382 02-06-2014 23:40:00 15.4 C 9.2 g/m*3 15.4 C 0 km/h
1383 02-06-2014 23:45:00 15.3 C 9.14 g/m*3 15.3 C 1.6 km/h
1384 02-06-2014 23:50:00 15.2 C 9.35 g/m*3 15.2 C 0 km/h
1385 02-06-2014 23:55:00 15.1 C 9.16 g/m*3 15.1 C 0 km/h
1386 03-06-2014 00:00:00 15 C 9.23 g/m*3 15 C 0 km/h
1387 03-06-2014 00:05:00 14.9 C 9.3 g/m*3 14.9 C 0 km/h
1388 03-06-2014 00:10:00 14.8 C 9.25 g/m*3 14.8 C 0 km/h
1389 03-06-2014 00:15:00 14.8 C 9.37 g/m*3 14.8 C 0 km/h
1390 03-06-2014 00:20:00 14.7 C 9.19 g/m*3 14.7 C 0 km/h
1391 03-06-2014 00:25:00 14.7 C 9.32 g/m*3 14.7 C 0 km/h
1392 03-06-2014 00:30:00 14.6 C 9.26 g/m*3 14.6 C 0 km/h
1393 03-06-2014 00:35:00 14.6 C 9.39 g/m*3 14.6 C 0 km/h
1394 03-06-2014 00:40:00 14.4 C 9.27 g/m*3 14.4 C 0 km/h
1395 03-06-2014 00:45:00 14.2 C 9.16 g/m*3 14.2 C 0 km/h
1396 03-06-2014 00:50:00 14.1 C 9.22 g/m*3 14.1 C 0 km/h
1397 03-06-2014 00:55:00 14 C 9.17 g/m*3 14 C 0 km/h
1398 03-06-2014 01:00:00 13.9 C 9.11 g/m*3 13.9 C 0 km/h
1399 03-06-2014 01:05:00 13.8 C 9.17 g/m*3 13.8 C 0 km/h
1400 03-06-2014 01:10:00 13.7 C 9.24 g/m*3 13.7 C 0 km/h
Sensor: Nr:Datum:Temp:Abs-Feuchte:Windchill:Wind:
Aussen-T/F 1401 03-06-2014 01:15:00 13.7 C 9.24 g/m*3 13.7 C 0 km/h
1402 03-06-2014 01:20:00 13.6 C 9.18 g/m*3 13.6 C 0 km/h
1403 03-06-2014 01:25:00 13.4 C 9.18 g/m*3 13.4 C 0 km/h
1404 03-06-2014 01:30:00 13.4 C 9.18 g/m*3 13.4 C 0 km/h
1405 03-06-2014 01:35:00 13.3 C 9.13 g/m*3 13.3 C 0 km/h
1406 03-06-2014 01:40:00 13.2 C 9.07 g/m*3 13.2 C 0 km/h
1407 03-06-2014 01:45:00 13.2 C 9.07 g/m*3 13.2 C 0 km/h
1408 03-06-2014 01:50:00 13.1 C 9.13 g/m*3 13.1 C 0 km/h
1409 03-06-2014 01:55:00 12.9 C 9.02 g/m*3 12.9 C 0 km/h
1410 03-06-2014 02:00:00 12.8 C 9.07 g/m*3 12.8 C 0 km/h
1411 03-06-2014 02:05:00 12.7 C 9.02 g/m*3 12.7 C 3.2 km/h
1412 03-06-2014 02:10:00 12.7 C 9.02 g/m*3 12.7 C 3.2 km/h
1413 03-06-2014 02:15:00 12.5 C 8.91 g/m*3 12.5 C 0 km/h
1414 03-06-2014 02:20:00 12.4 C 8.96 g/m*3 12.4 C 0 km/h
1415 03-06-2014 02:25:00 12.3 C 8.9 g/m*3 12.3 C 0 km/h
1416 03-06-2014 02:30:00 12.2 C 8.85 g/m*3 12.2 C 0 km/h
1417 03-06-2014 02:35:00 12.1 C 8.79 g/m*3 12.1 C 0 km/h
1418 03-06-2014 02:40:00 11.9 C 8.79 g/m*3 11.9 C 0 km/h
1419 03-06-2014 02:45:00 11.8 C 8.74 g/m*3 11.8 C 0 km/h
1420 03-06-2014 02:50:00 11.8 C 8.74 g/m*3 11.8 C 0 km/h
1421 03-06-2014 02:55:00 11.7 C 8.79 g/m*3 11.7 C 0 km/h
1422 03-06-2014 03:00:00 11.7 C 8.79 g/m*3 11.7 C 0 km/h
1423 03-06-2014 03:05:00 11.5 C 8.78 g/m*3 11.5 C 0 km/h
1424 03-06-2014 03:10:00 11.4 C 8.72 g/m*3 11.4 C 0 km/h
1425 03-06-2014 03:15:00 11.3 C 8.67 g/m*3 11.3 C 0 km/h
Sensor: Nr:Datum:Temp:Abs-Feuchte:Windchill:Wind:
Aussen-T/F 1426 03-06-2014 03:20:00 11.2 C 8.62 g/m*3 11.2 C 0 km/h
1427 03-06-2014 03:25:00 11.1 C 8.66 g/m*3 11.1 C 0 km/h
1428 03-06-2014 03:30:00 11.1 C 8.66 g/m*3 11.1 C 0 km/h
1429 03-06-2014 03:35:00 10.9 C 8.55 g/m*3 10.9 C 0 km/h
1430 03-06-2014 03:40:00 10.9 C 8.55 g/m*3 10.9 C 0 km/h
1431 03-06-2014 03:45:00 10.8 C 8.6 g/m*3 10.8 C 0 km/h
1432 03-06-2014 03:50:00 10.8 C 8.6 g/m*3 10.8 C 0 km/h
1433 03-06-2014 03:55:00 10.8 C 8.6 g/m*3 10.8 C 0 km/h
1434 03-06-2014 04:00:00 10.7 C 8.55 g/m*3 10.7 C 0 km/h
1435 03-06-2014 04:05:00 10.6 C 8.49 g/m*3 10.6 C 0 km/h
1436 03-06-2014 04:10:00 10.5 C 8.53 g/m*3 10.5 C 0 km/h
1437 03-06-2014 04:15:00 10.4 C 8.48 g/m*3 10.4 C 0 km/h
1438 03-06-2014 04:20:00 10.4 C 8.48 g/m*3 10.4 C 0 km/h
1439 03-06-2014 04:25:00 10.3 C 8.52 g/m*3 10.3 C 0 km/h
1440 03-06-2014 04:30:00 10.3 C 8.52 g/m*3 10.3 C 0 km/h
1441 03-06-2014 04:35:00 10.2 C 8.47 g/m*3 10.2 C 0 km/h
1442 03-06-2014 04:40:00 10.2 C 8.47 g/m*3 10.2 C 0 km/h
1443 03-06-2014 04:45:00 10.1 C 8.51 g/m*3 10.1 C 0 km/h
1444 03-06-2014 04:50:00 10.1 C 8.51 g/m*3 10.1 C 0 km/h
1445 03-06-2014 04:55:00 10 C 8.46 g/m*3 10 C 0 km/h
1446 03-06-2014 05:00:00 9.9 C 8.4 g/m*3 9.9 C 0 km/h
1447 03-06-2014 05:05:00 9.9 C 8.5 g/m*3 9.9 C 0 km/h
1448 03-06-2014 05:10:00 9.9 C 8.5 g/m*3 9.9 C 0 km/h
1449 03-06-2014 05:15:00 9.9 C 8.5 g/m*3 9.9 C 0 km/h
1450 03-06-2014 05:20:00 9.8 C 8.44 g/m*3 9.8 C 0 km/h
Sensor: Nr:Datum:Temp:Abs-Feuchte:Windchill:Wind:
Aussen-T/F 1451 03-06-2014 05:25:00 9.8 C 8.44 g/m*3 9.8 C 0 km/h
1452 03-06-2014 05:30:00 9.8 C 8.54 g/m*3 9.8 C 0 km/h
1453 03-06-2014 05:35:00 9.8 C 8.54 g/m*3 9.8 C 0 km/h
1454 03-06-2014 05:40:00 9.8 C 8.54 g/m*3 9.8 C 0 km/h
1455 03-06-2014 05:45:00 9.8 C 8.54 g/m*3 9.8 C 0 km/h
1456 03-06-2014 05:50:00 9.8 C 8.54 g/m*3 9.8 C 0 km/h
1457 03-06-2014 05:55:00 9.8 C 8.54 g/m*3 9.8 C 0 km/h
1458 03-06-2014 06:00:00 9.8 C 8.54 g/m*3 9.8 C 0 km/h
1459 03-06-2014 06:05:00 9.8 C 8.54 g/m*3 9.8 C 0 km/h
1460 03-06-2014 06:10:00 9.9 C 8.68 g/m*3 9.25 C 6.4 km/h
1461 03-06-2014 06:15:00 10 C 8.74 g/m*3 9.37 C 6.4 km/h
1462 03-06-2014 06:20:00 10.1 C 8.7 g/m*3 10.1 C 0 km/h
1463 03-06-2014 06:25:00 10.1 C 8.7 g/m*3 10.1 C 0 km/h
1464 03-06-2014 06:30:00 10.2 C 8.76 g/m*3 10.2 C 0 km/h
1465 03-06-2014 06:35:00 10.2 C 8.76 g/m*3 10.2 C 0 km/h
1466 03-06-2014 06:40:00 10.3 C 8.81 g/m*3 10.3 C 0 km/h
1467 03-06-2014 06:45:00 10.4 C 8.87 g/m*3 10.4 C 0 km/h
1468 03-06-2014 06:50:00 10.5 C 8.92 g/m*3 10.5 C 3.2 km/h
1469 03-06-2014 06:55:00 10.6 C 8.88 g/m*3 10.6 C 0 km/h
1470 03-06-2014 07:00:00 10.7 C 8.94 g/m*3 10.7 C 0 km/h
1471 03-06-2014 07:05:00 10.8 C 8.99 g/m*3 10.8 C 0 km/h
1472 03-06-2014 07:10:00 10.9 C 9.05 g/m*3 10.9 C 1.6 km/h
1473 03-06-2014 07:15:00 11 C 9.01 g/m*3 11 C 3.2 km/h
1474 03-06-2014 07:20:00 11.1 C 9.07 g/m*3 11.1 C 3.2 km/h
1475 03-06-2014 07:25:00 11.3 C 9.18 g/m*3 11.3 C 4.8 km/h
Sensor: Nr:Datum:Temp:Abs-Feuchte:Windchill:Wind:
Aussen-T/F 1476 03-06-2014 07:30:00 11.4 C 9.14 g/m*3 11.4 C 4.8 km/h
1477 03-06-2014 07:35:00 11.6 C 9.25 g/m*3 11.6 C 3.2 km/h
1478 03-06-2014 07:40:00 11.7 C 9.2 g/m*3 11.7 C 4.8 km/h
1479 03-06-2014 07:45:00 11.8 C 9.26 g/m*3 11.8 C 4.8 km/h
1480 03-06-2014 07:50:00 12.1 C 9.44 g/m*3 12.1 C 3.2 km/h
1481 03-06-2014 07:55:00 12.2 C 9.28 g/m*3 12.2 C 4.8 km/h
1482 03-06-2014 08:00:00 12.3 C 9.34 g/m*3 12.3 C 4.8 km/h
1483 03-06-2014 08:05:00 12.4 C 9.4 g/m*3 12.4 C 3.2 km/h
1484 03-06-2014 08:10:00 12.5 C 9.35 g/m*3 12.5 C 3.2 km/h
1485 03-06-2014 08:15:00 12.6 C 9.4 g/m*3 12.6 C 1.6 km/h
1486 03-06-2014 08:20:00 12.7 C 9.46 g/m*3 12.7 C 1.6 km/h
1487 03-06-2014 08:25:00 12.9 C 9.58 g/m*3 12.9 C 1.6 km/h
1488 03-06-2014 08:30:00 13.1 C 9.47 g/m*3 13.1 C 3.2 km/h
1489 03-06-2014 08:35:00 13.3 C 9.59 g/m*3 13.3 C 1.6 km/h
1490 03-06-2014 08:40:00 13.4 C 9.65 g/m*3 13.4 C 3.2 km/h
1491 03-06-2014 08:45:00 13.6 C 9.53 g/m*3 13.6 C 3.2 km/h
1492 03-06-2014 08:50:00 13.7 C 9.59 g/m*3 13.7 C 4.8 km/h
1493 03-06-2014 08:55:00 13.7 C 9.47 g/m*3 13.7 C 1.6 km/h
1494 03-06-2014 09:00:00 13.8 C 9.53 g/m*3 13.8 C 3.2 km/h
1495 03-06-2014 09:05:00 13.9 C 9.59 g/m*3 13.9 C 3.2 km/h
1496 03-06-2014 09:10:00 14.1 C 9.71 g/m*3 14.1 C 3.2 km/h
1497 03-06-2014 09:15:00 14.2 C 9.77 g/m*3 14.2 C 0 km/h
1498 03-06-2014 09:20:00 14.3 C 9.95 g/m*3 14.3 C 1.6 km/h
1499 03-06-2014 09:25:00 14.4 C 10.01 g/m*3 14.4 C 1.6 km/h
1500 03-06-2014 09:30:00 14.4 C 10.01 g/m*3 14.4 C 0 km/h
Sensor: Nr:Datum:Temp:Abs-Feuchte:Windchill:Wind:
Aussen-T/F 1501 03-06-2014 09:35:00 14.6 C 10.26 g/m*3 14.6 C 0 km/h
1502 03-06-2014 09:40:00 14.7 C 10.2 g/m*3 14.7 C 1.6 km/h
1503 03-06-2014 09:45:00 14.8 C 10.13 g/m*3 14.8 C 0 km/h
1504 03-06-2014 09:50:00 15.1 C 10.19 g/m*3 15.1 C 1.6 km/h
1505 03-06-2014 09:55:00 15.5 C 10.18 g/m*3 15.5 C 1.6 km/h
1506 03-06-2014 10:00:00 16 C 10.63 g/m*3 16 C 1.6 km/h
1507 03-06-2014 10:05:00 16.5 C 10.95 g/m*3 16.5 C 0 km/h
1508 03-06-2014 10:10:00 17.1 C 10.77 g/m*3 17.1 C 1.6 km/h
1509 03-06-2014 10:15:00 17.4 C 10.67 g/m*3 17.4 C 3.2 km/h
1510 03-06-2014 10:20:00 17.8 C 10.62 g/m*3 17.8 C 3.2 km/h
1511 03-06-2014 10:25:00 17.9 C 10.69 g/m*3 17.9 C 1.6 km/h
1512 03-06-2014 10:30:00 18.2 C 10.72 g/m*3 18.2 C 0 km/h
1513 03-06-2014 10:35:00 18.4 C 10.85 g/m*3 18.4 C 4.8 km/h
1514 03-06-2014 10:40:00 18.7 C 10.89 g/m*3 18.7 C 3.2 km/h
1515 03-06-2014 10:45:00 18.9 C 10.37 g/m*3 18.9 C 3.2 km/h
1516 03-06-2014 10:50:00 18.9 C 11.02 g/m*3 18.9 C 3.2 km/h
1517 03-06-2014 10:55:00 18.9 C 10.85 g/m*3 18.9 C 1.6 km/h
1518 03-06-2014 11:00:00 18.8 C 10.79 g/m*3 18.8 C 1.6 km/h
1519 03-06-2014 11:05:00 18.7 C 10.73 g/m*3 18.7 C 0 km/h
1520 03-06-2014 11:10:00 18.6 C 11.46 g/m*3 18.6 C 0 km/h
1521 03-06-2014 11:15:00 18.6 C 11.14 g/m*3 18.6 C 3.2 km/h
1522 03-06-2014 11:20:00 18.6 C 11.14 g/m*3 18.6 C 3.2 km/h
1523 03-06-2014 11:25:00 18.9 C 11.18 g/m*3 18.9 C 3.2 km/h
1524 03-06-2014 11:30:00 19.3 C 10.78 g/m*3 19.3 C 3.2 km/h
1525 03-06-2014 11:35:00 19.7 C 11.21 g/m*3 19.7 C 3.2 km/h
Sensor: Nr:Datum:Temp:Abs-Feuchte:Windchill:Wind:
Aussen-T/F 1526 03-06-2014 11:40:00 20.1 C 10.95 g/m*3 20.1 C 3.2 km/h
1527 03-06-2014 11:45:00 20.6 C 11.1 g/m*3 20.6 C 6.4 km/h
1528 03-06-2014 11:50:00 20.9 C 11.47 g/m*3 20.9 C 4.8 km/h
1529 03-06-2014 11:55:00 20.8 C 10.5 g/m*3 20.8 C 4.8 km/h
1530 03-06-2014 12:00:00 20.7 C 11.34 g/m*3 20.7 C 1.6 km/h
1531 03-06-2014 12:05:00 20.1 C 11.47 g/m*3 20.1 C 0 km/h
1532 03-06-2014 12:10:00 19.2 C 11.87 g/m*3 19.2 C 0 km/h
1533 03-06-2014 12:15:00 18.6 C 11.62 g/m*3 18.6 C 0 km/h
1534 03-06-2014 12:20:00 18 C 11.52 g/m*3 18 C 0 km/h
1535 03-06-2014 12:25:00 17.7 C 11.62 g/m*3 17.7 C 0 km/h
1536 03-06-2014 12:30:00 17.6 C 11.7 g/m*3 17.6 C 0 km/h
1537 03-06-2014 12:35:00 17.6 C 11.55 g/m*3 17.6 C 0 km/h
1538 03-06-2014 12:40:00 17.8 C 11.84 g/m*3 17.8 C 0 km/h
1539 03-06-2014 12:45:00 18.5 C 11.08 g/m*3 18.5 C 4.8 km/h
1540 03-06-2014 12:50:00 19.7 C 10.53 g/m*3 19.7 C 3.2 km/h
1541 03-06-2014 12:55:00 20.4 C 9.73 g/m*3 20.4 C 4.8 km/h
1542 03-06-2014 13:00:00 21.1 C 9.58 g/m*3 21.1 C 3.2 km/h
1543 03-06-2014 13:05:00 21.8 C 9.98 g/m*3 21.8 C 3.2 km/h
1544 03-06-2014 13:10:00 22.2 C 9.42 g/m*3 22.2 C 6.4 km/h
1545 03-06-2014 13:15:00 22.4 C 9.14 g/m*3 22.4 C 4.8 km/h
1546 03-06-2014 13:20:00 22.7 C 9.5 g/m*3 22.7 C 4.8 km/h
1547 03-06-2014 13:25:00 22.9 C 8.99 g/m*3 22.9 C 1.6 km/h
1548 03-06-2014 13:30:00 23.1 C 8.27 g/m*3 23.1 C 6.4 km/h
1549 03-06-2014 13:35:00 23.3 C 8.36 g/m*3 23.3 C 8.1 km/h
1550 03-06-2014 13:40:00 23 C 8.22 g/m*3 23 C 4.8 km/h
Sensor: Nr:Datum:Temp:Abs-Feuchte:Windchill:Wind:
Aussen-T/F 1551 03-06-2014 13:45:00 23.1 C 8.27 g/m*3 23.1 C 4.8 km/h
1552 03-06-2014 13:50:00 23.3 C 8.36 g/m*3 23.3 C 8.1 km/h
1553 03-06-2014 13:55:00 23.3 C 8.36 g/m*3 23.3 C 6.4 km/h
1554 03-06-2014 14:20:00 21.7 C 10.68 g/m*3 21.7 C 1.6 km/h
1555 03-06-2014 14:25:00 21 C 10.62 g/m*3 21 C 4.8 km/h
1556 03-06-2014 14:30:00 20.9 C 11.11 g/m*3 20.9 C 1.6 km/h
1557 03-06-2014 14:35:00 20.8 C 10.5 g/m*3 20.8 C 1.6 km/h
1558 03-06-2014 14:40:00 20.8 C 9.6 g/m*3 20.8 C 14.5 km/h
1559 03-06-2014 14:45:00 20.7 C 9.72 g/m*3 20.7 C 14.5 km/h
1560 03-06-2014 14:50:00 20.6 C 9.84 g/m*3 20.6 C 6.4 km/h
1561 03-06-2014 14:55:00 20.4 C 9.91 g/m*3 20.4 C 4.8 km/h
1562 03-06-2014 15:00:00 20.2 C 9.79 g/m*3 20.2 C 6.4 km/h
1563 03-06-2014 15:05:00 19.9 C 9.97 g/m*3 19.9 C 9.7 km/h
1564 03-06-2014 15:10:00 19.7 C 9.85 g/m*3 19.7 C 8.1 km/h
1565 03-06-2014 15:15:00 19.6 C 9.79 g/m*3 19.6 C 6.4 km/h
1566 03-06-2014 15:20:00 19.6 C 9.79 g/m*3 19.6 C 8.1 km/h
1567 03-06-2014 15:25:00 19.7 C 9.85 g/m*3 19.7 C 11.3 km/h
1568 03-06-2014 15:30:00 19.8 C 9.57 g/m*3 19.8 C 6.4 km/h
1569 03-06-2014 15:35:00 19.9 C 9.45 g/m*3 19.9 C 3.2 km/h
1570 03-06-2014 15:40:00 20.1 C 9.73 g/m*3 20.1 C 6.4 km/h
1571 03-06-2014 15:45:00 20.3 C 10.02 g/m*3 20.3 C 8.1 km/h
1572 03-06-2014 15:50:00 20.5 C 9.25 g/m*3 20.5 C 9.7 km/h
1573 03-06-2014 15:55:00 20.3 C 9.32 g/m*3 20.3 C 8.1 km/h
1574 03-06-2014 16:00:00 20.3 C 9.32 g/m*3 20.3 C 3.2 km/h
1575 03-06-2014 16:05:00 20.3 C 9.32 g/m*3 20.3 C 1.6 km/h
Sensor: Nr:Datum:Temp:Abs-Feuchte:Windchill:Wind:
Aussen-T/F 1576 03-06-2014 16:10:00 20.4 C 9.73 g/m*3 20.4 C 8.1 km/h
1577 03-06-2014 16:15:00 20.4 C 10.08 g/m*3 20.4 C 3.2 km/h
1578 03-06-2014 16:20:00 20.4 C 9.91 g/m*3 20.4 C 0 km/h
1579 03-06-2014 16:25:00 20.3 C 10.55 g/m*3 20.3 C 0 km/h
1580 03-06-2014 16:30:00 20.1 C 11.65 g/m*3 20.1 C 0 km/h
1581 03-06-2014 16:35:00 19.7 C 11.72 g/m*3 19.7 C 0 km/h
1582 03-06-2014 16:40:00 19.4 C 11.51 g/m*3 19.4 C 0 km/h
1583 03-06-2014 16:45:00 19.2 C 11.71 g/m*3 19.2 C 0 km/h
1584 03-06-2014 16:50:00 19 C 11.41 g/m*3 19 C 0 km/h
1585 03-06-2014 16:55:00 18.8 C 11.6 g/m*3 18.8 C 0 km/h
1586 03-06-2014 17:00:00 18.8 C 11.6 g/m*3 18.8 C 0 km/h
1587 03-06-2014 17:05:00 18.8 C 11.43 g/m*3 18.8 C 0 km/h
1588 03-06-2014 17:10:00 18.9 C 11.66 g/m*3 18.9 C 0 km/h
1589 03-06-2014 17:15:00 18.9 C 11.83 g/m*3 18.9 C 0 km/h
1590 03-06-2014 17:20:00 18.9 C 11.99 g/m*3 18.9 C 0 km/h
1591 03-06-2014 17:25:00 18.9 C 11.99 g/m*3 18.9 C 0 km/h
1592 03-06-2014 17:30:00 18.8 C 11.92 g/m*3 18.8 C 0 km/h
1593 03-06-2014 17:35:00 18.8 C 12.08 g/m*3 18.8 C 0 km/h
1594 03-06-2014 17:40:00 18.9 C 11.99 g/m*3 18.9 C 0 km/h
1595 03-06-2014 17:45:00 19.1 C 10.82 g/m*3 19.1 C 0 km/h
1596 03-06-2014 17:50:00 19.4 C 11.68 g/m*3 19.4 C 1.6 km/h
1597 03-06-2014 17:55:00 19.8 C 11.44 g/m*3 19.8 C 1.6 km/h
1598 03-06-2014 18:00:00 20.1 C 10.95 g/m*3 20.1 C 3.2 km/h
1599 03-06-2014 18:05:00 20.1 C 10.08 g/m*3 20.1 C 6.4 km/h
1600 03-06-2014 18:10:00 20.2 C 10.14 g/m*3 20.2 C 4.8 km/h
Sensor: Nr:Datum:Temp:Abs-Feuchte:Windchill:Wind:
Aussen-T/F 1601 03-06-2014 18:15:00 20.3 C 10.2 g/m*3 20.3 C 3.2 km/h
1602 03-06-2014 18:20:00 20.4 C 11.85 g/m*3 20.4 C 1.6 km/h
1603 03-06-2014 18:25:00 20.4 C 12.21 g/m*3 20.4 C 0 km/h
1604 03-06-2014 18:30:00 20.3 C 12.31 g/m*3 20.3 C 1.6 km/h
1605 03-06-2014 18:35:00 20.4 C 9.91 g/m*3 20.4 C 4.8 km/h
1606 03-06-2014 18:40:00 20.9 C 9.83 g/m*3 20.9 C 4.8 km/h
1607 03-06-2014 18:45:00 21.4 C 9.75 g/m*3 21.4 C 4.8 km/h
1608 03-06-2014 18:50:00 21.7 C 9.73 g/m*3 21.7 C 1.6 km/h
1609 03-06-2014 18:55:00 21.5 C 11.5 g/m*3 21.5 C 0 km/h
1610 03-06-2014 19:00:00 21.2 C 11.68 g/m*3 21.2 C 0 km/h
1611 03-06-2014 19:05:00 20.9 C 11.47 g/m*3 20.9 C 0 km/h
1612 03-06-2014 19:10:00 20.5 C 11.57 g/m*3 20.5 C 0 km/h
1613 03-06-2014 19:15:00 20.1 C 11.99 g/m*3 20.1 C 0 km/h
1614 03-06-2014 19:20:00 19.8 C 11.61 g/m*3 19.8 C 1.6 km/h
1615 03-06-2014 19:25:00 19.6 C 11.48 g/m*3 19.6 C 1.6 km/h
1616 03-06-2014 19:30:00 19.3 C 11.78 g/m*3 19.3 C 0 km/h
1617 03-06-2014 19:35:00 18.9 C 11.66 g/m*3 18.9 C 0 km/h
1618 03-06-2014 19:40:00 18.4 C 11.48 g/m*3 18.4 C 0 km/h
1619 03-06-2014 19:45:00 18.1 C 11.59 g/m*3 18.1 C 0 km/h
1620 03-06-2014 19:50:00 17.8 C 11.38 g/m*3 17.8 C 0 km/h
1621 03-06-2014 19:55:00 17.6 C 11.4 g/m*3 17.6 C 1.6 km/h
1622 03-06-2014 20:00:00 17.5 C 11.33 g/m*3 17.5 C 1.6 km/h
1623 03-06-2014 20:05:00 17.3 C 11.2 g/m*3 17.3 C 0 km/h
1624 03-06-2014 20:10:00 17.2 C 11.28 g/m*3 17.2 C 1.6 km/h
1625 03-06-2014 20:15:00 17.2 C 11.13 g/m*3 17.2 C 0 km/h
Sensor: Nr:Datum:Temp:Abs-Feuchte:Windchill:Wind:
Aussen-T/F 1626 03-06-2014 20:20:00 17.1 C 11.21 g/m*3 17.1 C 0 km/h
1627 03-06-2014 20:25:00 16.9 C 11.22 g/m*3 16.9 C 0 km/h
1628 03-06-2014 20:30:00 16.9 C 11.08 g/m*3 16.9 C 0 km/h
1629 03-06-2014 20:35:00 16.8 C 11.01 g/m*3 16.8 C 0 km/h
1630 03-06-2014 20:40:00 16.8 C 11.01 g/m*3 16.8 C 1.6 km/h
1631 03-06-2014 20:45:00 16.8 C 11.01 g/m*3 16.8 C 0 km/h
1632 03-06-2014 20:50:00 16.9 C 11.22 g/m*3 16.9 C 0 km/h
1633 03-06-2014 20:55:00 16.9 C 11.22 g/m*3 16.9 C 0 km/h
1634 03-06-2014 21:00:00 16.8 C 11.29 g/m*3 16.8 C 0 km/h
1635 03-06-2014 21:05:00 16.8 C 11.29 g/m*3 16.8 C 0 km/h
1636 03-06-2014 21:10:00 16.7 C 11.23 g/m*3 16.7 C 1.6 km/h
1637 03-06-2014 21:15:00 16.5 C 11.09 g/m*3 16.5 C 0 km/h
1638 03-06-2014 21:20:00 16.4 C 10.89 g/m*3 16.4 C 1.6 km/h
1639 03-06-2014 21:25:00 16.2 C 10.76 g/m*3 16.2 C 0 km/h
1640 03-06-2014 21:30:00 16.1 C 10.69 g/m*3 16.1 C 0 km/h
1641 03-06-2014 21:35:00 15.9 C 10.56 g/m*3 15.9 C 0 km/h
1642 03-06-2014 21:40:00 15.8 C 10.36 g/m*3 15.8 C 0 km/h
1643 03-06-2014 21:45:00 15.7 C 10.3 g/m*3 15.7 C 0 km/h
1644 03-06-2014 21:50:00 15.6 C 10.24 g/m*3 15.6 C 0 km/h
1645 03-06-2014 21:55:00 15.4 C 10.12 g/m*3 15.4 C 0 km/h
1646 03-06-2014 22:00:00 15.3 C 10.06 g/m*3 15.3 C 0 km/h
1647 03-06-2014 22:05:00 15.2 C 10.12 g/m*3 15.2 C 0 km/h
1648 03-06-2014 22:10:00 15.1 C 10.06 g/m*3 15.1 C 0 km/h
1649 03-06-2014 22:15:00 14.9 C 9.94 g/m*3 14.9 C 0 km/h
1650 03-06-2014 22:20:00 14.8 C 10.01 g/m*3 14.8 C 0 km/h
Sensor: Nr:Datum:Temp:Abs-Feuchte:Windchill:Wind:
Aussen-T/F 1651 03-06-2014 22:25:00 14.7 C 9.95 g/m*3 14.7 C 0 km/h
1652 03-06-2014 22:30:00 14.6 C 9.89 g/m*3 14.6 C 0 km/h
1653 03-06-2014 22:35:00 14.4 C 9.77 g/m*3 14.4 C 0 km/h
1654 03-06-2014 22:40:00 14.3 C 9.83 g/m*3 14.3 C 0 km/h
1655 03-06-2014 22:45:00 14.2 C 9.89 g/m*3 14.2 C 0 km/h
1656 03-06-2014 22:50:00 14.2 C 9.89 g/m*3 14.2 C 0 km/h
1657 03-06-2014 22:55:00 14.1 C 9.83 g/m*3 14.1 C 0 km/h
1658 03-06-2014 23:00:00 14 C 9.77 g/m*3 14 C 1.6 km/h
1659 03-06-2014 23:05:00 13.9 C 9.71 g/m*3 13.9 C 0 km/h
1660 03-06-2014 23:10:00 13.9 C 9.83 g/m*3 13.9 C 0 km/h
1661 03-06-2014 23:15:00 13.8 C 9.77 g/m*3 13.8 C 0 km/h
1662 03-06-2014 23:20:00 13.7 C 9.71 g/m*3 13.7 C 0 km/h
1663 03-06-2014 23:25:00 13.6 C 9.77 g/m*3 13.6 C 0 km/h
1664 03-06-2014 23:30:00 13.6 C 9.77 g/m*3 13.6 C 0 km/h
1665 03-06-2014 23:35:00 13.4 C 9.65 g/m*3 13.4 C 0 km/h
1666 03-06-2014 23:40:00 13.4 C 9.88 g/m*3 13.4 C 0 km/h
1667 03-06-2014 23:45:00 13.5 C 9.83 g/m*3 13.5 C 6.4 km/h
1668 03-06-2014 23:50:00 13.4 C 9.76 g/m*3 13.4 C 0 km/h
1669 03-06-2014 23:55:00 13.4 C 9.76 g/m*3 13.4 C 0 km/h
1670 04-06-2014 00:00:00 13.2 C 9.76 g/m*3 13.2 C 0 km/h
1671 04-06-2014 00:05:00 13.2 C 9.76 g/m*3 13.2 C 0 km/h
1672 04-06-2014 00:10:00 13.1 C 9.81 g/m*3 13.1 C 1.6 km/h
1673 04-06-2014 00:15:00 13.1 C 9.81 g/m*3 13.1 C 0 km/h
1674 04-06-2014 00:20:00 13 C 9.75 g/m*3 13 C 0 km/h
1675 04-06-2014 00:25:00 13 C 9.75 g/m*3 13 C 0 km/h
Sensor: Nr:Datum:Temp:Abs-Feuchte:Windchill:Wind:
Aussen-T/F 1676 04-06-2014 00:30:00 12.9 C 9.81 g/m*3 12.9 C 0 km/h
1677 04-06-2014 00:35:00 12.9 C 9.69 g/m*3 12.9 C 0 km/h
1678 04-06-2014 00:40:00 12.8 C 9.74 g/m*3 12.8 C 0 km/h
1679 04-06-2014 00:45:00 12.8 C 9.74 g/m*3 12.8 C 0 km/h
1680 04-06-2014 00:50:00 12.8 C 9.74 g/m*3 12.8 C 0 km/h
1681 04-06-2014 00:55:00 12.8 C 9.74 g/m*3 12.8 C 0 km/h
1682 04-06-2014 01:00:00 12.7 C 9.68 g/m*3 12.7 C 0 km/h
1683 04-06-2014 01:05:00 12.7 C 9.68 g/m*3 12.7 C 0 km/h
1684 04-06-2014 01:10:00 12.5 C 9.68 g/m*3 12.5 C 0 km/h
1685 04-06-2014 01:15:00 12.4 C 9.62 g/m*3 12.4 C 0 km/h
1686 04-06-2014 01:20:00 12.3 C 9.56 g/m*3 12.3 C 0 km/h
1687 04-06-2014 01:25:00 12.3 C 9.66 g/m*3 12.3 C 0 km/h
1688 04-06-2014 01:30:00 12.2 C 9.5 g/m*3 12.2 C 0 km/h
1689 04-06-2014 01:35:00 12.1 C 9.54 g/m*3 12.1 C 0 km/h
1690 04-06-2014 01:40:00 11.9 C 9.43 g/m*3 11.9 C 0 km/h
1691 04-06-2014 01:45:00 11.9 C 9.43 g/m*3 11.9 C 0 km/h
1692 04-06-2014 01:50:00 11.9 C 9.43 g/m*3 11.9 C 0 km/h
1693 04-06-2014 01:55:00 11.9 C 9.43 g/m*3 11.9 C 0 km/h
1694 04-06-2014 02:00:00 11.8 C 9.47 g/m*3 11.8 C 1.6 km/h
1695 04-06-2014 02:05:00 11.8 C 9.47 g/m*3 11.8 C 1.6 km/h
1696 04-06-2014 02:10:00 11.8 C 9.47 g/m*3 11.8 C 0 km/h
1697 04-06-2014 02:15:00 11.8 C 9.47 g/m*3 11.8 C 0 km/h
1698 04-06-2014 02:20:00 11.7 C 9.52 g/m*3 11.7 C 0 km/h
1699 04-06-2014 02:25:00 11.7 C 9.52 g/m*3 11.7 C 0 km/h
1700 04-06-2014 02:30:00 11.6 C 9.46 g/m*3 11.6 C 0 km/h
Sensor: Nr:Datum:Temp:Abs-Feuchte:Windchill:Wind:
Aussen-T/F 1701 04-06-2014 02:35:00 11.5 C 9.4 g/m*3 11.5 C 0 km/h
1702 04-06-2014 02:40:00 11.4 C 9.34 g/m*3 11.4 C 0 km/h
1703 04-06-2014 02:45:00 11.4 C 9.34 g/m*3 11.4 C 0 km/h
1704 04-06-2014 02:50:00 11.3 C 9.38 g/m*3 11.3 C 0 km/h
1705 04-06-2014 02:55:00 11.3 C 9.38 g/m*3 11.3 C 0 km/h
1706 04-06-2014 03:00:00 11.3 C 9.38 g/m*3 11.3 C 0 km/h
1707 04-06-2014 03:05:00 11.3 C 9.38 g/m*3 11.3 C 0 km/h
1708 04-06-2014 03:10:00 11.2 C 9.33 g/m*3 11.2 C 0 km/h
1709 04-06-2014 03:15:00 11.1 C 9.27 g/m*3 11.1 C 0 km/h
1710 04-06-2014 03:20:00 11.1 C 9.27 g/m*3 11.1 C 0 km/h
1711 04-06-2014 03:25:00 11 C 9.31 g/m*3 11 C 0 km/h
1712 04-06-2014 03:30:00 10.9 C 9.25 g/m*3 10.9 C 0 km/h
1713 04-06-2014 03:35:00 10.9 C 9.25 g/m*3 10.9 C 0 km/h
1714 04-06-2014 03:40:00 10.8 C 9.19 g/m*3 10.8 C 0 km/h
1715 04-06-2014 03:45:00 10.8 C 9.19 g/m*3 10.8 C 0 km/h
1716 04-06-2014 03:50:00 10.8 C 9.19 g/m*3 10.8 C 0 km/h
1717 04-06-2014 03:55:00 10.8 C 9.19 g/m*3 10.8 C 0 km/h
1718 04-06-2014 04:00:00 10.8 C 9.19 g/m*3 10.8 C 0 km/h
1719 04-06-2014 04:05:00 10.8 C 9.29 g/m*3 10.8 C 0 km/h
1720 04-06-2014 04:10:00 10.8 C 9.29 g/m*3 10.8 C 1.6 km/h
1721 04-06-2014 04:15:00 10.7 C 9.23 g/m*3 10.7 C 1.6 km/h
1722 04-06-2014 04:20:00 10.7 C 9.23 g/m*3 10.7 C 0 km/h
1723 04-06-2014 04:25:00 10.7 C 9.23 g/m*3 10.7 C 0 km/h
1724 04-06-2014 04:30:00 10.6 C 9.17 g/m*3 10.6 C 0 km/h
1725 04-06-2014 04:35:00 10.5 C 9.12 g/m*3 10.5 C 0 km/h
Sensor: Nr:Datum:Temp:Abs-Feuchte:Windchill:Wind:
Aussen-T/F 1726 04-06-2014 04:40:00 10.5 C 9.12 g/m*3 10.5 C 0 km/h
1727 04-06-2014 04:45:00 10.6 C 9.17 g/m*3 10.6 C 1.6 km/h
1728 04-06-2014 04:50:00 10.6 C 9.17 g/m*3 10.6 C 0 km/h
1729 04-06-2014 04:55:00 10.6 C 9.17 g/m*3 10.6 C 0 km/h
1730 04-06-2014 05:00:00 10.7 C 9.23 g/m*3 10.7 C 0 km/h
1731 04-06-2014 05:05:00 10.7 C 9.23 g/m*3 10.7 C 0 km/h
1732 04-06-2014 05:10:00 10.8 C 9.39 g/m*3 10.8 C 0 km/h
1733 04-06-2014 05:15:00 10.8 C 9.39 g/m*3 10.8 C 0 km/h
1734 04-06-2014 05:20:00 10.9 C 9.45 g/m*3 10.9 C 0 km/h
1735 04-06-2014 05:25:00 10.9 C 9.35 g/m*3 10.9 C 0 km/h
1736 04-06-2014 05:30:00 10.9 C 9.35 g/m*3 10.9 C 0 km/h
1737 04-06-2014 05:35:00 10.9 C 9.35 g/m*3 10.9 C 0 km/h
1738 04-06-2014 05:40:00 10.9 C 9.35 g/m*3 10.9 C 0 km/h
1739 04-06-2014 05:45:00 10.9 C 9.35 g/m*3 10.9 C 0 km/h
1740 04-06-2014 05:50:00 10.9 C 9.35 g/m*3 10.9 C 0 km/h
1741 04-06-2014 05:55:00 10.9 C 9.35 g/m*3 10.9 C 0 km/h
1742 04-06-2014 06:00:00 10.9 C 9.35 g/m*3 10.9 C 0 km/h
1743 04-06-2014 06:05:00 11.1 C 9.47 g/m*3 11.1 C 0 km/h
1744 04-06-2014 06:10:00 11.2 C 9.53 g/m*3 11.2 C 1.6 km/h
1745 04-06-2014 06:15:00 11.3 C 9.59 g/m*3 11.3 C 0 km/h
1746 04-06-2014 06:20:00 11.4 C 9.65 g/m*3 11.4 C 1.6 km/h
1747 04-06-2014 06:25:00 11.6 C 9.67 g/m*3 11.6 C 0 km/h
1748 04-06-2014 06:30:00 11.7 C 9.73 g/m*3 11.7 C 0 km/h
1749 04-06-2014 06:35:00 11.8 C 9.79 g/m*3 11.8 C 0 km/h
1750 04-06-2014 06:40:00 11.9 C 9.74 g/m*3 11.9 C 1.6 km/h
Sensor: Nr:Datum:Temp:Abs-Feuchte:Windchill:Wind:
Aussen-T/F 1751 04-06-2014 06:45:00 12.1 C 9.87 g/m*3 12.1 C 0 km/h
1752 04-06-2014 06:50:00 12.1 C 9.76 g/m*3 12.1 C 0 km/h
1753 04-06-2014 06:55:00 12.2 C 9.82 g/m*3 12.2 C 0 km/h
1754 04-06-2014 07:00:00 12.3 C 9.77 g/m*3 12.3 C 0 km/h
1755 04-06-2014 07:05:00 12.4 C 9.83 g/m*3 12.4 C 0 km/h
1756 04-06-2014 07:10:00 12.5 C 9.89 g/m*3 12.5 C 0 km/h
1757 04-06-2014 07:15:00 12.6 C 9.85 g/m*3 12.6 C 0 km/h
1758 04-06-2014 07:20:00 12.7 C 9.91 g/m*3 12.7 C 0 km/h
1759 04-06-2014 07:25:00 12.8 C 10.08 g/m*3 12.8 C 1.6 km/h
1760 04-06-2014 07:30:00 12.9 C 10.03 g/m*3 12.9 C 0 km/h
1761 04-06-2014 07:35:00 13.1 C 10.16 g/m*3 13.1 C 0 km/h
1762 04-06-2014 07:40:00 13.3 C 10.17 g/m*3 13.3 C 0 km/h
1763 04-06-2014 07:45:00 13.4 C 10.23 g/m*3 13.4 C 0 km/h
1764 04-06-2014 07:50:00 13.6 C 10.36 g/m*3 13.6 C 0 km/h
1765 04-06-2014 07:55:00 13.7 C 10.3 g/m*3 13.7 C 0 km/h
1766 04-06-2014 08:00:00 13.8 C 10.37 g/m*3 13.8 C 0 km/h
1767 04-06-2014 08:05:00 14 C 10.49 g/m*3 14 C 0 km/h
1768 04-06-2014 08:10:00 14.4 C 10.75 g/m*3 14.4 C 0 km/h
1769 04-06-2014 08:15:00 14.8 C 10.77 g/m*3 14.8 C 1.6 km/h
1770 04-06-2014 08:20:00 15.3 C 10.97 g/m*3 15.3 C 1.6 km/h
1771 04-06-2014 08:25:00 15.7 C 11.11 g/m*3 15.7 C 1.6 km/h
1772 04-06-2014 08:30:00 15.9 C 11.1 g/m*3 15.9 C 1.6 km/h
1773 04-06-2014 08:35:00 16.2 C 11.17 g/m*3 16.2 C 1.6 km/h
1774 04-06-2014 08:40:00 16.4 C 11.17 g/m*3 16.4 C 1.6 km/h
1775 04-06-2014 08:45:00 16.8 C 11.58 g/m*3 16.8 C 1.6 km/h
Sensor: Nr:Datum:Temp:Abs-Feuchte:Windchill:Wind:
Aussen-T/F 1776 04-06-2014 08:50:00 17.1 C 11.21 g/m*3 17.1 C 6.4 km/h
1777 04-06-2014 08:55:00 17.4 C 11.12 g/m*3 17.4 C 4.8 km/h
1778 04-06-2014 09:00:00 17.5 C 11.18 g/m*3 17.5 C 3.2 km/h
1779 04-06-2014 09:05:00 17.6 C 11.1 g/m*3 17.6 C 1.6 km/h
1780 04-06-2014 09:10:00 17.7 C 10.86 g/m*3 17.7 C 9.7 km/h
1781 04-06-2014 09:15:00 17.8 C 11.08 g/m*3 17.8 C 3.2 km/h
1782 04-06-2014 09:20:00 17.8 C 11.08 g/m*3 17.8 C 4.8 km/h
1783 04-06-2014 09:25:00 17.8 C 10.93 g/m*3 17.8 C 3.2 km/h
1784 04-06-2014 09:30:00 17.9 C 11.15 g/m*3 17.9 C 8.1 km/h
1785 04-06-2014 09:35:00 18.1 C 11.43 g/m*3 18.1 C 4.8 km/h
1786 04-06-2014 09:40:00 18.3 C 11.26 g/m*3 18.3 C 4.8 km/h
1787 04-06-2014 09:45:00 18.3 C 11.1 g/m*3 18.3 C 14.5 km/h
1788 04-06-2014 09:50:00 18.3 C 11.1 g/m*3 18.3 C 12.9 km/h
1789 04-06-2014 09:55:00 18.3 C 11.1 g/m*3 18.3 C 4.8 km/h
1790 04-06-2014 11:40:00 20.4 C 12.21 g/m*3 20.4 C 6.4 km/h
1791 04-06-2014 11:45:00 20.6 C 12.17 g/m*3 20.6 C 3.2 km/h
1792 04-06-2014 11:50:00 20.8 C 11.77 g/m*3 20.8 C 3.2 km/h
1793 04-06-2014 11:55:00 20.9 C 11.84 g/m*3 20.9 C 3.2 km/h
1794 04-06-2014 12:00:00 21 C 11.54 g/m*3 21 C 8.1 km/h
1795 04-06-2014 12:05:00 20.9 C 11.47 g/m*3 20.9 C 3.2 km/h
1796 04-06-2014 12:10:00 20.9 C 11.84 g/m*3 20.9 C 3.2 km/h
1797 04-06-2014 12:15:00 20.8 C 11.59 g/m*3 20.8 C 3.2 km/h
1798 04-06-2014 12:20:00 20.6 C 12.35 g/m*3 20.6 C 1.6 km/h
1799 04-06-2014 12:25:00 20.3 C 11.61 g/m*3 20.3 C 3.2 km/h
1800 04-06-2014 12:30:00 20.1 C 12.34 g/m*3 20.1 C 0 km/h
Sensor: Nr:Datum:Temp:Abs-Feuchte:Windchill:Wind:
Aussen-T/F 1801 04-06-2014 12:35:00 19.8 C 11.27 g/m*3 19.8 C 3.2 km/h
1802 04-06-2014 12:40:00 19.7 C 11.04 g/m*3 19.7 C 6.4 km/h
1803 04-06-2014 12:45:00 19.5 C 10.91 g/m*3 19.5 C 11.3 km/h
1804 04-06-2014 12:50:00 19.3 C 10.78 g/m*3 19.3 C 9.7 km/h
1805 04-06-2014 12:55:00 19.1 C 10.66 g/m*3 19.1 C 14.5 km/h
1806 04-06-2014 13:00:00 18.8 C 10.79 g/m*3 18.8 C 19.3 km/h
1807 04-06-2014 13:05:00 18.4 C 10.85 g/m*3 18.4 C 14.5 km/h
1808 04-06-2014 13:10:00 18.2 C 11.19 g/m*3 18.2 C 11.3 km/h
1809 04-06-2014 13:15:00 17.9 C 11.15 g/m*3 17.9 C 8.1 km/h
1810 04-06-2014 13:20:00 17.8 C 10.93 g/m*3 17.8 C 4.8 km/h
1811 04-06-2014 13:25:00 17.9 C 11.15 g/m*3 17.9 C 6.4 km/h
1812 04-06-2014 13:30:00 18 C 11.21 g/m*3 18 C 9.7 km/h
1813 04-06-2014 13:35:00 17.9 C 11.3 g/m*3 17.9 C 12.9 km/h
1814 04-06-2014 13:40:00 17.8 C 11.23 g/m*3 17.8 C 8.1 km/h
1815 04-06-2014 13:45:00 17.7 C 11.47 g/m*3 17.7 C 9.7 km/h
1816 04-06-2014 13:50:00 17.7 C 12.07 g/m*3 17.7 C 8.1 km/h
1817 04-06-2014 13:55:00 17.6 C 12 g/m*3 17.6 C 3.2 km/h
1818 04-06-2014 14:00:00 17.5 C 11.63 g/m*3 17.5 C 4.8 km/h
1819 04-06-2014 14:05:00 17.4 C 11.71 g/m*3 17.4 C 6.4 km/h
1820 04-06-2014 14:10:00 17.3 C 11.93 g/m*3 17.3 C 6.4 km/h
1821 04-06-2014 14:15:00 17.2 C 12.01 g/m*3 17.2 C 0 km/h
1822 04-06-2014 14:20:00 17.1 C 11.94 g/m*3 17.1 C 0 km/h
1823 04-06-2014 14:25:00 16.9 C 11.94 g/m*3 16.9 C 0 km/h
1824 04-06-2014 14:30:00 16.7 C 11.94 g/m*3 16.7 C 0 km/h
1825 04-06-2014 14:35:00 16.5 C 12.08 g/m*3 16.5 C 0 km/h
Sensor: Nr:Datum:Temp:Abs-Feuchte:Windchill:Wind:
Aussen-T/F 1826 04-06-2014 14:40:00 16.4 C 12.14 g/m*3 16.4 C 0 km/h
1827 04-06-2014 14:45:00 16.5 C 12.36 g/m*3 16.5 C 0 km/h
1828 04-06-2014 14:50:00 16.8 C 12.87 g/m*3 16.8 C 0 km/h
1829 04-06-2014 14:55:00 17.1 C 13.1 g/m*3 17.1 C 3.2 km/h
1830 04-06-2014 15:00:00 17.4 C 13.19 g/m*3 17.4 C 4.8 km/h
1831 04-06-2014 15:05:00 17.6 C 12.9 g/m*3 17.6 C 3.2 km/h
1832 04-06-2014 15:10:00 17.8 C 12.9 g/m*3 17.8 C 4.8 km/h
1833 04-06-2014 15:15:00 17.9 C 12.83 g/m*3 17.9 C 1.6 km/h
1834 04-06-2014 15:20:00 17.8 C 12.9 g/m*3 17.8 C 0 km/h
1835 04-06-2014 15:25:00 17.6 C 13.05 g/m*3 17.6 C 0 km/h
1836 04-06-2014 15:30:00 17.2 C 12.89 g/m*3 17.2 C 0 km/h
1837 04-06-2014 15:35:00 17.1 C 13.1 g/m*3 17.1 C 0 km/h
1838 04-06-2014 15:40:00 17.2 C 13.33 g/m*3 17.2 C 0 km/h
1839 04-06-2014 15:45:00 17.2 C 13.18 g/m*3 17.2 C 4.8 km/h
1840 04-06-2014 15:50:00 17.2 C 13.18 g/m*3 17.2 C 3.2 km/h
1841 04-06-2014 15:55:00 17.3 C 13.26 g/m*3 17.3 C 0 km/h
1842 04-06-2014 16:00:00 17.4 C 13.34 g/m*3 17.4 C 0 km/h
1843 04-06-2014 16:05:00 17.5 C 13.42 g/m*3 17.5 C 0 km/h
1844 04-06-2014 16:10:00 17.4 C 13.34 g/m*3 17.4 C 0 km/h
1845 04-06-2014 16:15:00 17.4 C 13.34 g/m*3 17.4 C 0 km/h
1846 04-06-2014 16:20:00 17.4 C 13.49 g/m*3 17.4 C 0 km/h
1847 04-06-2014 16:25:00 17.3 C 13.41 g/m*3 17.3 C 0 km/h
1848 04-06-2014 16:30:00 17.2 C 13.33 g/m*3 17.2 C 0 km/h
1849 04-06-2014 16:35:00 17.1 C 13.39 g/m*3 17.1 C 0 km/h
1850 04-06-2014 16:40:00 16.7 C 13.07 g/m*3 16.7 C 0 km/h
Sensor: Nr:Datum:Temp:Abs-Feuchte:Windchill:Wind:
Aussen-T/F 1851 04-06-2014 16:45:00 16.6 C 13.14 g/m*3 16.6 C 0 km/h
1852 04-06-2014 16:50:00 16.5 C 13.06 g/m*3 16.5 C 1.6 km/h
1853 04-06-2014 16:55:00 16.6 C 13.28 g/m*3 16.6 C 0 km/h
1854 04-06-2014 17:00:00 16.4 C 12.98 g/m*3 16.4 C 0 km/h
1855 04-06-2014 17:05:00 16.6 C 13.28 g/m*3 16.6 C 0 km/h
1856 04-06-2014 17:10:00 16.6 C 13.28 g/m*3 16.6 C 0 km/h
1857 04-06-2014 17:15:00 16.7 C 13.36 g/m*3 16.7 C 0 km/h
1858 04-06-2014 17:20:00 16.8 C 13.58 g/m*3 16.8 C 0 km/h
1859 04-06-2014 17:25:00 16.8 C 13.58 g/m*3 16.8 C 0 km/h
1860 04-06-2014 17:30:00 16.8 C 13.58 g/m*3 16.8 C 0 km/h
1861 04-06-2014 17:35:00 16.8 C 13.58 g/m*3 16.8 C 4.8 km/h
1862 04-06-2014 17:40:00 16.8 C 13.58 g/m*3 16.8 C 0 km/h
1863 04-06-2014 17:45:00 16.5 C 13.06 g/m*3 16.5 C 3.2 km/h
1864 04-06-2014 17:50:00 16.3 C 12.9 g/m*3 16.3 C 1.6 km/h
1865 04-06-2014 17:55:00 16.2 C 12.82 g/m*3 16.2 C 0 km/h
1866 04-06-2014 18:00:00 16.1 C 12.75 g/m*3 16.1 C 0 km/h
1867 04-06-2014 18:05:00 16.1 C 12.88 g/m*3 16.1 C 0 km/h
1868 04-06-2014 18:10:00 16.2 C 12.96 g/m*3 16.2 C 0 km/h
1869 04-06-2014 18:15:00 16.2 C 13.1 g/m*3 16.2 C 0 km/h
1870 04-06-2014 18:20:00 16.3 C 13.18 g/m*3 16.3 C 0 km/h
1871 04-06-2014 18:25:00 16.5 C 13.34 g/m*3 16.5 C 0 km/h
1872 04-06-2014 18:30:00 16.6 C 13.28 g/m*3 16.6 C 0 km/h
1873 04-06-2014 18:35:00 16.9 C 13.38 g/m*3 16.9 C 6.4 km/h
1874 04-06-2014 18:40:00 17.2 C 13.47 g/m*3 17.2 C 0 km/h
1875 04-06-2014 18:45:00 17.4 C 13.34 g/m*3 17.4 C 1.6 km/h
Sensor: Nr:Datum:Temp:Abs-Feuchte:Windchill:Wind:
Aussen-T/F 1876 04-06-2014 18:50:00 17.8 C 13.36 g/m*3 17.8 C 1.6 km/h
1877 04-06-2014 18:55:00 17.9 C 13.59 g/m*3 17.9 C 0 km/h
1878 04-06-2014 19:00:00 17.9 C 13.44 g/m*3 17.9 C 0 km/h
1879 04-06-2014 19:05:00 18.1 C 13.44 g/m*3 18.1 C 1.6 km/h
1880 04-06-2014 19:10:00 18.1 C 13.75 g/m*3 18.1 C 3.2 km/h
1881 04-06-2014 19:15:00 18.1 C 13.13 g/m*3 18.1 C 1.6 km/h
1882 04-06-2014 19:20:00 18 C 13.52 g/m*3 18 C 0 km/h
1883 04-06-2014 19:25:00 17.8 C 13.51 g/m*3 17.8 C 0 km/h
1884 04-06-2014 19:30:00 17.6 C 13.5 g/m*3 17.6 C 0 km/h
1885 04-06-2014 19:35:00 17.6 C 13.5 g/m*3 17.6 C 1.6 km/h
1886 04-06-2014 21:45:00 14.6 C 11.89 g/m*3 14.6 C 0 km/h
1887 04-06-2014 21:50:00 14.5 C 11.69 g/m*3 14.5 C 0 km/h
1888 04-06-2014 21:55:00 14.5 C 11.69 g/m*3 14.5 C 1.6 km/h

Legende:
   Min
   Max


Maximal/Minimal-Werte vom 29.05.2014 - 04.06.2014

Sensor Min Max Avg
Temp
(Aussen-T/F)
5.3 °C
31-05-2014  05:55:00
24 °C
02-06-2014  17:45:00
14.55 °C
Abs-Feuchte
(Aussen-T/F)
6.58 g/m*3
31-05-2014  05:55:00
13.75 g/m*3
04-06-2014  19:10:00
9.25 g/m*3
Windchill
(Aussen-T/F)
5.3 C
31-05-2014  05:55:00
24 C
02-06-2014  17:45:00
14.53 C

Die Daten stammen von einer Davis Vantage Pro 2 Wetter-Station und werden unter Linux mit der Software wview2wettercgi und aufbereitet. Alle Angaben erfolgen ohne Gewähr für ihre Vollständigkeit oder Richtigkeit.
Kontakt: Rainer Krienke krienke@uni-koblenz.de . Meine Webseiten an der Uni Koblenz oder privat.
Version: $Revision: 0.78 $